[[{"header":{"parameterUnit":"m.s-1","parameterCategory":1,"la1":30.6,"la2":29.2853,"lo1":-89.7004,"lo2":-87.6739,"dy":0.0162,"dx":0.0183,"nx":112,"ny":82,"refTime":"2023-08-24T12:00:00:Z","depth":0,"parameterNumber":2,"parameterNumberName":"U-component_of_WINDS"},"data":[0.0,0.0,0.0,0.0,0.0,0.0,0.0,0.0,0.0,0.0,0.0,0.0,0.0,0.0,0.0,0.0,0.0,0.0,0.0,0.0,0.0,0.0,0.0,0.0,0.0,0.0,0.0,0.0,0.0,0.0,0.0,0.0,0.0,0.0,0.0,0.0,0.0,0.0,0.0,0.0,0.0,0.0,0.0,0.0,0.0,0.0,0.0,0.0,0.0,0.0,0.0,0.0,0.0,0.0,0.0,0.0,0.0,0.0,0.0,0.0,0.0,0.0,0.0,0.0,0.0,0.0,0.0,0.0,0.0,0.0,0.0,0.0,0.0,0.0,0.0,0.0,0.0,0.0,0.0,0.0,0.0,0.0,0.0,0.0,0.0,0.0,0.0,0.0,0.0,0.0,-1.6546,-1.7764,-1.9335,-1.9927,-1.902,-1.8838,-1.7753,-1.5369,0.0,0.0,0.0,0.0,0.0,0.0,0.0,0.0,0.0,0.0,0.0,0.0,0.0,0.0,0.0,0.0,0.0,0.0,0.0,0.0,0.0,0.0,0.0,0.0,0.0,0.0,0.0,0.0,0.0,0.0,0.0,0.0,0.0,0.0,0.0,0.0,0.0,0.0,0.0,0.0,0.0,0.0,0.0,0.0,0.0,0.0,0.0,0.0,0.0,0.0,0.0,0.0,0.0,0.0,0.0,0.0,0.0,0.0,0.0,0.0,0.0,0.0,0.0,0.0,0.0,0.0,0.0,0.0,0.0,0.0,0.0,0.0,0.0,0.0,0.0,0.0,0.0,0.0,0.0,0.0,0.0,0.0,0.0,0.0,0.0,0.0,0.0,0.0,0.0,0.0,0.0,0.0,0.0,0.0,0.0,0.0,0.0,0.0,0.0,0.0,0.0,0.0,0.0,0.0,-1.7305,-2.0667,-2.054,-2.0276,-2.0458,-1.9582,-1.8074,-1.5843,0.0,0.0,0.0,0.0,0.0,0.0,0.0,0.0,0.0,0.0,0.0,0.0,0.0,0.0,0.0,0.0,0.0,0.0,0.0,0.0,0.0,0.0,0.0,0.0,0.0,0.0,0.0,0.0,0.0,0.0,0.0,0.0,0.0,0.0,0.0,0.0,0.0,0.0,0.0,0.0,0.0,0.0,0.0,0.0,0.0,0.0,0.0,0.0,0.0,0.0,0.0,0.0,0.0,0.0,0.0,0.0,0.0,0.0,0.0,0.0,0.0,0.0,0.0,0.0,0.0,0.0,0.0,0.0,0.0,0.0,0.0,0.0,0.0,0.0,0.0,0.0,0.0,0.0,0.0,0.0,0.0,0.0,0.0,0.0,0.0,0.0,0.0,0.0,0.0,0.0,0.0,0.0,0.0,0.0,0.0,0.0,0.0,0.0,0.0,0.0,0.0,0.0,0.0,-1.6883,-1.914,-2.14,-2.1194,-2.0919,-2.091,-1.9697,-1.8118,-1.6194,-1.4298,0.0,0.0,0.0,0.0,0.0,0.0,0.0,0.0,0.0,0.0,0.0,0.0,0.0,0.0,0.0,0.0,0.0,0.0,0.0,0.0,0.0,0.0,0.0,0.0,0.0,0.0,0.0,0.0,0.0,0.0,0.0,0.0,0.0,0.0,0.0,0.0,0.0,0.0,0.0,0.0,0.0,0.0,0.0,0.0,0.0,0.0,0.0,0.0,0.0,0.0,0.0,0.0,0.0,0.0,0.0,0.0,0.0,0.0,0.0,0.0,0.0,0.0,0.0,0.0,0.0,0.0,0.0,0.0,0.0,0.0,0.0,0.0,0.0,0.0,0.0,0.0,0.0,0.0,0.0,0.0,0.0,0.0,0.0,0.0,0.0,0.0,0.0,0.0,0.0,0.0,0.0,0.0,0.0,0.0,0.0,0.0,0.0,0.0,0.0,0.0,0.0,0.0,-1.908,-2.0509,-2.204,-2.1575,-2.1187,-2.1255,-1.9667,-1.8003,-1.6451,-1.442,0.0,0.0,0.0,0.0,0.0,0.0,0.0,0.0,0.0,0.0,0.0,0.0,0.0,0.0,0.0,0.0,0.0,0.0,0.0,0.0,0.0,0.0,0.0,0.0,0.0,0.0,0.0,0.0,0.0,0.0,0.0,0.0,0.0,0.0,0.0,0.0,0.0,0.0,0.0,0.0,0.0,0.0,0.0,0.0,0.0,0.0,0.0,0.0,0.0,0.0,0.0,0.0,0.0,0.0,0.0,0.0,0.0,0.0,0.0,0.0,0.0,0.0,0.0,0.0,0.0,0.0,0.0,0.0,0.0,0.0,0.0,0.0,0.0,0.0,0.0,0.0,0.0,0.0,0.0,0.0,0.0,0.0,0.0,0.0,0.0,0.0,0.0,0.0,0.0,0.0,0.0,0.0,0.0,0.0,0.0,0.0,0.0,0.0,0.0,0.0,0.0,0.0,-1.8963,-2.034,-2.357,-2.1687,-2.0684,-2.1922,-1.9706,-1.7731,-1.6553,-1.4249,0.0,0.0,0.0,0.0,0.0,0.0,0.0,0.0,0.0,0.0,0.0,0.0,0.0,0.0,0.0,0.0,0.0,0.0,0.0,0.0,0.0,0.0,0.0,0.0,0.0,0.0,0.0,0.0,0.0,0.0,0.0,0.0,0.0,0.0,0.0,0.0,0.0,0.0,0.0,0.0,0.0,0.0,0.0,0.0,0.0,0.0,0.0,0.0,0.0,0.0,0.0,0.0,0.0,0.0,0.0,0.0,0.0,0.0,0.0,0.0,0.0,0.0,0.0,0.0,0.0,0.0,0.0,0.0,0.0,0.0,0.0,0.0,0.0,0.0,0.0,0.0,0.0,0.0,0.0,0.0,0.0,0.0,0.0,0.0,0.0,0.0,0.0,0.0,0.0,0.0,0.0,0.0,0.0,0.0,0.0,0.0,0.0,0.0,0.0,0.0,0.0,0.0,-1.9935,-2.1475,-2.3736,-2.2052,-2.1346,-2.2727,-2.0366,-1.8202,-1.6788,0.0,0.0,0.0,0.0,0.0,0.0,0.0,0.0,0.0,0.0,0.0,0.0,0.0,0.0,0.0,0.0,0.0,0.0,0.0,0.0,0.0,0.0,0.0,0.0,0.0,0.0,0.0,0.0,0.0,0.0,0.0,0.0,0.0,0.0,0.0,0.0,0.0,0.0,0.0,0.0,0.0,0.0,0.0,0.0,0.0,0.0,0.0,0.0,0.0,0.0,0.0,0.0,0.0,0.0,0.0,0.0,0.0,0.0,0.0,0.0,0.0,0.0,0.0,0.0,0.0,0.0,0.0,0.0,0.0,0.0,0.0,0.0,0.0,0.0,0.0,0.0,0.0,0.0,0.0,0.0,0.0,0.0,0.0,0.0,0.0,0.0,0.0,0.0,0.0,0.0,0.0,0.0,0.0,0.0,0.0,0.0,0.0,0.0,0.0,0.0,0.0,0.0,-1.9181,-2.0444,-2.196,-2.4023,-2.2371,-2.1689,-2.3145,-2.0776,-1.8617,-1.7264,0.0,0.0,0.0,0.0,0.0,0.0,0.0,0.0,0.0,0.0,0.0,0.0,0.0,0.0,0.0,0.0,0.0,0.0,0.0,0.0,0.0,0.0,0.0,0.0,0.0,0.0,0.0,0.0,0.0,0.0,0.0,0.0,0.0,0.0,0.0,0.0,0.0,0.0,0.0,0.0,0.0,0.0,0.0,0.0,0.0,0.0,0.0,0.0,0.0,0.0,0.0,0.0,0.0,0.0,0.0,0.0,0.0,0.0,0.0,0.0,0.0,0.0,0.0,0.0,0.0,0.0,0.0,0.0,0.0,0.0,0.0,0.0,0.0,0.0,0.0,0.0,0.0,0.0,0.0,0.0,0.0,0.0,0.0,0.0,0.0,0.0,0.0,0.0,0.0,0.0,0.0,0.0,0.0,0.0,0.0,0.0,0.0,0.0,0.0,0.0,0.0,0.0,-2.0062,-2.0286,-2.1435,-2.4657,-2.2558,-2.1545,-2.3076,-2.078,-1.8882,0.0,0.0,0.0,0.0,0.0,0.0,0.0,0.0,0.0,0.0,0.0,0.0,0.0,0.0,0.0,0.0,0.0,0.0,0.0,0.0,0.0,0.0,0.0,0.0,0.0,0.0,0.0,0.0,0.0,0.0,0.0,0.0,0.0,0.0,0.0,0.0,0.0,0.0,0.0,0.0,0.0,0.0,0.0,0.0,0.0,0.0,0.0,0.0,0.0,0.0,0.0,0.0,0.0,0.0,0.0,0.0,0.0,0.0,0.0,0.0,0.0,0.0,0.0,0.0,0.0,0.0,0.0,0.0,0.0,0.0,0.0,0.0,0.0,0.0,0.0,0.0,0.0,0.0,0.0,0.0,0.0,0.0,0.0,0.0,0.0,0.0,0.0,0.0,0.0,0.0,0.0,0.0,0.0,0.0,0.0,0.0,0.0,0.0,0.0,0.0,0.0,0.0,0.0,-1.9994,-2.0716,-2.1999,-2.465,-2.3063,-2.2447,-2.3987,-2.2209,-2.0601,-1.954,0.0,0.0,0.0,0.0,0.0,0.0,0.0,0.0,0.0,0.0,0.0,0.0,0.0,0.0,0.0,0.0,0.0,0.0,0.0,0.0,0.0,0.0,0.0,0.0,0.0,0.0,0.0,0.0,0.0,0.0,0.0,0.0,0.0,0.0,0.0,0.0,0.0,0.0,0.0,0.0,0.0,0.0,0.0,0.0,0.0,0.0,0.0,0.0,0.0,0.0,0.0,0.0,0.0,0.0,0.0,0.0,0.0,0.0,0.0,0.0,0.0,0.0,0.0,0.0,0.0,0.0,0.0,0.0,0.0,0.0,0.0,0.0,0.0,0.0,0.0,0.0,0.0,0.0,0.0,0.0,0.0,0.0,0.0,0.0,0.0,0.0,0.0,0.0,0.0,0.0,0.0,0.0,0.0,0.0,0.0,0.0,0.0,0.0,0.0,0.0,0.0,0.0,-1.9976,-2.0813,-2.2141,-2.457,-2.3454,-2.3055,-2.4309,-2.3015,-2.1544,-2.0219,0.0,0.0,0.0,0.0,0.0,0.0,0.0,0.0,0.0,0.0,0.0,0.0,0.0,0.0,0.0,0.0,0.0,0.0,0.0,0.0,0.0,0.0,0.0,0.0,0.0,0.0,0.0,0.0,0.0,0.0,0.0,0.0,0.0,0.0,0.0,0.0,0.0,0.0,0.0,0.0,0.0,0.0,0.0,0.0,0.0,0.0,0.0,0.0,0.0,0.0,0.0,0.0,0.0,0.0,0.0,0.0,0.0,0.0,0.0,0.0,0.0,0.0,0.0,0.0,0.0,0.0,0.0,0.0,0.0,0.0,0.0,0.0,0.0,0.0,0.0,0.0,0.0,0.0,0.0,0.0,0.0,0.0,0.0,0.0,0.0,0.0,0.0,0.0,0.0,0.0,0.0,0.0,0.0,0.0,0.0,0.0,0.0,0.0,0.0,0.0,0.0,0.0,-1.9854,-2.0727,-2.2072,-2.4351,-2.376,-2.3543,-2.4256,-2.3287,-2.1993,-2.0499,0.0,0.0,0.0,0.0,0.0,0.0,0.0,0.0,0.0,0.0,0.0,0.0,0.0,0.0,0.0,0.0,0.0,0.0,0.0,0.0,0.0,0.0,0.0,0.0,0.0,0.0,0.0,0.0,0.0,0.0,0.0,0.0,0.0,0.0,0.0,0.0,0.0,0.0,0.0,0.0,0.0,0.0,0.0,0.0,0.0,0.0,0.0,0.0,0.0,0.0,0.0,0.0,0.0,0.0,0.0,0.0,0.0,0.0,0.0,0.0,-1.435,-1.3582,0.0,0.0,0.0,0.0,0.0,0.0,0.0,0.0,0.0,0.0,0.0,0.0,0.0,0.0,0.0,0.0,0.0,0.0,0.0,0.0,0.0,0.0,0.0,0.0,0.0,0.0,0.0,0.0,0.0,0.0,0.0,0.0,0.0,0.0,0.0,0.0,0.0,0.0,0.0,0.0,-1.8881,-2.0789,-2.2414,-2.3562,-2.3998,-2.4266,-2.4446,-2.351,-2.262,-2.1974,-1.9426,0.0,0.0,0.0,0.0,0.0,0.0,0.0,0.0,0.0,0.0,0.0,0.0,0.0,0.0,0.0,0.0,0.0,0.0,0.0,0.0,0.0,0.0,0.0,0.0,0.0,0.0,0.0,0.0,0.0,0.0,0.0,0.0,0.0,0.0,0.0,0.0,0.0,0.0,0.0,0.0,0.0,0.0,0.0,0.0,0.0,0.0,0.0,0.0,0.0,0.0,0.0,0.0,0.0,0.0,0.0,0.0,0.0,0.0,0.0,-1.6788,-1.5937,0.0,0.0,0.0,0.0,0.0,0.0,0.0,0.0,0.0,0.0,0.0,0.0,0.0,0.0,0.0,0.0,0.0,0.0,0.0,0.0,0.0,0.0,0.0,0.0,0.0,0.0,0.0,0.0,0.0,0.0,0.0,0.0,0.0,0.0,0.0,0.0,0.0,0.0,0.0,0.0,-1.916,-2.0997,-2.2604,-2.3798,-2.4228,-2.4437,-2.4357,-2.3796,-2.2963,-2.1885,-2.0163,0.0,0.0,0.0,0.0,0.0,0.0,0.0,0.0,0.0,0.0,0.0,0.0,0.0,0.0,0.0,0.0,0.0,0.0,0.0,0.0,0.0,0.0,0.0,0.0,0.0,0.0,0.0,0.0,0.0,0.0,0.0,0.0,0.0,0.0,0.0,0.0,0.0,0.0,0.0,0.0,0.0,0.0,0.0,0.0,0.0,0.0,0.0,0.0,0.0,0.0,0.0,0.0,0.0,-1.9208,-1.9903,-2.1182,-2.1229,-2.0865,-2.0092,-1.8676,-1.7964,-1.7768,-1.7099,0.0,0.0,0.0,0.0,0.0,0.0,0.0,0.0,0.0,0.0,0.0,0.0,0.0,0.0,0.0,0.0,0.0,0.0,0.0,0.0,0.0,0.0,-1.7665,-1.8589,-1.9269,-1.8964,-1.6247,0.0,0.0,0.0,0.0,0.0,0.0,0.0,0.0,0.0,0.0,0.0,-1.9754,-2.1186,-2.2632,-2.4097,-2.4327,-2.433,-2.421,-2.3762,-2.288,-2.1504,-2.0685,-1.9233,0.0,0.0,0.0,0.0,0.0,0.0,0.0,0.0,0.0,0.0,0.0,0.0,0.0,0.0,0.0,0.0,0.0,0.0,0.0,0.0,0.0,0.0,0.0,0.0,0.0,0.0,0.0,0.0,0.0,0.0,0.0,0.0,-1.5692,-1.4955,0.0,0.0,0.0,0.0,0.0,0.0,0.0,0.0,0.0,0.0,0.0,0.0,0.0,-1.7089,-1.8476,-1.8509,-1.9001,-1.9963,-2.0005,-2.0121,-2.0274,-2.0284,-2.0217,-2.0098,-1.9934,0.0,-1.8633,-1.8582,0.0,0.0,0.0,0.0,0.0,0.0,0.0,0.0,0.0,0.0,0.0,0.0,0.0,0.0,0.0,0.0,0.0,0.0,0.0,0.0,0.0,0.0,-1.8549,-1.9436,-1.9676,-1.9576,-1.9151,-1.8471,-1.7955,-1.7931,-1.7341,-1.6851,0.0,0.0,0.0,0.0,0.0,0.0,-1.9613,-2.1062,-2.2274,-2.3194,-2.3905,-2.4275,-2.421,-2.2739,-2.1948,-2.2304,-2.0086,-1.8686,-1.8508,-1.7752,0.0,0.0,0.0,0.0,0.0,0.0,0.0,0.0,0.0,0.0,0.0,0.0,0.0,0.0,0.0,0.0,0.0,0.0,0.0,0.0,0.0,0.0,0.0,0.0,0.0,0.0,0.0,0.0,0.0,-1.5904,-1.6329,-1.593,-1.5817,-1.5491,0.0,0.0,0.0,0.0,0.0,0.0,0.0,0.0,0.0,-1.7936,-1.8424,-1.9001,-1.9673,-1.9669,-2.0052,-2.0829,-2.0867,-2.0843,-2.0784,-2.0814,-2.0556,-2.0131,-2.0647,-2.0647,-2.0227,-1.9759,-1.9035,-1.8199,0.0,0.0,0.0,0.0,-1.6559,-1.6849,-1.6887,-1.7103,-1.73,-1.6873,0.0,0.0,0.0,0.0,0.0,0.0,0.0,-1.7187,-1.8313,-1.8851,-1.9214,-1.9607,-1.9668,-1.9647,-1.9647,-1.9367,-1.9118,-1.9081,-1.8788,-1.8423,-1.8031,-1.7618,0.0,0.0,0.0,-1.8309,-1.9532,-2.0982,-2.2212,-2.3019,-2.3796,-2.4219,-2.4143,-2.3302,-2.2478,-2.1752,-2.0488,-1.939,-1.845,-1.7763,-1.665,0.0,0.0,0.0,0.0,0.0,0.0,0.0,0.0,0.0,0.0,0.0,0.0,0.0,0.0,0.0,0.0,0.0,0.0,0.0,0.0,0.0,0.0,0.0,0.0,0.0,0.0,0.0,0.0,-1.6262,-1.6782,-1.6705,-1.6853,-1.6779,0.0,0.0,0.0,0.0,0.0,0.0,-1.7761,-1.9008,-1.9783,-1.9933,-2.0577,-2.0872,-2.0811,-2.0798,-2.1072,-2.1659,-2.1453,-2.1428,-2.1573,-2.1214,-2.0809,-2.0437,-2.0866,-2.1043,-2.1,-2.057,-2.0011,-1.942,-1.9187,-1.8673,-1.8078,-1.8156,-1.8485,-1.8874,-1.8886,-1.9189,-1.9474,-1.8879,-1.8506,-1.8116,-1.7108,0.0,0.0,0.0,0.0,-1.8623,-1.8805,-1.9226,-1.9608,-1.9608,-1.9599,-1.9602,-1.9576,-1.9569,-1.955,-1.9574,-1.9571,-1.9379,-1.8782,-1.8484,0.0,-1.8191,-1.8379,-1.9019,-2.0299,-2.147,-2.2459,-2.3244,-2.3814,-2.4096,-2.4026,-2.3674,-2.2764,-2.1163,-2.0717,-1.975,-1.81,-1.7681,-1.6892,-1.566,0.0,0.0,0.0,0.0,0.0,0.0,0.0,0.0,0.0,0.0,0.0,0.0,0.0,0.0,0.0,0.0,0.0,0.0,0.0,0.0,0.0,0.0,0.0,0.0,0.0,0.0,0.0,0.0,0.0,-1.7558,-1.8268,0.0,0.0,0.0,0.0,-1.7473,-1.8336,-1.9561,-2.1152,-2.1323,-2.1722,-2.2498,-2.2571,-2.2551,-2.2475,-2.2416,-2.2365,-2.233,-2.159,-2.1603,-2.2292,-2.076,-2.0506,-2.1205,-2.0411,-2.0068,-2.0125,-2.092,-2.1205,-2.1086,-2.0267,-1.9918,-1.9869,-1.9805,-1.9725,-1.9643,-1.9643,-1.9587,-1.9505,-1.9467,-1.8931,-1.8419,-1.9042,-1.8285,0.0,0.0,-1.8385,-1.8677,-1.9361,-1.9577,-1.9608,-1.9608,-1.9599,-1.9583,-1.9518,-1.9456,-1.9423,-1.9485,-1.9501,-1.9486,-1.9455,0.0,-1.8657,-2.0292,-1.9793,-2.0115,-2.2518,-2.2841,-2.3123,-2.388,-2.3929,-2.3896,-2.3816,-2.3001,-2.2043,-2.1065,-2.0171,-1.9113,-1.7867,-1.7738,-1.7327,-1.6546,-1.6163,0.0,0.0,0.0,0.0,0.0,0.0,0.0,0.0,0.0,0.0,0.0,0.0,0.0,0.0,0.0,0.0,0.0,0.0,0.0,0.0,0.0,0.0,0.0,0.0,0.0,0.0,0.0,0.0,-1.8389,-1.8658,0.0,-1.8687,-1.8484,-1.8602,-1.9173,-2.0002,-2.0752,-2.1393,-2.1938,-2.2319,-2.255,-2.256,-2.2532,-2.2479,-2.2444,-2.2401,-2.2332,-2.2029,-2.2048,-2.2313,-2.1739,-2.1663,-2.199,-2.1679,-2.1538,-2.1538,-2.1324,-2.0926,-2.0438,-2.0066,-2.0253,-2.0702,-2.064,-2.0882,-2.1166,-2.0595,-2.0344,-2.0185,-1.9623,-1.9268,-1.9105,-1.9335,-1.9085,-1.8769,-1.9058,-1.9139,-1.932,-2.0114,-2.0315,-2.043,-2.0959,-2.1073,-2.1076,-2.105,-2.1034,-2.0992,-2.0925,-2.0071,-1.9514,-1.9941,-1.9762,-1.9936,-2.0978,-2.0887,-2.1015,-2.1862,-2.2445,-2.2862,-2.3085,-2.3534,-2.3789,-2.3675,-2.332,-2.2484,-2.1036,-2.0944,-2.0246,-1.8636,-1.8877,-1.8584,-1.7583,-1.7243,-1.6125,0.0,0.0,0.0,0.0,0.0,0.0,0.0,0.0,0.0,0.0,0.0,0.0,0.0,0.0,0.0,0.0,0.0,0.0,0.0,0.0,0.0,0.0,0.0,0.0,0.0,-1.8274,-1.9038,-1.9197,-1.9231,-1.943,-1.9942,-1.9784,-1.9872,-2.0463,-2.1249,-2.1844,-2.2166,-2.2677,-2.3086,-2.3303,-2.3057,-2.3007,-2.3214,-2.2929,-2.2888,-2.3105,-2.2814,-2.2832,-2.3086,-2.2515,-2.2453,-2.277,-2.2476,-2.2357,-2.23,-2.1758,-2.1218,-2.0646,-2.0109,-2.0236,-2.069,-2.0646,-2.0947,-2.1299,-2.0934,-2.0726,-2.0583,-2.0299,-1.9865,-1.949,-1.973,-1.9656,-1.9545,-1.9881,-1.993,-2.01,-2.0891,-2.1047,-2.1138,-2.1663,-2.1757,-2.1741,-2.1767,-2.174,-2.1705,-2.1625,-2.0791,-2.0223,-2.0617,-2.0708,-2.0962,-2.1642,-2.1809,-2.1929,-2.2131,-2.2676,-2.3022,-2.2932,-2.3365,-2.3623,-2.3522,-2.321,-2.2408,-2.0939,-2.1086,-2.0458,-1.8728,-1.911,-1.8869,-1.7825,-1.7521,-1.6443,-1.449,0.0,0.0,0.0,0.0,0.0,0.0,0.0,0.0,0.0,0.0,0.0,0.0,0.0,0.0,0.0,0.0,0.0,0.0,0.0,0.0,0.0,0.0,0.0,-1.8885,-1.8954,-1.9192,-1.9921,-2.0078,-2.0115,-2.0037,-2.0836,-2.1347,-2.1328,-2.208,-2.2878,-2.3657,-2.3695,-2.4043,-2.4835,-2.409,-2.403,-2.4742,-2.3941,-2.3915,-2.4682,-2.3805,-2.3843,-2.4645,-2.2993,-2.2707,-2.3491,-2.2689,-2.2299,-2.2224,-2.2206,-2.2151,-2.1946,-2.0521,-1.997,-2.0006,-2.0,-2.0,-2.0079,-2.0653,-2.0712,-2.0668,-2.1528,-2.0684,-1.9536,-2.0376,-2.0065,-1.9605,-2.0462,-2.0691,-2.0849,-2.1683,-2.1749,-2.1616,-2.1653,-2.157,-2.1485,-2.1561,-2.1514,-2.1476,-2.1467,-2.1635,-2.168,-2.1459,-2.1431,-2.1671,-2.2335,-2.2535,0.0,-2.3506,-2.3652,-2.3656,-2.3585,-2.3471,-2.336,-2.3301,-2.257,-2.1726,-2.0783,-2.0482,-1.9668,-1.8143,-1.8408,-1.8182,-1.7306,-1.7093,-1.6127,-1.4382,0.0,0.0,0.0,0.0,0.0,0.0,0.0,0.0,0.0,0.0,0.0,0.0,0.0,0.0,0.0,0.0,0.0,0.0,0.0,0.0,0.0,-1.7931,-1.8651,-1.8889,-1.9467,-1.9887,-1.9997,-2.0562,-2.0934,-2.0884,-2.1667,-2.2147,-2.2109,-2.2887,-2.3448,-2.3616,-2.364,-2.3721,-2.3889,-2.3622,-2.3577,-2.3784,-2.4038,-2.4261,-2.4468,-2.3702,-2.3755,-2.4518,-2.3515,-2.352,-2.4257,-2.3461,-2.3056,-2.2954,-2.2315,-2.1993,-2.1848,-2.1496,-2.1734,-2.2282,-2.2247,-2.2184,-2.2167,-2.227,-2.1843,-2.1252,-2.1498,-2.1279,-2.0951,-2.1179,-2.0765,-2.0246,-2.048,-2.0163,-2.0068,-2.1399,-2.1678,-2.1881,-2.2991,-2.3194,-2.3123,-2.3113,-2.3074,-2.3061,-2.2995,-2.3044,-2.2864,-2.2174,-2.2088,-2.2343,-2.2951,-2.3173,-2.3267,-2.3319,-2.3407,-2.3418,-2.3253,-2.3205,-2.3156,-2.3095,-2.2753,-2.2163,-2.1251,-2.1406,-2.1018,-1.9867,-2.032,-2.0122,-1.9106,-1.7652,-1.6668,0.0,0.0,0.0,0.0,0.0,0.0,0.0,0.0,0.0,0.0,0.0,0.0,0.0,0.0,0.0,0.0,0.0,0.0,0.0,0.0,0.0,0.0,-1.8459,-1.8962,-1.9283,-1.9783,-2.0217,-2.047,-2.0961,-2.1369,-2.1681,-2.2489,-2.2975,-2.2905,-2.368,-2.4136,-2.4053,-2.4061,-2.3855,-2.339,-2.3355,-2.3335,-2.3273,-2.3648,-2.4004,-2.4301,-2.3876,-2.3913,-2.4356,-2.3928,-2.3982,-2.4399,-2.3962,-2.3741,-2.3634,-2.311,-2.2819,-2.2711,0.0,0.0,0.0,0.0,-2.2771,-2.2987,-2.2951,-2.2529,-2.2007,-2.2007,-2.177,-2.1497,-2.1497,-2.1234,-2.0987,-2.1324,-2.1095,-2.1032,-2.2227,-2.2476,-2.2622,-2.353,-2.3653,-2.3598,-2.3587,-2.3547,-2.352,-2.3481,-2.3447,0.0,-2.2699,-2.2674,-2.2839,-2.317,-2.3265,-2.3241,-2.3077,-2.3144,-2.3144,-2.2995,-2.2965,-2.2914,-2.2803,-2.2388,0.0,0.0,0.0,-2.1015,-2.0239,-2.0261,0.0,0.0,0.0,-1.7557,-1.7302,-1.6804,0.0,0.0,-1.4163,-1.428,0.0,0.0,0.0,0.0,0.0,0.0,0.0,0.0,0.0,0.0,0.0,0.0,0.0,0.0,0.0,0.0,-1.8821,-1.9154,-1.9819,-2.0012,-2.0378,-2.1106,-2.1365,-2.1751,-2.2483,-2.3316,-2.3794,-2.3733,-2.4383,-2.4761,-2.4684,-2.458,0.0,0.0,0.0,-2.3205,-2.3093,-2.3168,-2.3538,-2.4173,-2.4089,-2.4098,-2.419,-2.4109,-2.4109,-2.4192,-2.4257,-2.4238,-2.4173,-2.4097,-2.4067,-2.3928,-2.2646,-2.209,-2.2026,-2.2099,-2.253,-2.3079,-2.3079,0.0,0.0,-2.2805,-2.2312,-2.1738,-2.1759,-2.1678,-2.1769,-2.2476,-2.2564,-2.2622,-2.3339,-2.3461,-2.3369,-2.3453,-2.336,-2.3289,-2.3336,-2.3313,-2.3265,-2.3253,-2.3205,-2.3119,-2.3008,-2.3095,-2.3139,-2.3095,-2.3033,-2.297,-2.2893,-2.2876,-2.2855,-2.2777,-2.2764,0.0,-2.2501,-2.1852,-2.1364,-2.1184,-2.0761,-2.0352,-1.9909,-1.9215,-1.8763,-1.8563,-1.8774,-1.8637,-1.8149,-1.8295,-1.8109,-1.756,-1.6661,-1.6695,0.0,0.0,0.0,0.0,0.0,0.0,0.0,0.0,0.0,0.0,0.0,0.0,0.0,0.0,0.0,-1.8649,-1.9265,-1.975,-1.9883,-2.0414,-2.0879,-2.1097,-2.2306,-2.3219,-2.3428,-2.4136,-2.455,-2.4486,-2.4575,-2.4615,-2.4532,-2.3859,-2.339,-2.3134,-2.3031,-2.2977,-2.3014,-2.3565,-2.3909,-2.4027,-2.3445,0.0,-2.4095,-2.3492,-2.3594,-2.4199,-2.4152,-2.4095,-2.4036,-2.3899,-2.3824,-2.3761,-2.364,-2.353,-2.343,-2.3494,-2.3573,-2.3645,-2.3653,-2.3559,-2.3422,-2.3487,-2.3365,-2.3203,-2.3271,-2.2821,0.0,-2.2491,-2.2048,-2.1702,-2.2392,-2.2514,-2.2594,-2.313,-2.3205,-2.3132,-2.3095,-2.307,-2.3045,-2.2995,-2.2914,-2.2881,-2.2838,-2.2957,-2.302,-2.2957,-2.2932,-2.2881,-2.2751,-2.279,-2.2751,-2.2582,-2.2569,-2.2528,-2.2419,-2.204,-2.174,-2.1582,-2.1005,-2.0621,-2.0523,-2.0031,-1.9684,-1.9533,-1.9364,-1.9184,-1.8982,-1.8906,-1.879,-1.8683,-1.7634,-1.7238,0.0,0.0,0.0,0.0,0.0,0.0,0.0,0.0,0.0,0.0,0.0,-1.7391,-1.7917,0.0,-1.8818,-1.9182,-1.9611,-1.9871,-1.9807,-2.0457,-2.1139,-2.1632,-2.2806,-2.3729,-2.4157,-2.4535,-2.4565,-2.4087,-2.398,-2.3926,-2.3851,-2.3376,-2.3049,-2.2941,-2.328,-2.3242,-2.2793,-2.3527,-2.3904,-2.3902,-2.3525,-2.3563,-2.3943,-2.3565,-2.3641,-2.4054,-2.3974,-2.3925,-2.3886,-2.3757,-2.3638,-2.3567,-2.3732,-2.3797,-2.3797,-2.3834,-2.381,-2.3743,-2.3743,-2.3663,-2.3562,-2.3596,-2.3585,-2.3562,-2.3596,-2.3298,-2.2932,-2.2914,-2.2562,-2.2271,-2.2575,-2.2594,-2.2629,-2.2977,-2.3015,-2.2995,-2.2957,-2.2914,-2.2881,-2.2816,-2.2751,-2.2685,-2.2659,-2.2642,-2.2655,-2.2699,-2.2602,-2.2538,-2.2501,-2.2542,-2.247,-2.2274,-2.2271,-2.2231,-2.2063,-2.1738,-2.1449,-2.1198,-2.0794,-2.0443,-2.0202,-1.9904,-1.969,-1.9548,-1.9362,-1.925,-1.9254,-1.895,-1.8812,-1.8798,-1.8229,-1.8036,0.0,0.0,0.0,0.0,0.0,0.0,0.0,-1.7011,-1.7182,-1.7197,-1.7411,-1.788,-1.8697,-1.8901,-1.9112,-1.9717,-1.983,-1.9825,-1.9699,-2.0364,-2.1169,-2.1894,-2.2865,-2.3791,-2.4609,-2.4668,-2.4356,-2.3646,-2.3518,-2.3444,-2.3393,-2.3252,-2.3125,-2.3028,-2.3628,-2.3595,-2.2841,-2.3456,-2.3789,-2.3783,-2.3783,-2.3783,-2.3783,-2.3793,-2.3828,-2.3873,-2.3775,-2.3714,-2.3685,-2.3567,-2.3459,-2.3348,-2.3494,-2.3607,-2.3689,-2.3739,-2.3685,-2.3611,-2.3623,-2.3533,-2.3407,-2.3407,-2.3407,-2.3407,-2.3407,-2.3389,-2.3313,-2.3253,-2.3139,-2.3028,-2.2952,-2.2906,-2.2838,-2.2829,-2.2829,-2.2829,-2.2829,-2.2777,-2.2712,-2.2646,-2.2565,-2.2497,-2.2415,-2.2287,-2.2245,-2.2446,-2.229,-2.2178,-2.2223,-2.2223,-2.2149,-2.1955,-2.1998,-2.1911,-2.1648,-2.1341,-2.1006,-2.0677,-2.0443,-2.0118,-1.969,-1.953,-1.938,-1.9195,-1.9101,-1.9082,-1.9134,-1.8745,-1.8553,-1.8553,-1.8464,-1.8562,-1.3517,-1.4257,-1.5379,-1.6431,-1.6728,-1.695,0.0,-1.8074,-1.8154,-1.823,-1.8908,-1.9555,-1.9726,-1.9751,-1.9771,-1.9806,-1.9757,-1.9701,-1.9628,-2.0308,-2.0819,-2.0864,-2.2376,-2.3726,-2.4522,-2.4549,-2.4462,-2.4309,-2.4165,-2.4099,-2.409,-2.39,-2.3782,-2.3779,-2.3806,-2.3771,-2.366,-2.3707,-2.3711,-2.3711,-2.3711,-2.3711,-2.3711,-2.3765,-2.3765,-2.3721,-2.3596,-2.343,-2.3277,-2.3253,-2.3205,-2.3156,-2.3277,-2.3313,-2.3301,-2.3522,-2.3464,-2.3247,-2.3324,-2.3265,-2.3126,-2.3126,-2.3126,-2.3126,-2.3126,-2.3107,-2.3028,-2.3045,-2.2982,-2.2889,-2.2764,-2.2725,-2.2685,-2.2565,-2.2538,-2.2538,-2.2538,-2.2487,-2.2446,-2.2432,-2.2335,-2.2203,-2.207,-2.1943,-2.1974,-2.229,-2.2144,-2.1998,-2.1957,-2.1943,-2.1884,-2.1738,-2.1738,-2.1632,-2.1372,-2.1087,-2.0828,-2.0544,-2.0218,-1.9902,-1.9548,-1.9398,-1.9176,-1.886,-1.8841,-1.876,-1.8595,-1.8417,-1.8324,-1.8324,-1.8141,-1.8181,-1.4724,-1.5603,-1.6631,-1.7646,-1.8217,-1.8652,-1.9083,-1.9183,-1.9182,-1.9214,-1.9507,-1.9757,-1.9831,-1.983,-1.9994,-2.0427,-2.0432,-2.0392,-2.0362,-2.0581,-2.0711,-2.0646,-2.1656,-2.2705,-2.3648,-2.4089,-2.4118,-2.3611,-2.3492,-2.3427,-2.3381,-2.3265,-2.3373,-2.3771,-2.3754,-2.37,-2.3629,-2.3641,-2.3611,-2.3578,-2.3611,-2.3629,-2.3578,-2.36,-2.3567,-2.3464,-2.3441,-2.3301,-2.3077,-2.3077,-2.3028,-2.2977,-2.3095,-2.3077,-2.3052,-2.336,-2.3313,-2.3095,-2.3119,-2.3045,-2.2932,-2.2932,-2.2932,-2.2932,-2.2932,-2.2855,-2.2764,-2.2764,-2.2725,-2.2646,-2.2592,-2.2538,-2.2515,-2.246,-2.2405,-2.2377,-2.2377,-2.2335,-2.2262,-2.2189,-2.2087,-2.2003,-2.1899,-2.1706,-2.1616,-2.1751,-2.169,-2.1676,-2.1723,-2.1617,-2.1479,-2.1308,-2.1182,-2.1039,-2.086,-2.0545,-2.0289,-2.0048,-1.969,-1.9343,-1.8978,-1.8874,-1.8721,-1.85,-1.85,-1.8509,-1.8498,-1.824,-1.8127,-1.8108,-1.7828,-1.776,-1.5309,-1.6236,-1.7175,-1.8298,-1.9142,-1.9738,-1.9835,-1.9812,-1.9776,-1.9801,-1.977,-1.9738,-1.9776,-1.9951,-2.0283,-2.084,-2.1087,-2.1197,-2.1176,-2.1062,-2.0933,-2.0859,-2.1443,-2.2126,-2.2868,-2.3656,-2.3885,-2.3327,-2.3216,-2.3158,-2.3084,-2.3004,-2.32,-2.3667,-2.3667,-2.3629,-2.3528,-2.3573,-2.3562,-2.3505,-2.3562,-2.3551,-2.3471,-2.3441,-2.3372,-2.3265,-2.3265,-2.3132,-2.2893,-2.2919,-2.2881,-2.2829,-2.2919,-2.2889,-2.2881,-2.3144,-2.3107,-2.2919,-2.2919,-2.2829,-2.2712,-2.2712,-2.2712,-2.2712,-2.2699,-2.2619,-2.2542,-2.2528,-2.2501,-2.246,-2.2432,-2.236,-2.2304,-2.2262,-2.2223,-2.2166,-2.2137,-2.2109,-2.2017,-2.1868,-2.1794,-2.172,-2.1648,-2.1627,-2.1535,-2.1293,-2.1407,-2.1488,-2.1419,-2.1214,-2.1023,-2.0893,-2.0712,-2.0526,-2.039,-2.0098,-1.9833,-1.9548,-1.9232,-1.8879,-1.8519,-1.847,-1.8372,-1.8226,-1.8226,-1.8274,-1.8341,-1.8055,-1.7922,-1.7902,-1.7557,-1.7413,-1.5016,-1.5998,-1.699,-1.8198,-1.9157,-1.9776,-1.972,-1.9695,-1.972,-1.9795,-1.9801,-1.9782,-1.9706,-2.0342,-2.083,-2.0726,-2.1413,-2.1943,-2.1871,-2.1745,-2.1624,-2.1498,-2.206,-2.2481,-2.2509,-2.3361,-2.3927,-2.3969,-2.3901,-2.385,-2.3769,-2.371,-2.3649,-2.3596,-2.3596,-2.3596,-2.3603,-2.3596,-2.3562,-2.3505,-2.3562,-2.3528,-2.3395,-2.3336,-2.3265,-2.3193,-2.3008,-2.2803,-2.2623,-2.2672,-2.2672,-2.2619,-2.2751,-2.2764,-2.2712,-2.279,-2.2777,-2.2712,-2.2712,-2.2619,-2.2515,-2.2515,-2.2515,-2.2501,-2.2432,-2.2405,-2.2391,-2.2324,-2.2349,-2.2363,-2.2234,-2.2158,-2.2068,-2.1957,-2.1855,-2.1797,-2.1723,-2.1724,-2.1648,-2.1463,-2.1417,-2.1371,-2.123,-2.1762,-2.1889,-2.1054,-2.1415,-2.1587,-2.1005,-2.0696,-2.0527,-2.0527,-2.0392,-2.0235,-2.0041,-1.9889,-1.9606,-1.9157,-1.8974,-1.8726,-1.8324,-1.8305,-1.8206,-1.8008,-1.8008,-1.7982,-1.7922,-1.7781,-1.7699,-1.7699,-1.7378,-1.722,-1.6846,-1.7519,-1.8142,-1.9161,-1.9669,-1.9936,-1.9908,-1.99,-1.9881,-1.986,-1.9867,-1.9856,-1.9782,-2.0386,-2.1045,-2.1495,-2.2224,-2.2701,-2.2634,-2.2556,-2.2237,-2.1524,-2.2026,-2.2446,-2.2506,-2.2714,-2.2872,-2.2994,-2.2984,-2.2973,-2.2994,-2.35,-2.3747,-2.3667,-2.3674,-2.3652,-2.3596,-2.3551,-2.3517,-2.3505,-2.3383,-2.3336,-2.3324,-2.3265,-2.3114,-2.2927,-2.2919,-2.2764,-2.2542,-2.2569,-2.2565,-2.2592,-2.2646,-2.2636,-2.2582,-2.2646,-2.2582,-2.2446,-2.2542,-2.2515,-2.2419,-2.2394,-2.2335,-2.229,-2.2262,-2.222,-2.213,-2.2118,-2.2115,-2.2115,-2.2015,-2.1957,-2.1884,-2.1797,-2.2025,-2.2261,-2.2246,-2.2476,-2.2651,-2.2549,-2.2465,-2.2218,-2.1635,-2.1645,-2.1429,-2.0503,-2.0698,-2.0828,-2.0542,-2.0321,-2.0131,-2.0045,-1.9764,-1.9551,-1.9479,-1.9184,-1.894,-1.8784,-1.8567,-1.8333,-1.8108,-1.7975,-1.7835,-1.7679,-1.7754,-1.7747,-1.7632,-1.7536,-1.7453,-1.7357,-1.7128,-1.6939,-1.7628,-1.8187,-1.8645,-1.966,-1.9936,-1.995,-1.9958,-1.9969,-1.995,-1.9906,-1.9836,-1.9757,-1.9642,-2.0224,-2.0978,-2.1736,-2.253,-2.314,-2.3354,-2.3289,-2.2961,-2.2237,-2.2493,-2.2727,-2.2749,-2.2405,-2.2395,-2.2873,-2.2841,-2.283,-2.2873,-2.335,-2.3609,-2.3589,-2.3567,-2.3555,-2.3562,-2.3505,-2.3459,-2.3436,-2.3253,-2.3217,-2.3301,-2.318,-2.3008,-2.2764,-2.279,-2.2632,-2.2408,-2.2446,-2.2487,-2.2542,-2.2538,-2.2542,-2.2501,-2.2497,-2.2402,-2.2307,-2.2391,-2.2346,-2.2262,-2.2206,-2.2147,-2.2118,-2.2061,-2.1986,-2.1911,-2.1869,-2.1884,-2.1869,-2.1749,-2.1873,-2.2026,-2.1902,-2.2313,-2.27,-2.2667,-2.2742,-2.273,-2.259,-2.2262,-2.1823,-2.1241,-2.1007,-2.0788,-2.0444,-2.0268,-2.015,-2.0131,-1.997,-1.981,-1.9672,-1.9402,-1.9184,-1.9072,-1.875,-1.85,-1.8383,-1.8169,-1.7949,-1.7794,-1.7659,-1.7515,-1.7323,-1.7399,-1.7399,-1.7323,-1.7253,-1.7183,-1.7094,-1.6863,-1.6705,-1.7436,-1.8071,-1.8539,-1.9611,-1.989,-1.989,-1.9883,-1.9883,-1.9877,-1.9853,-1.9701,-1.9502,-1.931,-1.9916,-2.0674,-2.1415,-2.2337,-2.3226,-2.3923,-2.3856,-2.3674,-2.3522,-2.3383,-2.3289,-2.3217,-2.2517,-2.2476,-2.3497,-2.3417,-2.333,-2.333,-2.3319,-2.3324,-2.3383,-2.3324,-2.3348,-2.3482,-2.3424,-2.3348,-2.3277,-2.3156,-2.3139,-2.3265,-2.3082,-2.2881,-2.2672,-2.2619,-2.2446,-2.2197,-2.2338,-2.2408,-2.2422,-2.246,-2.2487,-2.2474,-2.2332,-2.229,-2.2245,-2.2265,-2.2132,-2.1998,-2.1984,-2.1984,-2.1955,-2.1825,-2.1766,-2.1753,-2.1619,-2.1619,-2.1649,-2.1481,-2.1923,-2.2394,-2.2213,-2.2607,-2.2996,-2.2927,-2.2433,-2.1918,-2.1672,-2.0955,-2.0337,-2.0161,-1.994,-2.0032,-2.0729,-2.0109,-1.9647,-1.9762,-1.965,-1.952,-1.9395,-1.9302,-1.9101,-1.8784,-1.8572,-1.8319,-1.8043,-1.7828,-1.7643,-1.7476,-1.7455,-1.7324,-1.7041,-1.7041,-1.7028,-1.6981,-1.6918,-1.6876,-1.6867,-1.6607,-1.6479,-1.865,-1.9112,-1.9401,-1.9731,-1.9831,-1.9788,-1.9643,-1.956,-1.9481,-1.9328,-1.9133,-1.8988,-1.8929,-2.0065,-2.0897,-2.059,-2.1751,-2.2788,-2.301,-2.2966,-2.3076,-2.3524,-2.3505,-2.3395,-2.3289,-2.3004,-2.2957,-2.3271,-2.2711,-2.2341,-2.2295,-2.2994,-2.3313,-2.318,-2.3217,-2.3217,-2.3205,-2.3193,-2.3132,-2.3008,-2.297,-2.2919,-2.2838,-2.2889,-2.2734,-2.2415,-2.2538,-2.246,-2.2209,-2.2296,-2.2349,-2.2408,-2.2349,-2.2262,-2.2113,-2.2084,-2.1943,-2.1769,-2.1786,-2.1814,-2.184,-2.1781,-2.1738,-2.1679,-2.154,-2.1494,-2.1479,-2.1387,-2.1403,-2.1486,-2.1826,-2.1681,-2.152,-2.1778,-2.1909,-2.1947,-2.1768,-2.187,-2.1971,-2.1854,-2.1133,-2.0531,-2.0475,-2.0015,-1.971,-1.9907,-1.966,-1.9487,-1.9629,-1.9395,-1.9191,-1.9111,-1.8731,-1.8411,-1.8226,-1.8016,-1.8018,-1.8275,-1.8161,-1.8188,-1.8422,-1.829,-1.8007,-1.7538,-1.7525,-1.7233,-1.6629,-1.6607,-1.6522,-1.6374,-1.6297,-1.6219,-1.9073,-1.9502,-1.9726,-1.9781,-1.9812,-1.9719,-1.922,-1.9259,-1.9153,-1.828,-1.8384,-1.8512,-1.8128,-1.9154,-2.0185,-2.0532,-2.1167,-2.1967,-2.306,-2.2793,-2.2704,-2.3352,-2.3383,-2.3313,-2.318,-2.3107,-2.307,-2.3082,-2.2686,-2.2423,-2.2387,-2.2898,-2.3144,-2.307,-2.3045,-2.3033,-2.302,-2.2977,-2.2919,-2.2816,-2.2777,-2.2725,-2.2659,-2.2764,-2.2615,-2.2301,-2.247,-2.2374,-2.2075,-2.2132,-2.2175,-2.2203,-2.212,-2.2003,-2.1882,-2.1749,-2.1602,-2.1465,-2.1419,-2.145,-2.1496,-2.1527,-2.1511,-2.145,-2.134,-2.1293,-2.1262,-2.1215,-2.1151,-2.1151,-2.1451,-2.1638,-2.1725,-2.1594,-2.197,-2.222,-2.1818,-2.1877,-2.1849,-2.1349,-2.0593,-1.9996,-1.9958,-1.9645,-1.9376,-1.9376,-1.9284,-1.9326,-1.9603,-1.9252,-1.8912,-1.8788,-1.8386,-1.8075,-1.7975,-1.7666,-1.7627,-1.7951,-1.7695,-1.7725,-1.8121,-1.8045,-1.7964,-1.7829,-1.7589,-1.7298,-1.6939,-1.6613,-1.6392,-1.6297,-1.6244,-1.61,-1.907,-1.9516,-1.9694,-1.9638,-1.968,-1.9484,-1.8591,-1.875,-1.8669,-1.7023,-1.7529,-1.8011,-1.7155,-1.7918,-1.9139,-2.0601,-2.0539,-2.1096,-2.3332,-2.2844,-2.2489,-2.3123,-2.3205,-2.3156,-2.3003,-2.2995,-2.297,-2.2919,-2.2957,-2.2982,-2.297,-2.2902,-2.2919,-2.297,-2.2829,-2.279,-2.2868,-2.2803,-2.2725,-2.2659,-2.2605,-2.2582,-2.2552,-2.2632,-2.2538,-2.229,-2.2419,-2.2245,-2.1928,-2.1969,-2.1984,-2.1955,-2.1811,-2.1736,-2.1661,-2.1387,-2.1262,-2.123,-2.1167,-2.1103,-2.1087,-2.123,-2.1262,-2.123,-2.1183,-2.1103,-2.1038,-2.1038,-2.0892,-2.0777,-2.0855,-2.1581,-2.212,-2.1505,-2.2105,-2.2674,-2.2079,-2.1782,-2.1362,-2.0414,-1.9721,-1.9246,-1.912,-1.9101,-1.912,-1.9101,-1.9075,-1.9233,-1.9623,-1.9211,-1.8839,-1.8697,-1.8389,-1.814,-1.795,-1.7604,-1.7387,-1.7439,-1.7166,-1.7153,-1.7493,-1.7629,-1.782,-1.8064,-1.7629,-1.7412,-1.7483,-1.6766,-1.6433,-1.6485,-1.6301,-1.6136,-1.9126,-1.9621,-1.9538,-1.8901,-1.8726,-1.846,-1.7435,-1.743,-1.7354,-1.6281,-1.6914,-1.7418,-1.6651,-1.7883,-1.9098,-1.9332,-1.9985,-2.0891,-2.2139,-2.2112,-2.2277,-2.3099,-2.3205,-2.3156,-2.3003,-2.2957,-2.2944,-2.2982,-2.2893,-2.2816,-2.2751,-2.2803,-2.2803,-2.2751,-2.2619,-2.2579,-2.2646,-2.2596,-2.2528,-2.2446,-2.2501,-2.246,-2.2366,-2.2487,-2.2419,-2.2211,-2.231,-2.2206,-2.1984,-2.1926,-2.1855,-2.1738,-2.1664,-2.1417,-2.115,-2.1198,-2.1103,-2.0974,-2.0893,-2.086,-2.0876,-2.1135,-2.1103,-2.0958,-2.0893,-2.0826,-2.076,-2.0644,-2.0578,-2.0669,-2.1161,-2.0996,-2.0749,-2.1014,-2.0734,-2.0334,-2.0115,-1.992,-1.967,-1.9384,-1.9211,-1.912,-1.9101,-1.9176,-1.9228,-1.912,-1.9324,-1.9498,-1.9517,-1.9399,-1.9376,-1.9539,-1.9377,-1.8935,-1.8203,-1.8237,-1.809,-1.7672,-1.8255,-1.8582,-1.8535,-1.8983,-1.8995,-1.8511,-1.84,-1.8056,-1.7412,-1.6832,-1.6691,-1.6883,-1.6538,-1.6515,-1.8871,-1.9098,-1.9,-1.9095,-1.8771,-1.8143,-1.7009,-1.6733,-1.6289,-1.477,-1.5707,-1.6579,-1.5797,-1.7183,-1.8682,-1.9479,-1.9768,-2.0489,-2.2277,-2.2071,-2.2038,-2.284,-2.2944,-2.2906,-2.2803,-2.2764,-2.2803,-2.2944,-2.2829,-2.2751,-2.2751,-2.2712,-2.2672,-2.2646,-2.2555,-2.2515,-2.2555,-2.2446,-2.2394,-2.2352,-2.2352,-2.231,-2.2254,-2.2394,-2.2366,-2.22,-2.2149,-2.2061,-2.1899,-2.1825,-2.1678,-2.1496,-2.1465,-2.1277,-2.1055,-2.1055,-2.0974,-2.0909,-2.0941,-2.0892,-2.0827,-2.0957,-2.086,-2.0696,-2.0744,-2.0677,-2.061,-2.061,-2.0793,-2.1016,-2.1234,-2.1492,-2.1652,-2.1451,-2.0985,-2.0601,-2.0719,-2.0147,-1.9686,-1.9886,-1.9411,-1.8936,-1.8936,-1.8984,-1.9042,-1.9187,-1.9192,-1.9364,-1.9842,-1.977,-1.9515,-1.9155,-1.8844,-1.8495,-1.8074,-1.7965,-1.7926,-1.7915,-1.8196,-1.8413,-1.8484,-1.8792,-1.8862,-1.8614,-1.8375,-1.8085,-1.7659,-1.7061,-1.6894,-1.7106,-1.6798,-1.6713,-1.836,-1.8313,-1.8126,-1.8709,-1.8342,-1.7516,-1.6301,-1.5944,-1.5311,-1.3438,-1.4697,-1.5888,-1.507,-1.642,-1.8163,-1.9747,-1.9619,-2.0169,-2.2556,-2.2215,-2.1962,-2.2669,-2.2685,-2.2646,-2.2646,-2.2592,-2.2646,-2.2829,-2.2712,-2.2672,-2.2751,-2.2646,-2.2565,-2.2565,-2.2501,-2.246,-2.246,-2.2307,-2.2237,-2.2282,-2.2228,-2.2214,-2.2228,-2.2352,-2.2324,-2.2183,-2.2058,-2.1926,-2.1781,-2.1678,-2.148,-2.1246,-2.1278,-2.1183,-2.1022,-2.0958,-2.0926,-2.0942,-2.1165,-2.1147,-2.103,-2.1139,-2.088,-2.0592,-2.0832,-2.0703,-2.0559,-2.0782,-2.1118,-2.1381,-2.1234,-2.1969,-2.2551,-2.1809,-2.147,-2.1348,-2.1542,-2.0816,-2.0171,-2.0447,-1.9649,-1.8922,-1.8793,-1.883,-1.8911,-1.9014,-1.8982,-1.9187,-1.9917,-1.9872,-1.9501,-1.8729,-1.8509,-1.8332,-1.8193,-1.7966,-1.7884,-1.8035,-1.8068,-1.8092,-1.8193,-1.8378,-1.8528,-1.8602,-1.8277,-1.8064,-1.7949,-1.7319,-1.7107,-1.7297,-1.7082,-1.6931,-1.7491,-1.7384,-1.6817,-1.6294,-1.6061,-1.5636,-1.4421,-1.4459,-1.4392,-1.3163,-1.4512,-1.5673,-1.4879,-1.6046,-1.7662,-1.9146,-1.9435,-2.0201,-2.2262,-2.2258,-2.2266,-2.2825,-2.2659,-2.2579,-2.2764,-2.2623,-2.2542,-2.2619,-2.2501,-2.2487,-2.2605,-2.2555,-2.2515,-2.2515,-2.2394,-2.2324,-2.2324,-2.2115,-2.2089,-2.2214,-2.2214,-2.2242,-2.2296,-2.2366,-2.2324,-2.2183,-2.2058,-2.1926,-2.1766,-2.1525,-2.1309,-2.1119,-2.1199,-2.1022,-2.076,-2.1006,-2.1006,-2.0973,-2.1539,-2.1709,-2.1785,-2.2287,-2.1645,-2.0786,-2.1346,-2.1044,-2.0618,-2.1188,-2.137,-2.1363,-2.1164,-2.1508,-2.1784,-2.1283,-2.1228,-2.1237,-2.0937,-2.0803,-2.0538,-1.9912,-1.9612,-1.9276,-1.8777,-1.9112,-1.9136,-1.8239,-1.881,-1.9275,-1.9068,-1.9281,-1.9373,-1.9162,-1.9645,-1.9747,-1.9115,-1.917,-1.8844,-1.7979,-1.8517,-1.8676,-1.8217,-1.857,-1.8712,-1.8587,-1.8566,-1.8382,-1.807,-1.7579,-1.7474,-1.7648,-1.733,-1.7338,-1.67,-1.6592,-1.6119,-1.6297,-1.5896,-1.5228,-1.434,-1.3905,-1.3468,-1.2649,-1.3892,-1.5025,-1.4754,-1.6024,-1.7497,-1.8741,-1.8945,-1.944,-2.0806,-2.1211,-2.147,-2.1735,-2.2013,-2.2315,-2.2592,-2.2515,-2.2474,-2.2525,-2.2446,-2.2419,-2.2474,-2.2446,-2.2432,-2.2432,-2.231,-2.2225,-2.2225,-2.2046,-2.1972,-2.2034,-2.2061,-2.2089,-2.2115,-2.2279,-2.231,-2.224,-2.1988,-2.1855,-2.1783,-2.148,-2.1198,-2.099,-2.1103,-2.099,-2.0777,-2.0941,-2.1229,-2.1529,-2.1336,-2.1457,-2.17,-2.142,-2.0997,-2.0702,-2.1389,-2.1317,-2.1023,-2.1214,-2.1547,-2.1872,-2.2074,-2.246,-2.2721,-2.2301,-2.2156,-2.2069,-2.1812,-2.1475,-2.109,-2.0633,-2.0246,-1.9845,-1.9426,-1.9148,-1.8897,-1.8698,-1.8723,-1.8784,-1.8944,-1.9208,-1.937,-1.9331,-1.9409,-1.9296,-1.8809,-1.878,-1.87,-1.8463,-1.8718,-1.8717,-1.8331,-1.8466,-1.8356,-1.7936,-1.803,-1.792,-1.7629,-1.7428,-1.7428,-1.7562,-1.7142,-1.7071,-1.5791,-1.5788,-1.555,-1.6063,-1.5523,-1.4699,-1.4074,-1.3411,-1.2741,-1.2195,-1.3226,-1.4214,-1.4241,-1.5539,-1.6957,-1.8054,-1.8352,-1.888,-2.0154,-2.0656,-2.1011,-2.1256,-2.1711,-2.2084,-2.2329,-2.2349,-2.2363,-2.2419,-2.2522,-2.2499,-2.2265,-2.2482,-2.2513,-2.229,-2.218,-2.2094,-2.208,-2.1945,-2.1869,-2.1869,-2.1911,-2.1926,-2.1928,-2.2106,-2.2152,-2.208,-2.1827,-2.1706,-2.1646,-2.1356,-2.1135,-2.0974,-2.1055,-2.099,-2.0844,-2.0877,-2.1211,-2.1607,-2.124,-2.1359,-2.1614,-2.1247,-2.1101,-2.1146,-2.1461,-2.1293,-2.109,-2.1381,-2.1812,-2.2304,-2.2819,-2.3152,-2.329,-2.2941,-2.2806,-2.2669,-2.244,-2.2022,-2.1578,-2.1187,-2.0759,-2.0253,-1.9516,-1.9167,-1.8888,-1.8617,-1.851,-1.8543,-1.8846,-1.9004,-1.9144,-1.9277,-1.9089,-1.8855,-1.8678,-1.8497,-1.8484,-1.8667,-1.8598,-1.8437,-1.8247,-1.8205,-1.7975,-1.7496,-1.759,-1.7518,-1.7211,-1.7211,-1.7228,-1.7217,-1.6892,-1.674,-1.4693,-1.4908,-1.5008,-1.5021,-1.4406,-1.3682,-1.3219,-1.2744,-1.2295,-1.1886,-1.2606,-1.3297,-1.3228,-1.4419,-1.5795,-1.6937,-1.7672,-1.8801,-2.081,-2.0992,-2.1164,-2.1898,-2.2013,-2.2013,-2.1996,-2.2115,-2.2192,-2.2206,-2.2761,-2.2755,-2.1947,-2.2657,-2.2752,-2.203,-2.1926,-2.1869,-2.1796,-2.1812,-2.1812,-2.1812,-2.1812,-2.1768,-2.1724,-2.184,-2.1797,-2.1604,-2.154,-2.1462,-2.1386,-2.1183,-2.1103,-2.1103,-2.1103,-2.1006,-2.0893,-2.0893,-2.086,-2.0905,-2.1483,-2.1647,-2.1717,-2.2371,-2.2534,-2.235,-2.1618,-2.0949,-2.0632,-2.1773,-2.2239,-2.2547,-2.3127,-2.3201,-2.3037,-2.2841,-2.2809,-2.2727,-2.2454,-2.2301,-2.1964,-2.1248,-2.0986,-2.036,-1.8704,-1.9241,-1.9295,-1.7582,-1.816,-1.8747,-1.8609,-1.8483,-1.8562,-1.8965,-1.8893,-1.8839,-1.8987,-1.8625,-1.8394,-1.8394,-1.81,-1.7897,-1.7909,-1.7783,-1.7645,-1.7496,-1.7496,-1.7329,-1.7011,-1.7011,-1.687,-1.6599,-1.6599,-1.6428,-1.3247,-1.3462,-1.3443,-1.3215,-1.2969,-1.2675,-1.2296,-1.2053,-1.1894,-1.1768,-1.2429,-1.3046,-1.3122,-1.4343,-1.5688,-1.6788,-1.75,-1.8381,-1.9817,-2.0212,-2.0537,-2.1043,-2.1754,-2.2203,-2.2206,-2.2237,-2.2425,-2.278,-2.3001,-2.3222,-2.3459,-2.3148,-2.268,-2.2015,-2.1899,-2.1811,-2.1812,-2.1753,-2.1723,-2.1723,-2.1646,-2.1631,-2.1709,-2.1539,-2.1508,-2.1525,-2.1356,-2.1309,-2.1309,-2.1071,-2.0925,-2.0892,-2.0842,-2.1043,-2.1319,-2.0817,-2.1224,-2.1927,-2.1156,-2.1134,-2.1421,-2.112,-2.0954,-2.0875,-2.0959,-2.1162,-2.1485,-2.2063,-2.2598,-2.3053,-2.3143,-2.3127,-2.306,-2.2917,-2.2826,-2.2727,-2.2454,-2.244,-2.2244,-2.1464,-2.1281,-2.0969,-2.0057,-1.9642,-1.9199,-1.8567,-1.8499,-1.8471,-1.8332,-1.8374,-1.8448,-1.8587,-1.8356,-1.8236,-1.8383,-1.8182,-1.7991,-1.781,-1.7551,-1.7412,-1.7412,-1.72,-1.7032,-1.6881,-1.674,-1.657,-1.6389,-1.6389,-1.6257,-1.599,-1.6077,-1.5951,-1.2069,-1.2633,-1.2818,-1.255,-1.2324,-1.2088,-1.1813,-1.161,-1.1509,-1.167,-1.2359,-1.2898,-1.2785,-1.4241,-1.5537,-1.5803,-1.6738,-1.7832,-1.9,-1.9522,-2.0129,-2.1007,-2.1574,-2.2061,-2.2524,-2.2276,-2.2452,-2.341,-2.3477,-2.3646,-2.4031,-2.3553,-2.2941,-2.2255,-2.19,-2.1738,-2.1753,-2.1708,-2.1649,-2.151,-2.1479,-2.1417,-2.1309,-2.1198,-2.1327,-2.1601,-2.1438,-2.1565,0.0,-2.162,-2.1533,-2.1498,-2.1443,-2.1639,-2.1929,-2.1393,-2.1766,-2.2391,-2.1427,-2.1358,-2.1581,-2.1035,-2.0737,-2.0674,-2.1084,-2.1535,-2.1951,-2.21,-2.26,-2.3105,-2.3007,-2.3007,-2.2992,-2.2925,-2.2766,-2.2606,-2.2454,-2.2347,-2.2077,-2.1385,-2.1264,-2.0964,-2.0012,-1.9485,-1.9045,-1.8621,-1.8463,-1.8388,-1.8376,-1.8319,-1.8259,-1.822,-1.7936,-1.7744,-1.7689,-1.7661,-1.7617,-1.7423,-1.72,-1.7022,-1.6965,-1.6807,-1.6637,-1.6428,-1.6296,-1.6124,-1.5951,-1.5836,-1.5691,-1.5575,-1.5556,-1.5469,0.0,-1.2138,-1.2744,-1.2608,-1.2179,-1.1738,-1.1594,-1.1308,0.0,-1.1619,-1.2362,-1.2829,-1.2429,-1.4154,-1.5334,-1.443,-1.5747,-1.7302,-1.8518,-1.9108,-2.0005,-2.1541,-2.1451,-2.1712,-2.2839,-2.2297,-2.2497,-2.4032,-2.4165,-2.4083,-2.3902,-2.3902,-2.3506,-2.2638,-2.1934,-2.1604,-2.1664,-2.1664,-2.1495,-2.1182,-2.1293,-2.1151,-2.0773,-2.0874,-2.127,-2.1848,-2.1729,-2.2106,-2.2773,-2.2608,-2.2589,-2.2676,-2.2599,-2.2608,-2.2621,-2.2437,-2.2399,-2.2411,-2.2156,-2.2079,-2.2026,-2.1827,-2.162,-2.1491,-2.18,-2.1989,-2.2068,-2.1982,-2.235,-2.2787,-2.2787,-2.2826,-2.2865,-2.2865,-2.2615,-2.237,-2.2347,-2.2044,-2.1602,-2.1066,-2.0919,-2.0414,-1.8908,-1.8949,-1.8885,-1.7991,-1.816,-1.8437,-1.856,-1.8275,-1.8002,-1.7881,-1.764,-1.7384,-1.7065,-1.7166,-1.725,-1.725,-1.6931,-1.6694,-1.6552,-1.6542,-1.64,-1.6085,-1.6056,-1.5923,-1.5643,-1.5332,-1.5264,-1.5362,-1.5108,-1.5068,-0.9608,0.0,-1.0664,-1.0469,-1.0483,-1.0494,0.0,-1.0415,-1.0726,-1.1598,-1.2095,-1.2719,-1.3773,-1.4532,-1.5228,-1.5889,-1.697,-1.8115,-1.9279,-2.0113,-2.0733,-2.1071,-2.1633,-2.2102,-2.2427,-2.3079,-2.3802,-2.4645,-2.4812,-2.4828,-2.4709,-2.4147,-2.3473,-2.2703,-2.1729,-2.1246,-2.1325,-2.1325,-2.1198,-2.0958,-2.0893,-2.1095,-2.1516,-2.1323,-2.1659,-2.2389,-2.1739,-2.1926,-2.2589,-2.2056,-2.2098,-2.2478,-2.2459,-2.267,-2.2915,-2.2378,-2.2458,-2.2761,-2.2106,-2.1866,-2.1807,-2.1525,-2.1559,-2.1708,-2.1802,-2.1874,-2.2026,-2.2333,-2.2546,-2.2652,-2.2652,-2.2592,-2.2509,-2.2509,-2.237,-2.2161,-2.1841,-2.164,-2.1326,-2.0673,-2.0207,-1.9773,-1.9288,-1.9046,-1.883,-1.8605,-1.8436,-1.829,-1.822,-1.7794,-1.7473,-1.7434,-1.7481,-1.7466,-1.7379,-1.7106,-1.6818,-1.663,-1.6381,-1.621,-1.6087,-1.5961,-1.5875,-1.5788,-1.5556,-1.5323,-1.5147,-1.5088,-1.5059,-1.5088,-1.5029,-1.4941,-0.88,-0.9645,-1.0298,-1.0337,-1.0521,-1.0664,-1.0534,-1.0443,-1.0656,-1.1603,-1.2234,-1.2905,-1.3825,-1.505,-1.5972,-1.6039,-1.7288,-1.8563,-1.9515,-2.04,-2.0942,-2.086,-2.1613,-2.229,-2.2595,-2.3271,-2.411,-2.5139,-2.4909,-2.4728,-2.4691,-2.3955,-2.3121,-2.2277,-2.1406,-2.1039,-2.1246,-2.1087,-2.1068,-2.1185,-2.1165,-2.1457,-2.2025,-2.1879,-2.2232,-2.2909,-2.2115,-2.2393,-2.3332,-2.2612,-2.2682,-2.3229,-2.3229,-2.3345,-2.3457,-2.3107,-2.3137,-2.3292,-2.2868,-2.2583,-2.234,-2.2044,-2.2011,-2.2055,-2.201,-2.2018,-2.2098,-2.234,-2.237,-2.2347,-2.2394,-2.237,-2.2301,-2.2301,-2.2114,-2.1864,-2.1664,-2.1313,-2.0858,-2.0334,-1.9837,-1.9356,-1.8881,-1.8625,-1.8449,-1.8302,-1.8084,-1.7936,-1.792,-1.765,-1.7442,-1.7367,-1.7503,-1.7549,-1.7387,-1.7129,-1.6901,-1.6694,-1.6323,-1.5999,-1.5827,-1.5798,-1.5682,-1.5478,-1.5235,-1.5059,-1.5,-1.5,-1.5,-1.5,-1.4843,-1.4715,-0.8503,-0.9685,-1.0668,-1.0985,-1.1294,-1.1482,-1.1374,0.0,0.0,0.0,0.0,-1.3355,-1.3861,-1.5735,-1.6923,-1.6125,-1.7516,-1.8936,-1.9559,-2.0317,-2.0778,-2.0696,-2.1573,-2.2374,-2.2893,-2.3343,-2.4146,-2.5433,-2.4852,-2.4344,-2.4097,-2.3503,-2.2658,-2.1576,-2.1011,-2.086,-2.1135,-2.0987,-2.1083,-2.1435,-2.1666,-2.2014,-2.2421,-2.2501,-2.291,-2.3474,-2.267,-2.3079,-2.423,-2.3488,-2.357,-2.4166,-2.4166,-2.4103,-2.3982,-2.3961,-2.3861,-2.3754,-2.3674,-2.337,-2.2949,-2.2709,-2.2518,-2.2347,-2.2208,-2.2184,-2.2184,-2.2137,-2.2067,-2.1996,-2.2114,-2.2114,-2.2091,-2.2114,-2.1817,-2.152,-2.1458,-2.0957,-2.0371,-1.9965,-1.9552,-1.9025,-1.8247,-1.8084,-1.7998,-1.7829,-1.7701,-1.7668,-1.784,-1.7795,-1.7683,-1.7516,-1.7666,-1.7677,-1.7364,-1.7332,-1.7234,-1.7062,-1.6543,-1.6094,-1.5713,-1.577,-1.5595,-1.5127,-1.5,-1.4941,-1.4941,-1.4941,-1.4941,-1.4911,-1.4656,-1.4499,-0.8825,-0.9932,-1.0638,-1.0802,-1.1474,-1.2065,-1.1968,-1.2084,0.0,0.0,0.0,0.0,-1.6106,-1.6596,-1.7158,-1.8488,-1.9294,-1.9756,-1.9773,-2.0124,-2.034,-2.0222,-2.1584,-2.2577,-2.2723,-2.4108,-2.5038,-2.5169,-2.5096,-2.4521,-2.3267,-2.3052,-2.2295,-2.0898,-2.0539,-2.0407,-2.0458,-2.1019,-2.1255,-2.1179,-2.1874,-2.2486,-2.2978,-2.3113,-2.3497,-2.4045,-2.33,-2.3453,-2.4162,-2.3351,-2.3431,-2.4024,-2.4024,-2.3961,-2.3818,-2.3696,-2.361,-2.3509,-2.3172,-2.2814,-2.2486,-2.2324,-2.2254,-2.2208,-2.2067,-2.2044,-2.202,-2.1902,-2.1841,-2.1841,-2.1864,-2.1688,-2.1544,-2.1688,-2.1471,-2.118,-2.0833,-2.0409,-1.994,-1.941,-1.9001,-1.8587,-1.8166,-1.8002,-1.8017,-1.8266,-1.8173,-1.8213,-1.8514,-1.8283,-1.8053,-1.784,-1.8093,-1.8214,-1.7968,-1.7861,-1.7648,-1.735,-1.7052,-1.6542,-1.5805,-1.5487,-1.5147,-1.4775,-1.4745,-1.4745,-1.4745,-1.4745,-1.4686,-1.4597,-1.4647,-1.4449,-0.8263,-0.9336,-1.0265,-1.113,-1.2039,-1.281,-1.3074,-1.2913,-1.2968,0.0,0.0,0.0,-1.6809,-1.7416,-1.8095,-1.9604,-2.0045,-2.0202,-2.0185,-2.0306,-2.0497,-2.0727,-2.1874,-2.2751,-2.299,-2.4249,-2.4966,-2.4851,-2.4831,-2.4214,-2.2797,-2.2623,-2.189,-2.0368,-2.02,-2.021,-2.0394,-2.1211,-2.164,-2.1709,-2.2362,-2.3035,-2.3677,-2.3677,-2.3819,-2.4051,-2.3228,-2.3298,-2.3921,-2.3145,-2.3209,-2.3797,-2.3861,-2.3797,-2.3603,-2.3312,-2.3201,-2.3127,-2.2836,-2.2646,-2.2486,-2.2347,-2.2208,-2.2091,-2.202,-2.1902,-2.1746,-2.1616,-2.1592,-2.1616,-2.1688,-2.1496,-2.1302,-2.1375,-2.1218,-2.0911,-2.0472,-2.0067,-1.9643,-1.9186,-1.8774,-1.8356,-1.7947,-1.7838,-1.7829,-1.7994,-1.7908,-1.7986,-1.8371,-1.8362,-1.826,-1.8186,-1.8334,-1.8403,-1.8227,-1.8062,-1.7675,-1.7061,-1.6794,-1.6495,-1.6136,-1.5672,-1.5302,-1.503,-1.4798,-1.4647,-1.4588,-1.4647,-1.4597,-1.433,-1.433,-1.4181,-0.7949,-0.9024,-1.0162,-1.1615,-1.2598,-1.3401,-1.407,-1.3909,-1.3881,-1.485,-1.5218,-1.5798,-1.7231,-1.8302,-1.9298,-2.0321,-2.0516,-2.0551,-2.0537,-2.0485,-2.0655,-2.1157,-2.2058,-2.2836,-2.3323,-2.418,-2.4681,-2.4523,-2.4457,-2.3829,-2.247,-2.2263,-2.1503,-2.0,-1.9937,-2.011,-2.0502,-2.1355,-2.1972,-2.233,-2.2945,-2.3538,-2.4103,-2.4024,-2.3982,-2.3873,-2.3185,-2.3218,-2.3687,-2.308,-2.3112,-2.3545,-2.3631,-2.356,-2.3319,-2.3016,-2.2867,-2.2814,-2.2578,-2.2486,-2.2417,-2.2278,-2.2091,-2.1949,-2.1926,-2.1746,-2.1568,-2.1447,-2.135,-2.1326,-2.1423,-2.1315,-2.112,-2.1155,-2.0985,-2.0687,-2.0207,-1.9811,-1.9408,-1.8934,-1.8598,-1.8259,-1.781,-1.7801,-1.7867,-1.7937,-1.7913,-1.802,-1.8405,-1.8532,-1.8547,-1.8513,-1.8481,-1.8381,-1.8236,-1.8042,-1.7624,-1.6941,-1.6732,-1.661,-1.6513,-1.6008,-1.5597,-1.5257,-1.4942,-1.469,-1.4499,-1.4588,-1.4478,-1.416,-1.407,-1.392,-0.8589,-0.9713,-1.0775,-1.2184,-1.2916,-1.3572,-1.4604,-1.5266,-1.5757,-1.6037,-1.6404,-1.6949,-1.7937,-1.935,-2.0509,-2.0978,-2.0975,-2.0898,-2.0715,-2.0477,-2.0496,-2.0971,-2.192,-2.2792,-2.3499,-2.414,-2.4436,-2.4229,-2.4208,-2.3585,-2.2109,-2.192,-2.1205,-1.986,-1.9744,-1.9967,-2.0502,-2.1355,-2.2099,-2.2669,-2.3519,-2.3879,-2.3839,-2.3961,-2.3861,-2.3616,-2.355,-2.3537,-2.3509,-2.3341,-2.3275,-2.3319,-2.3341,-2.3172,-2.2934,-2.2912,-2.2791,-2.2578,-2.2324,-2.2161,-2.1996,-2.1722,-2.1722,-2.1793,-2.1688,-2.1616,-2.1568,-2.1447,-2.1229,-2.1033,-2.1033,-2.0985,-2.0938,-2.0997,-2.0797,-2.0498,-1.9927,-1.9617,-1.921,-1.8583,-1.8422,-1.8286,-1.7936,-1.8143,-1.8414,-1.8586,-1.8882,-1.9094,-1.9194,-1.9135,-1.899,-1.88,-1.8486,-1.8245,-1.8042,-1.7852,-1.7628,-1.7453,-1.7359,-1.7203,-1.6883,-1.6413,-1.5848,-1.5142,-1.5105,-1.4894,-1.4499,-1.4499,-1.433,-1.401,-1.413,-1.3868,-0.7723,-0.8787,-0.9885,-1.0958,-1.2547,-1.4087,-1.4938,-1.5972,-1.6809,-1.7181,-1.7838,-1.8586,-1.9367,-1.9875,-2.0327,-2.0783,-2.0625,-2.0661,-2.1306,-2.1004,-2.1115,-2.212,-2.2583,-2.3075,-2.3774,-2.406,-2.4166,-2.4082,-2.3686,-2.3026,-2.2039,-2.1862,-2.1362,-2.04,-2.0665,-2.105,-2.1483,-2.1995,-2.2524,-2.3073,-2.3612,-2.3861,-2.3797,-2.3711,-2.3625,-2.3538,-2.3363,-2.3268,-2.326,-2.3194,-2.312,-2.3061,-2.3061,-2.2934,-2.2777,-2.2632,-2.2426,-2.2208,-2.202,-2.1926,-2.1864,-2.1746,-2.1712,-2.1664,-2.152,-2.135,-2.1204,-2.1109,-2.0961,-2.0848,-2.0972,-2.0949,-2.0888,-2.0785,-2.0485,-2.0067,-1.954,-1.9225,-1.8866,-1.8329,-1.8364,-1.8367,-1.7867,-1.8304,-1.8629,-1.8434,-1.874,-1.9052,-1.9145,-1.9008,-1.8875,-1.8808,-1.8371,-1.8008,-1.7701,-1.7632,-1.7564,-1.7505,-1.7498,-1.7301,-1.6927,-1.6618,-1.6263,-1.5863,-1.5422,-1.5081,-1.4741,-1.4568,-1.433,-1.401,-1.398,-1.3761,-0.7692,-0.8937,-1.0333,-1.0975,0.0,-1.4935,-1.5461,-1.6519,-1.7539,-1.802,-1.8749,-1.9593,-2.048,-2.0321,-2.0322,-2.1147,-2.0828,-2.0824,-2.1814,-2.1547,-2.1663,-2.2778,-2.2975,-2.3274,-2.3943,-2.4003,-2.3982,-2.394,-2.3516,-2.2859,-2.1942,-2.1979,-2.161,-2.0661,-2.1159,-2.1654,-2.2096,-2.2323,-2.2706,-2.3246,-2.3458,-2.361,-2.3711,-2.3575,-2.3444,-2.3356,-2.3135,-2.3015,-2.3007,-2.297,-2.2873,-2.2814,-2.2851,-2.2723,-2.2526,-2.2394,-2.2184,-2.1926,-2.1769,-2.1712,-2.1688,-2.1616,-2.152,-2.1399,-2.1302,-2.1144,-2.0961,-2.0913,-2.0775,-2.0624,-2.0686,-2.0674,-2.0637,-2.0434,-2.0105,-1.9682,-1.9186,-1.8893,-1.8619,-1.8274,-1.8385,-1.8441,-1.8119,-1.857,-1.8835,-1.8538,-1.8807,-1.9038,-1.909,-1.8875,-1.8607,-1.8405,-1.81,-1.7759,-1.7426,-1.7461,-1.747,-1.7426,-1.7358,-1.722,-1.7003,-1.6804,-1.6533,-1.6212,-1.5579,-1.5065,-1.472,-1.4408,-1.4121,-1.3851,-1.3761,-1.358,-0.888,-1.0576,-1.2531,-1.2674,-1.4415,-1.613,-1.6199,-1.7041,-1.7967,-1.8517,-1.9003,-1.975,-2.1143,-2.0734,-2.0714,-2.2236,-2.1813,-2.1524,-2.2207,-2.2023,-2.2039,-2.2628,-2.2873,-2.3274,-2.3943,-2.4003,-2.394,-2.3818,-2.3782,-2.3182,-2.1769,-2.2206,-2.1886,-2.0561,-2.1035,-2.1565,-2.2111,-2.2253,-2.257,-2.3105,-2.3098,-2.3253,-2.3509,-2.3509,-2.3334,-2.3082,-2.2949,-2.2865,-2.2787,-2.2638,-2.2615,-2.2615,-2.2735,-2.2552,-2.2208,-2.2208,-2.2044,-2.1769,-2.164,-2.152,-2.1375,-2.1229,-2.112,-2.0997,-2.0997,-2.0949,-2.0914,-2.0914,-2.0726,-2.0423,-2.0093,-2.0105,-2.0156,-2.0029,-1.9682,-1.9289,-1.8878,-1.8679,-1.855,-1.8418,-1.8404,-1.8503,-1.8832,-1.9009,-1.9104,-1.9104,-1.921,-1.9252,-1.9108,-1.8741,-1.8245,-1.7573,-1.7623,-1.7569,-1.7235,-1.7392,-1.7426,-1.7201,-1.7003,-1.7003,-1.7201,-1.7003,-1.6613,-1.601,-1.5483,-1.4898,-1.429,-1.397,-1.3709,-1.3511,-1.3511,-1.3307,-0.9349,-1.0947,-1.2788,-1.3116,-1.502,-1.6778,-1.6644,-1.7515,-1.8697,-1.9904,-2.0456,-2.092,-2.1616,-2.1168,-2.0988,-2.1866,-2.136,-2.1275,-2.235,-2.2228,-2.23,-2.303,-2.3304,-2.3486,-2.3631,-2.3689,-2.3674,-2.3596,-2.3163,-2.2688,-2.2295,-2.2319,-2.2125,-2.1639,-2.234,-2.2673,-2.2582,-2.2776,-2.2893,-2.2949,-2.3061,-2.3194,-2.3341,-2.315,-2.3038,-2.2949,-2.288,-2.2766,-2.2652,-2.2509,-2.2509,-2.2592,-2.2431,-2.2315,-2.2184,-2.1864,-2.1722,-2.1616,-2.1302,-2.1204,-2.1229,-2.1106,-2.1312,-2.1633,-2.1532,-2.1785,-2.2049,-2.1798,-2.1532,-2.1237,-2.1035,-2.0692,-2.0245,-1.9594,-1.9198,-1.8919,-1.8706,-1.8371,-1.8166,-1.835,-1.8526,-1.8583,-1.8544,-1.9187,-1.9447,-1.8828,-1.9047,-1.9119,-1.8607,-1.8303,-1.7974,-1.7539,-1.7417,-1.7235,-1.7003,-1.7047,-1.7003,-1.6786,-1.6716,-1.6716,-1.6777,-1.6586,-1.6393,-1.6208,-1.5927,-1.5593,-1.527,-1.5053,-1.463,-1.4077,-1.3984,-1.3599,-1.0145,-1.1749,-1.3545,-1.3817,-1.5453,-1.7201,-1.7936,-1.857,-1.9322,-2.0476,-2.0913,-2.1299,-2.2127,-2.1607,-2.1233,-2.1853,-2.1522,-2.1514,-2.2409,-2.2361,-2.2439,-2.298,-2.3157,-2.3246,-2.3275,-2.3348,-2.3414,-2.3422,-2.3008,-2.2646,-2.2437,-2.2431,-2.2316,-2.2025,-2.2614,-2.2888,-2.2809,-2.2865,-2.2944,-2.3028,-2.3051,-2.3097,-2.3175,-2.2983,-2.2859,-2.2768,-2.2684,-2.2523,-2.2385,-2.2583,-2.2527,-2.232,-2.2684,-2.263,-2.2314,-2.232,-2.2103,-2.1803,-2.1785,-2.1471,-2.1139,-2.1516,-2.1678,-2.1771,-2.1931,-2.218,-2.2333,-2.2007,-2.1678,-2.1359,-2.0965,-2.0521,-2.0072,-1.9465,-1.911,-1.8818,-1.8418,-1.826,-1.821,-1.8379,-1.8654,-1.8851,-1.8764,-1.9233,-1.94,-1.8865,-1.8899,-1.8785,-1.8245,-1.8076,-1.7872,-1.7539,-1.7314,-1.7132,-1.7038,-1.6943,-1.6839,-1.6716,-1.6577,-1.6473,-1.6473,-1.6307,-1.6202,-1.6202,-1.5781,-1.5503,-1.5367,-1.5061,-1.4668,-1.4219,-1.4066,-1.3727,-1.0999,-1.2711,-1.4547,-1.4657,-1.5876,-1.7547,-1.9508,-1.9824,-1.987,-2.055,-2.0763,-2.1255,-2.2597,-2.1957,-2.1433,-2.2063,-2.2044,-2.2044,-2.2301,-2.2347,-2.2426,-2.264,-2.2672,-2.2717,-2.2867,-2.3001,-2.3127,-2.3253,-2.315,-2.2856,-2.2356,-2.2562,-2.2435,-2.1939,-2.2218,-2.2477,-2.2704,-2.264,-2.2786,-2.3146,-2.3056,-2.3035,-2.3007,-2.2921,-2.2809,-2.2655,-2.2525,-2.2344,-2.2229,-2.2888,-2.2693,-2.2083,-2.3292,-2.3232,-2.2549,-2.3072,-2.2715,-2.2091,-2.2615,-2.1979,-2.1139,-2.2141,-2.2101,-2.1733,-2.2283,-2.2315,-2.2146,-2.1817,-2.1522,-2.1096,-2.0334,-2.0023,-1.9848,-1.9582,-1.927,-1.8831,-1.8123,-1.8272,-1.8527,-1.8473,-1.8803,-1.9126,-1.9267,-1.9208,-1.9108,-1.9075,-1.8751,-1.8381,-1.8042,-1.7974,-1.7837,-1.7539,-1.7314,-1.7201,-1.7132,-1.6968,-1.6874,-1.6839,-1.6491,-1.6237,-1.6237,-1.6132,-1.6061,-1.6061,-1.536,-1.4941,-1.4941,-1.4446,-1.4206,-1.4131,-1.3931,-1.3834,-1.0679,-1.2662,-1.4821,-1.5195,-1.6703,-1.8227,-1.878,-1.9678,-2.0559,-2.1179,-2.1611,-2.1953,-2.2291,-2.1885,-2.1608,-2.1851,-2.1688,-2.1592,-2.1746,-2.1949,-2.2147,-2.2287,-2.2457,-2.2572,-2.2669,-2.2836,-2.2957,-2.2979,-2.2957,-2.2854,-2.2619,-2.2515,-2.2369,-2.2135,-2.2207,-2.2161,-2.202,-2.2394,-2.2613,-2.2655,-2.3048,-2.3178,-2.3073,-2.295,-2.2987,-2.3141,-2.2997,-2.3133,-2.3448,-2.3573,-2.3483,-2.3234,-2.3289,-2.2939,-2.2319,-2.2122,-2.17,-2.1246,-2.1203,-2.1337,-2.1523,-2.1577,-2.2068,-2.2717,-2.2834,-2.2869,-2.2862,-2.2803,-2.2284,-2.1636,-2.1206,-2.0876,-2.0512,-1.9962,-1.9166,-1.8526,-1.8465,-1.835,-1.8405,-1.8874,-1.8965,-1.8988,-1.9125,-1.9208,-1.9185,-1.8908,-1.865,-1.8381,-1.8042,-1.7862,-1.7691,-1.7539,-1.7314,-1.7063,-1.6742,-1.6682,-1.6542,-1.6307,-1.6035,-1.5832,-1.5674,-1.5797,-1.5788,-1.5638,-1.5606,-1.5458,-1.5151,-1.519,-1.4902,-1.4314,-1.4308,-1.4053,-1.0856,-1.2803,-1.4948,-1.6302,-1.7305,-1.8213,-1.9159,-1.9813,-2.0455,-2.1292,-2.1797,-2.2091,-2.202,-2.1722,-2.152,-2.152,-2.1399,-2.135,-2.1496,-2.1616,-2.1722,-2.1793,-2.1898,-2.2016,-2.2114,-2.2531,-2.2715,-2.2486,-2.2672,-2.2654,-2.2287,-2.2333,-2.2356,-2.2356,-2.2162,-2.2177,-2.2415,-2.2289,-2.2447,-2.2896,-2.3152,-2.3218,-2.3096,-2.2738,-2.264,-2.2771,-2.2874,-2.3034,-2.3319,-2.3759,-2.3697,-2.3348,-2.373,-2.3501,-2.2937,-2.2738,-2.2472,-2.2181,-2.2089,-2.1983,-2.1955,-2.2391,-2.2695,-2.292,-2.3003,-2.3031,-2.2927,-2.2506,-2.2032,-2.1545,-2.1051,-2.0775,-2.0491,-1.9905,-1.9424,-1.9048,-1.8813,-1.877,-1.8818,-1.8965,-1.9116,-1.922,-1.9133,-1.9008,-1.8841,-1.8674,-1.8414,-1.8144,-1.7803,-1.7657,-1.7554,-1.7358,-1.7176,-1.6994,-1.689,-1.6707,-1.6533,-1.6333,-1.6096,-1.5859,-1.5655,-1.5655,-1.5576,-1.5355,-1.5363,-1.5265,-1.507,-1.507,-1.4866,-1.4503,-1.4439,-1.4247,-1.0752,-1.2753,-1.4941,-1.7255,-1.7847,-1.8293,-1.9797,-2.0091,-2.0276,-2.117,-2.164,-2.1817,-2.1722,-2.152,-2.1326,-2.118,-2.118,-2.1204,-2.1326,-2.1326,-2.1326,-2.1326,-2.1326,-2.1399,-2.1544,-2.2127,-2.237,-2.2001,-2.2335,-2.2307,-2.1749,-2.1983,-2.2142,-2.2192,-2.1865,-2.1978,-2.2641,-2.2007,-2.2089,-2.2926,-2.3052,-2.3087,-2.3005,-2.2498,-2.2357,-2.2546,-2.2876,-2.3052,-2.3155,-2.3946,-2.3879,-2.3353,-2.4205,-2.4175,-2.3669,-2.3613,-2.3436,-2.3273,-2.3245,-2.2789,-2.2384,-2.3338,-2.3331,-2.2927,-2.2987,-2.2896,-2.2561,-2.1753,-2.1388,-2.1083,-2.0464,-2.0302,-2.0203,-1.971,-1.976,-1.9732,-1.9141,-1.9228,-1.9346,-1.9105,-1.9306,-1.9407,-1.9108,-1.8741,-1.8516,-1.8516,-1.8245,-1.7974,-1.7676,-1.7632,-1.7529,-1.7279,-1.7107,-1.7003,-1.7028,-1.6751,-1.6508,-1.6473,-1.6167,-1.5929,-1.5761,-1.5505,-1.5319,-1.5133,-1.5034,-1.4935,-1.4864,-1.4721,-1.4605,-1.4561,-1.4452,-1.4363,-0.9127,-1.1861,-1.4913,-1.7031,-1.8481,-1.9481,-1.9785,-2.0446,-2.1062,-2.1191,-2.1277,-2.1302,-2.1277,-2.1253,-2.118,-2.1033,-2.1033,-2.1033,-2.1033,-2.1033,-2.1033,-2.1033,-2.1033,-2.1155,-2.1399,-2.1636,-2.177,-2.1831,-2.1876,-2.1794,-2.1471,-2.1383,-2.1238,-2.1038,-2.0853,-2.0767,-2.0769,-2.1056,-2.1262,-2.1403,-2.2087,-2.2556,-2.276,-2.2675,-2.3075,-2.3864,-2.4133,-2.4408,-2.4708,-2.4815,-2.4673,-2.4365,-2.4355,-2.4019,-2.3502,-2.3208,-2.2743,-2.2273,-2.2148,-2.2362,-2.2693,-2.269,-2.2963,-2.3229,-2.2804,-2.2372,-2.192,-2.1313,-2.086,-2.0464,-2.0074,-1.9966,-1.9889,-1.9661,-1.9738,-1.9835,-1.9565,-1.9458,-1.9476,-1.9727,-1.942,-1.9108,-1.8875,-1.865,-1.8516,-1.8516,-1.8448,-1.8381,-1.8202,-1.8202,-1.7998,-1.7495,-1.7436,-1.7151,-1.6482,-1.6377,-1.6211,-1.5938,-1.5718,-1.5576,-1.5541,-1.5185,-1.4971,-1.4935,-1.507,-1.4991,-1.4641,-1.4792,-1.4721,-1.4425,-1.4422,-1.4307,-1.0316,-1.2422,-1.4414,-1.6561,-1.7636,-1.8385,-1.9097,-1.964,-2.0257,-2.1046,-2.1326,-2.1399,-2.1326,-2.118,-2.1057,-2.1021,-2.0997,-2.0997,-2.0997,-2.1057,-2.1082,-2.1021,-2.0997,-2.1021,-2.1109,-2.1513,-2.1641,-2.1331,-2.1488,-2.1487,-2.1183,-2.1433,-2.1498,-2.1314,-2.1248,-2.1195,-2.1115,-2.1263,-2.1597,-2.2103,-2.2401,-2.2578,-2.2714,-2.3039,-2.3228,-2.3326,-2.3838,-2.419,-2.4405,-2.4545,-2.4536,-2.4421,-2.4261,-2.4,-2.3678,-2.3184,-2.2964,-2.2891,-2.2526,-2.2738,-2.311,-2.2892,-2.2847,-2.2757,-2.2261,-2.1784,-2.1345,-2.086,-2.0474,-2.0194,-2.0042,-1.9878,-1.9736,-1.9769,-1.9736,-1.9716,-1.963,-1.9651,-1.9684,-1.9737,-1.9308,-1.8942,-1.8975,-1.864,-1.8381,-1.8381,-1.8279,-1.8168,-1.7988,-1.7954,-1.7784,-1.7382,-1.7314,-1.7107,-1.6508,-1.6377,-1.6202,-1.5964,-1.5797,-1.5611,-1.5505,-1.5213,-1.5034,-1.4908,-1.4892,-1.4776,-1.4605,-1.4613,-1.4541,-1.4389,-1.4281,-1.4065,-1.0996,-1.2501,-1.3641,-1.5563,-1.6496,-1.7264,-1.8435,-1.9015,-1.9698,-2.1038,-2.1423,-2.1471,-2.1326,-2.1131,-2.0997,-2.0985,-2.0923,-2.0909,-2.0997,-2.1082,-2.1082,-2.0909,-2.0909,-2.0873,-2.0775,-2.1269,-2.1361,-2.0801,-2.108,-2.1121,-2.0808,-2.1305,-2.1521,-2.1285,-2.1369,-2.1405,-2.1378,-2.1418,-2.1798,-2.2577,-2.2499,-2.2542,-2.2708,-2.3241,-2.327,-2.2929,-2.3627,-2.3966,-2.4007,-2.4191,-2.4247,-2.4218,-2.4041,-2.3936,-2.3839,-2.3299,-2.3299,-2.3475,-2.3025,-2.3035,-2.3241,-2.2987,-2.2653,-2.2235,-2.162,-2.1198,-2.0848,-2.0291,-2.002,-1.9889,-1.9846,-1.9671,-1.9506,-1.9671,-1.9605,-1.9539,-1.9572,-1.9704,-1.9769,-1.9572,-1.9142,-1.8841,-1.8942,-1.8539,-1.8236,-1.8337,-1.8202,-1.8032,-1.792,-1.7876,-1.7706,-1.7314,-1.7279,-1.7097,-1.6638,-1.6473,-1.6307,-1.6096,-1.5964,-1.5753,-1.5505,-1.5355,-1.5177,-1.4908,-1.4756,-1.4641,-1.4605,-1.4497,-1.4425,-1.4317,-1.4137,-1.3855,-0.9638,-1.1167,-1.2624,-1.3691,-1.5389,-1.7097,-1.8181,-1.922,-2.026,-2.1359,-2.1399,-2.118,-2.1033,-2.1021,-2.0972,-2.0913,-2.0749,-2.0723,-2.0959,-2.1021,-2.0909,-2.0635,-2.061,-2.0573,-2.0447,-2.0561,-2.0599,-2.0422,-2.0574,-2.0537,-2.0246,-2.0626,-2.0623,-2.0091,-2.0465,-2.0594,-2.0474,-2.0955,-2.1371,-2.1666,-2.1802,-2.2161,-2.2708,-2.3,-2.3203,-2.3403,-2.4208,-2.4439,-2.4281,-2.4144,-2.4112,-2.4083,-2.3747,-2.373,-2.3861,-2.3526,-2.3407,-2.339,-2.3173,-2.2992,-2.2878,-2.2543,-2.2328,-2.203,-2.0955,-2.0635,-2.0442,-1.9605,-1.9351,-1.9308,-1.9208,-1.9142,-1.9131,-1.9142,-1.9241,-1.9374,-1.955,-1.9605,-1.955,-1.9341,-1.9052,-1.8741,-1.8549,-1.8245,-1.811,-1.8448,-1.8381,-1.8337,-1.8448,-1.8347,-1.8066,-1.7539,-1.747,-1.7245,-1.6638,-1.6603,-1.6438,-1.6132,-1.6096,-1.5921,-1.5541,-1.5497,-1.5292,-1.4908,-1.49,-1.4792,-1.4605,-1.4605,-1.4425,-1.4093,-1.3891,-1.3717,-0.9287,-1.0448,-1.1598,-1.2893,-1.4434,-1.5863,-1.6678,-1.7921,-1.9197,-2.0223,-2.0579,-2.064,-2.046,-2.0596,-2.0747,-2.0835,-2.0934,-2.1044,-2.1229,-2.1253,-2.1155,-2.0885,-2.0797,-2.0767,-2.0836,-2.0553,-2.045,-2.0693,-2.0245,-2.0177,-2.069,-2.0523,-2.0442,-2.0508,-2.0387,-2.0313,-2.0274,-2.0804,-2.1313,-2.179,-2.227,-2.2572,-2.2708,-2.312,-2.3271,-2.3228,-2.3734,-2.391,-2.3852,-2.3806,-2.3776,-2.3776,-2.3658,-2.3599,-2.3552,-2.33,-2.315,-2.3072,-2.2909,-2.2678,-2.2389,-2.2025,-2.1651,-2.1253,-2.0658,-2.0324,-2.0096,-1.9769,-1.944,-1.9208,-1.9374,-1.9075,-1.8751,-1.8875,-1.8942,-1.9008,-1.9075,-1.9241,-1.9351,-1.9208,-1.8975,-1.8707,-1.8405,-1.8269,-1.8178,-1.8178,-1.8032,-1.792,-1.7988,-1.7862,-1.7598,-1.7151,-1.7116,-1.6934,-1.6447,-1.6412,-1.6377,-1.6237,-1.6132,-1.6026,-1.5885,-1.5524,-1.5248,-1.5106,-1.4748,-1.4541,-1.4461,-1.4461,-1.4289,-1.3891,-1.3826,-1.3564,-0.8424,-0.9458,-1.0585,-1.1685,-1.2952,-1.4222,-1.5374,-1.6579,-1.7819,-1.9048,-1.9653,-1.994,-1.9819,-2.0169,-2.0508,-2.0645,-2.0924,-2.1204,-2.1375,-2.135,-2.1229,-2.0909,-2.0723,-2.0603,-2.0588,-2.0231,-2.0104,-2.0377,-2.0121,-2.0213,-2.0807,-2.076,-2.0774,-2.0787,-2.0376,-2.0208,-2.0391,-2.0986,-2.1567,-2.2059,-2.2596,-2.283,-2.286,-2.3103,-2.321,-2.3198,-2.345,-2.3569,-2.3599,-2.3539,-2.3539,-2.3539,-2.345,-2.336,-2.3223,-2.3078,-2.2939,-2.283,-2.2739,-2.2389,-2.1944,-2.1565,-2.106,-2.0571,-2.014,-1.9878,-1.9671,-1.9572,-1.9274,-1.9042,-1.9175,-1.8885,-1.8516,-1.8684,-1.8717,-1.8748,-1.89,-1.8987,-1.9019,-1.9008,-1.892,-1.8795,-1.8634,-1.8487,-1.835,-1.8223,-1.7915,-1.7706,-1.7706,-1.752,-1.7289,-1.7038,-1.6934,-1.6795,-1.6517,-1.6482,-1.6447,-1.6316,-1.6272,-1.6202,-1.6,-1.5665,-1.5453,-1.5311,-1.4883,-1.4605,-1.4461,-1.4353,-1.4109,-1.3717,-1.3717,-1.3382,0.0,0.0,0.0,-0.9984,-1.0926,-1.2307,-1.4352,-1.5279,-1.6185,-1.7874,-1.865,-1.9043,-1.914,-1.9685,-2.019,-2.0344,-2.0708,-2.1082,-2.135,-2.1277,-2.1057,-2.0635,-2.0346,-2.0054,-1.9667,-1.9591,-1.9539,-1.9445,-2.0192,-2.0623,-2.0513,-2.1309,-2.1484,-2.0787,-2.0252,-2.0228,-2.0762,-2.1513,-2.2023,-2.2365,-2.2604,-2.286,-2.3078,-2.2969,-2.306,-2.3373,-2.3373,-2.3463,-2.3569,-2.3433,-2.3373,-2.3373,-2.3168,-2.3017,-2.2878,-2.2878,-2.2787,-2.269,-2.269,-2.218,-2.1522,-2.1187,-2.0613,-2.0009,-1.9473,-1.9318,-1.9241,-1.8908,-1.8808,-1.8741,-1.8549,-1.8482,-1.8516,-1.8516,-1.8492,-1.8612,-1.9088,-1.8823,-1.858,-1.8761,-1.8877,-1.8969,-1.9143,-1.8863,-1.8617,-1.8607,-1.8099,-1.7681,-1.7672,-1.7407,-1.7166,-1.7166,-1.7003,-1.6874,-1.6874,-1.6874,-1.6691,-1.6307,-1.6473,-1.6333,-1.5832,-1.6,-1.5885,-1.5505,-1.5311,-1.4991,-1.4621,-1.4281,-1.3884,-1.3492,-1.3499,-1.3156,-0.7443,0.0,0.0,0.0,0.0,0.0,-1.2251,-1.3275,-1.4526,-1.6163,-1.6741,-1.7109,-1.7714,-1.8478,-1.9059,-1.9105,-2.0164,-2.1057,-2.1229,-2.1229,-2.0995,-2.051,-2.0296,-2.0168,-2.0042,-1.9601,-1.9487,-1.9947,-2.0106,-2.0391,-2.0853,-2.1092,-2.0949,-2.0382,-1.9856,-1.9778,-2.0216,-2.0909,-2.1447,-2.1819,-2.2433,-2.2739,-2.28,-2.2878,-2.2909,-2.2891,-2.3012,-2.3,-2.2951,-2.3,-2.2982,-2.2891,-2.283,-2.28,-2.2739,-2.2604,-2.2512,-2.242,-2.2099,-2.1683,-2.121,-2.0581,-2.0172,-1.9889,-1.9605,-1.9341,-1.9175,-1.9142,-1.8808,-1.8371,-1.8178,-1.8313,-1.8482,-1.8371,-1.8576,-1.88,-1.8754,-1.8834,-1.8848,-1.8864,-1.9223,-1.9326,-1.8666,-1.8987,-1.9095,-1.8337,-1.8113,-1.7792,-1.7213,-1.6925,-1.6716,-1.6551,-1.6412,-1.6342,-1.6447,-1.6377,-1.6307,-1.6307,-1.6272,-1.6167,-1.6035,-1.5929,-1.5753,-1.5505,-1.5161,-1.5005,-1.5038,-1.4551,-1.4036,-1.3492,-1.3046,-1.2753,0.0,0.0,0.0,-0.8858,0.0,0.0,-1.1064,-1.1921,-1.2978,-1.4271,-1.5018,-1.5654,-1.6443,-1.7302,-1.7996,-1.8259,-1.9008,-1.989,-2.089,-2.0896,-2.0623,-2.0195,-2.0016,-1.9845,-1.9555,-1.9325,-1.9356,-1.9675,-2.0211,-2.0895,-2.1682,-2.1203,-2.0754,-2.0393,-1.9764,-1.9685,-2.0254,-2.086,-2.1482,-2.2061,-2.25,-2.2739,-2.2769,-2.28,-2.2769,-2.272,-2.2769,-2.2739,-2.2586,-2.2665,-2.2635,-2.2586,-2.2678,-2.2616,-2.2463,-2.242,-2.2297,-2.2068,-2.1776,-2.1444,-2.1079,-2.0676,-2.0444,-2.0283,-1.9922,-1.959,-1.9323,-1.907,-1.8573,-1.8144,-1.8042,-1.8144,-1.8319,-1.8394,-1.8586,-1.8836,-1.8983,-1.9155,-1.9155,-1.8821,-1.9203,-1.9414,-1.8769,-1.9131,-1.9224,-1.8451,-1.8041,-1.7627,-1.6962,-1.6606,-1.6368,-1.6307,-1.6167,-1.6132,-1.6202,-1.6202,-1.6175,-1.6105,-1.6132,-1.6167,-1.6167,-1.6035,-1.5972,-1.6082,-1.5616,-1.5361,-1.5282,-1.4456,-1.3813,-1.3393,-1.3041,-1.2906,0.0,0.0,0.0,-0.8414,-0.8843,0.0,-1.0424,-1.0991,-1.1603,-1.2486,-1.3499,-1.4444,-1.5208,-1.5994,-1.6762,-1.7394,-1.7301,-1.7968,-2.0219,-2.0203,-1.9851,-1.9623,-1.9557,-1.9258,-1.8584,-1.8922,-1.9141,-1.9098,-2.0499,-2.1741,-2.2659,-2.1548,-2.0855,-2.0723,-2.0012,-1.9988,-2.0665,-2.1163,-2.1819,-2.2616,-2.2616,-2.2708,-2.2787,-2.2708,-2.2647,-2.2647,-2.2647,-2.2525,-2.2328,-2.2328,-2.2328,-2.2359,-2.2555,-2.2402,-2.2166,-2.2235,-2.2073,-2.1745,-2.1682,-2.1428,-2.1107,-2.1063,-2.0977,-2.0754,-2.0213,-1.9891,-1.9569,-1.8728,-1.8245,-1.7974,-1.7974,-1.7974,-1.8047,-1.843,-1.8566,-1.8792,-1.9419,-1.9592,-1.9419,-1.8756,-1.901,-1.9298,-1.9194,-1.9259,-1.9154,-1.8724,-1.8017,-1.7361,-1.6918,-1.6439,-1.6132,-1.6272,-1.6132,-1.6026,-1.6061,-1.6167,-1.607,-1.5797,-1.6114,-1.6307,-1.6272,-1.6237,-1.642,-1.6862,-1.6382,-1.5888,-1.5351,-1.4179,-1.3518,-1.3335,-1.3236,-1.3279,-0.8021,-0.8206,-0.8606,-0.8448,-0.8815,0.0,-0.9528,-1.0004,-1.0669,-1.1705,-1.2226,-1.2737,-1.3525,-1.402,-1.4474,-1.4935,-1.505,-1.5958,-1.8516,-1.8576,-1.8323,-1.8202,-1.8747,-1.8819,-1.8015,-1.8615,-1.9194,-1.9615,-2.0925,-2.1977,-2.2653,-2.1991,-2.1548,-2.1413,-2.0863,-2.074,-2.1152,-2.126,-2.1584,-2.2049,-2.2216,-2.2216,-2.2111,-2.2359,-2.2402,-2.229,-2.229,-2.2185,-2.1987,-2.1874,-2.1906,-2.1987,-2.2049,-2.1937,-2.1792,-2.1663,-2.1783,-2.1983,-2.1581,-2.1396,-2.1275,-2.086,-2.0419,-2.006,-1.9775,-1.9477,-1.9122,-1.8502,-1.8066,-1.775,-1.775,-1.7691,-1.7712,-1.8088,-1.843,-1.8747,-1.9042,-1.9369,-1.9453,-1.9004,-1.9266,-1.9433,-1.9098,-1.9167,-1.9121,-1.8538,-1.8039,-1.7494,-1.6753,-1.6332,-1.6096,-1.6132,-1.5823,-1.5682,-1.5832,-1.5718,-1.5647,-1.5576,-1.6071,-1.6278,-1.606,-1.6672,-1.6862,-1.6677,-1.6484,-1.6029,-1.515,-1.4519,-1.4026,-1.3687,-1.337,-1.3206,-0.883,-0.8838,-0.8968,-0.8838,-0.8976,0.0,0.0,-0.9623,-1.0043,-1.0765,-1.1131,-1.1561,-1.2228,-1.2569,-1.297,-1.3638,-1.3632,-1.416,-1.5879,-1.6773,-1.7301,-1.7472,-1.8104,-1.824,-1.7577,-1.8291,-1.9137,-1.994,-2.0568,-2.1104,-2.1623,-2.1262,-2.0988,-2.0866,-2.0765,-2.0837,-2.1098,-2.1256,-2.1528,-2.1894,-2.1999,-2.1999,-2.1906,-2.208,-2.2092,-2.1949,-2.1949,-2.1886,-2.1812,-2.173,-2.1686,-2.1663,-2.1769,-2.1643,-2.1414,-2.155,-2.1609,-2.1608,-2.1598,-2.1695,-2.1801,-2.1431,-2.129,-2.1159,-2.0366,-1.9529,-1.8707,-1.8269,-1.792,-1.7706,-1.7706,-1.7741,-1.7912,-1.832,-1.8701,-1.9052,-1.9254,-1.9379,-1.9374,-1.9063,-1.8985,-1.8955,-1.8874,-1.8937,-1.885,-1.8465,-1.7885,-1.732,-1.6802,-1.6283,-1.5894,-1.5823,-1.5603,-1.547,-1.5371,-1.5494,-1.5557,-1.5485,-1.6127,-1.6478,-1.645,-1.6853,-1.6957,-1.6713,-1.6612,-1.6268,-1.5583,-1.5134,-1.4557,-1.3888,-1.3845,-1.3757,-0.94,-0.9307,-0.9299,-0.9369,-0.9302,-0.928,0.0,0.0,0.0,-0.9941,-1.0283,-1.0702,-1.1155,-1.1377,-1.1741,-1.2442,-1.2368,-1.2451,-1.3125,-1.4695,-1.597,-1.6492,-1.707,-1.7243,-1.6797,-1.7759,-1.8835,-1.989,-2.0006,-2.0197,-2.0509,-2.0551,-2.0494,-2.0346,-2.0666,-2.0876,-2.104,-2.1327,-2.16,-2.1874,-2.1874,-2.1831,-2.18,-2.1831,-2.1812,-2.1698,-2.1635,-2.1604,-2.1604,-2.1541,-2.1391,-2.1273,-2.1529,-2.1418,-2.1158,-2.1401,-2.1364,-2.1292,-2.1565,-2.1832,-2.2063,-2.1862,-2.1919,-2.1795,-2.0709,-1.9448,-1.8367,-1.8174,-1.7919,-1.7747,-1.7823,-1.7969,-1.8195,-1.86,-1.8929,-1.9181,-1.9434,-1.932,-1.9152,-1.8962,-1.8643,-1.8457,-1.8656,-1.8637,-1.8531,-1.8402,-1.7661,-1.7015,-1.688,-1.615,-1.5611,-1.5461,-1.5493,-1.5392,-1.5041,-1.5512,-1.5745,-1.5604,-1.6241,-1.6631,-1.6839,-1.6898,-1.6921,-1.685,-1.6709,-1.6451,-1.6087,-1.5616,-1.4981,-1.4213,-1.433,-1.4321,-0.9104,-0.913,-0.9356,-0.9947,-0.9802,-0.9652,-1.0026,0.0,-0.967,-0.958,0.0,-1.0127,-1.0244,0.0,0.0,-1.0301,-1.0586,-1.0899,-1.1106,-1.2082,-1.313,-1.4078,-1.4914,-1.536,-1.5188,-1.665,-1.8054,-1.9062,-1.9777,-2.0209,-2.032,-2.1096,-2.1436,-2.1257,-2.1463,-2.1573,-2.1616,-2.1643,-2.1698,-2.173,-2.173,-2.1624,-2.1451,-2.1643,-2.1698,-2.1667,-2.1403,-2.1265,-2.1221,-2.0958,-2.0797,-2.083,-2.1138,-2.1272,-2.1218,-2.0555,-2.0934,-2.175,-2.1254,-2.1239,-2.1388,-2.1176,-2.0389,-1.95,-1.9318,-1.8721,-1.812,-1.8422,-1.8177,-1.789,-1.8246,-1.8193,-1.8193,-1.8588,-1.861,-1.8602,-1.9,-1.8891,-1.8772,-1.8732,-1.8563,-1.8465,-1.8678,-1.8336,-1.8161,-1.8362,-1.7428,-1.6674,-1.6645,-1.5841,-1.5275,-1.524,-1.5538,-1.5671,-1.5434,-1.5925,-1.613,-1.5978,-1.6311,-1.6514,-1.6553,-1.6894,-1.7074,-1.7074,-1.6665,-1.6319,-1.6087,-1.5631,-1.5235,-1.4949,-1.4594,-1.4398,-1.0713,-1.1,-1.1223,-1.0897,-1.0687,-1.0409,-1.0006,-0.964,-0.9357,-0.92,0.0,0.0,0.0,0.0,0.0,0.0,-0.9775,-0.9911,-0.9932,-1.046,-1.1421,-1.2983,-1.3929,-1.4592,-1.4886,-1.5707,-1.6583,-1.742,-1.7772,-1.8304,-1.9143,-1.9837,-2.0384,-2.0823,-2.1209,-2.1391,-2.1391,-2.1391,-2.1391,-2.1391,-2.1391,-2.136,-2.1273,-2.1265,-2.1233,-2.1233,-2.101,-2.0988,-2.1116,-2.0699,-2.0566,-2.0577,-2.04,-2.0379,-2.0478,-2.0278,-2.0416,-2.0656,-2.0588,-2.0655,-2.0807,-2.0747,-2.0076,-1.9349,-1.9363,-1.8994,-1.8546,-1.862,-1.8409,-1.8192,-1.8359,-1.8434,-1.8513,-1.8678,-1.8811,-1.8888,-1.8698,-1.8682,-1.859,-1.825,-1.8174,-1.8201,-1.8282,-1.8031,-1.7829,-1.7838,-1.7008,-1.6425,-1.6425,-1.5695,-1.5243,-1.5356,-1.552,-1.5617,-1.5632,-1.5986,-1.6156,-1.596,-1.6365,-1.6718,-1.7008,-1.6814,-1.6681,-1.6681,-1.5989,-1.5665,-1.5673,-1.5382,-1.5173,-1.509,-1.4741,-1.4524,-1.2012,-1.2357,-1.2456,-1.1765,-1.1328,-1.0939,-1.0243,-0.9673,-0.9236,-0.908,-0.9141,0.0,0.0,0.0,-0.9204,-0.9198,0.0,-0.9316,-0.8973,-0.9396,-1.0337,-1.1961,-1.2996,-1.3845,-1.4568,-1.4703,-1.5126,-1.6077,-1.6174,-1.6758,-1.805,-1.8834,-1.961,-2.0389,-2.0957,-2.1253,-2.1253,-2.1253,-2.1253,-2.1253,-2.1221,-2.1158,-2.1126,-2.1103,-2.1075,-2.1021,-2.0939,-2.1008,-2.108,-2.0533,-2.0309,-2.0241,-1.974,-1.9557,-1.9614,-1.983,-1.9958,-2.001,-1.9895,-2.0043,-2.0242,-2.0154,-1.9747,-1.9333,-1.9336,-1.9039,-1.8679,-1.868,-1.8573,-1.8527,-1.8638,-1.8689,-1.8763,-1.8763,-1.8943,-1.9031,-1.8584,-1.8558,-1.8492,-1.8044,-1.7971,-1.7959,-1.7838,-1.774,-1.7659,-1.7505,-1.6824,-1.6352,-1.6352,-1.5749,-1.5381,-1.5538,-1.5697,-1.5783,-1.5839,-1.6221,-1.6317,-1.6043,-1.6392,-1.6738,-1.7025,-1.6525,-1.6188,-1.6147,-1.545,-1.5131,-1.5215,-1.5041,-1.4999,-1.4999,-1.4783,-1.4608,-1.2209,-1.222,-1.2232,-1.2267,-1.1581,-1.0947,-1.1022,-1.0244,-0.946,-0.9386,-0.9238,-0.9088,-0.9023,-0.9116,0.0,0.0,0.0,0.0,0.0,-0.891,-0.989,-1.0679,-1.1766,-1.2828,-1.3845,-1.3588,-1.398,-1.541,-1.5765,-1.6362,-1.7373,-1.8867,-1.9895,-2.0389,-2.1039,-2.1388,-2.1388,-2.1388,-2.1388,-2.1388,-2.1253,-2.1094,-2.0914,-2.1381,-2.1508,-2.1386,-2.1457,-2.1387,-2.1156,-2.0329,-1.9899,-1.9686,-1.9295,-1.9019,-1.8841,-1.8828,-1.957,-2.0437,-1.9393,-1.9292,-1.9571,-1.9249,-1.9029,-1.8879,-1.8688,-1.8405,-1.8207,-1.8606,-1.8704,-1.8779,-1.9164,-1.9125,-1.8984,-1.8984,-1.8843,-1.8692,-1.8683,-1.8563,-1.8393,-1.8385,-1.8184,-1.7878,-1.7473,-1.7587,-1.77,-1.77,-1.7022,-1.6475,-1.6475,-1.6028,-1.5688,-1.5696,-1.6171,-1.638,-1.619,-1.671,-1.687,-1.6419,-1.6386,-1.6319,-1.6128,-1.5865,-1.565,-1.5436,-1.5208,-1.4999,-1.4734,-1.4741,-1.4692,-1.4692,-1.4692,-1.4608,-1.4119,-1.4382,-1.4453,-1.3852,-1.3355,-1.28,-1.2022,-1.1419,-1.0839,-1.0188,-1.0463,-1.0496,-0.946,-0.9417,0.0,0.0,0.0,0.0,0.0,-0.8201,-0.8852,-0.9315,-1.0456,-1.1381,-1.1859,-1.2102,-1.2757,-1.4019,-1.4152,-1.4914,-1.6582,-1.7451,-1.8504,-1.9764,-2.0205,-2.0614,-2.1051,-2.0967,-2.0946,-2.0946,-2.119,-2.1293,-2.1239,-2.1441,-2.1422,-2.1272,-2.1051,-2.0797,-2.041,-1.9875,-1.95,-1.9183,-1.8755,-1.8458,-1.8279,-1.8405,-1.8626,-1.8799,-1.8311,-1.8346,-1.8624,-1.8717,-1.8828,-1.893,-1.9036,-1.8984,-1.892,-1.9057,-1.9008,-1.8949,-1.9085,-1.8962,-1.8812,-1.8812,-1.8851,-1.878,-1.8394,-1.8338,-1.8284,-1.7864,-1.7709,-1.7554,-1.7432,-1.7343,-1.7253,-1.7057,-1.6629,-1.6293,-1.6293,-1.5935,-1.5761,-1.5999,-1.6174,-1.6341,-1.654,-1.6618,-1.664,-1.6607,-1.6368,-1.6162,-1.6087,-1.5582,-1.5291,-1.52,-1.4713,-1.4538,-1.4692,-1.4566,-1.4482,-1.4482,-1.4482,-1.4482,-1.5701,-1.5842,-1.5748,-1.4681,-1.4254,-1.3817,-1.2631,-1.2128,-1.1731,-1.1097,-1.1263,-1.1213,-1.0312,-0.9927,0.0,0.0,0.0,0.0,0.0,-0.7723,-0.789,-0.8196,-0.9418,-1.0377,-1.0769,-1.1157,-1.1855,-1.3032,-1.3183,-1.3983,-1.5714,-1.6565,-1.7648,-1.9093,-1.9651,-2.0194,-2.0807,-2.0837,-2.0872,-2.0938,-2.1364,-2.143,-2.1286,-2.1376,-2.1218,-2.0869,-2.0617,-2.0324,-1.9981,-1.9517,-1.9156,-1.8809,-1.8372,-1.8114,-1.8008,-1.8066,-1.793,-1.771,-1.782,-1.8014,-1.8222,-1.8474,-1.8761,-1.9012,-1.8995,-1.9061,-1.9135,-1.8929,-1.8934,-1.8962,-1.8922,-1.8732,-1.8571,-1.8571,-1.8772,-1.878,-1.8403,-1.8347,-1.8332,-1.8,-1.7709,-1.7465,-1.7392,-1.7343,-1.7221,-1.6976,-1.6621,-1.6389,-1.6509,-1.623,-1.6142,-1.6365,-1.6397,-1.6444,-1.6591,-1.6476,-1.6435,-1.6492,-1.6162,-1.5914,-1.5873,-1.5291,-1.4915,-1.4873,-1.4377,-1.4208,-1.4496,-1.4363,-1.4279,-1.4279,-1.4279,-1.4279]},{"header":{"parameterUnit":"m.s-1","parameterCategory":1,"la1":30.6,"la2":29.2853,"lo1":-89.7004,"lo2":-87.6739,"dy":0.0162,"dx":0.0183,"nx":112,"ny":82,"refTime":"2023-08-24T12:00:00:Z","depth":0,"parameterNumber":3,"parameterNumberName":"V-component_of_WINDS"},"data":[0.0,0.0,0.0,0.0,0.0,0.0,0.0,0.0,0.0,0.0,0.0,0.0,0.0,0.0,0.0,0.0,0.0,0.0,0.0,0.0,0.0,0.0,0.0,0.0,0.0,0.0,0.0,0.0,0.0,0.0,0.0,0.0,0.0,0.0,0.0,0.0,0.0,0.0,0.0,0.0,0.0,0.0,0.0,0.0,0.0,0.0,0.0,0.0,0.0,0.0,0.0,0.0,0.0,0.0,0.0,0.0,0.0,0.0,0.0,0.0,0.0,0.0,0.0,0.0,0.0,0.0,0.0,0.0,0.0,0.0,0.0,0.0,0.0,0.0,0.0,0.0,0.0,0.0,0.0,0.0,0.0,0.0,0.0,0.0,0.0,0.0,0.0,0.0,0.0,0.0,-0.3216,-0.2122,0.0886,0.3402,0.4852,0.6601,0.7513,0.7248,0.0,0.0,0.0,0.0,0.0,0.0,0.0,0.0,0.0,0.0,0.0,0.0,0.0,0.0,0.0,0.0,0.0,0.0,0.0,0.0,0.0,0.0,0.0,0.0,0.0,0.0,0.0,0.0,0.0,0.0,0.0,0.0,0.0,0.0,0.0,0.0,0.0,0.0,0.0,0.0,0.0,0.0,0.0,0.0,0.0,0.0,0.0,0.0,0.0,0.0,0.0,0.0,0.0,0.0,0.0,0.0,0.0,0.0,0.0,0.0,0.0,0.0,0.0,0.0,0.0,0.0,0.0,0.0,0.0,0.0,0.0,0.0,0.0,0.0,0.0,0.0,0.0,0.0,0.0,0.0,0.0,0.0,0.0,0.0,0.0,0.0,0.0,0.0,0.0,0.0,0.0,0.0,0.0,0.0,0.0,0.0,0.0,0.0,0.0,0.0,0.0,0.0,0.0,0.0,-0.1838,0.0835,0.2431,0.3987,0.5674,0.6719,0.7556,0.8226,0.0,0.0,0.0,0.0,0.0,0.0,0.0,0.0,0.0,0.0,0.0,0.0,0.0,0.0,0.0,0.0,0.0,0.0,0.0,0.0,0.0,0.0,0.0,0.0,0.0,0.0,0.0,0.0,0.0,0.0,0.0,0.0,0.0,0.0,0.0,0.0,0.0,0.0,0.0,0.0,0.0,0.0,0.0,0.0,0.0,0.0,0.0,0.0,0.0,0.0,0.0,0.0,0.0,0.0,0.0,0.0,0.0,0.0,0.0,0.0,0.0,0.0,0.0,0.0,0.0,0.0,0.0,0.0,0.0,0.0,0.0,0.0,0.0,0.0,0.0,0.0,0.0,0.0,0.0,0.0,0.0,0.0,0.0,0.0,0.0,0.0,0.0,0.0,0.0,0.0,0.0,0.0,0.0,0.0,0.0,0.0,0.0,0.0,0.0,0.0,0.0,0.0,0.0,-0.1924,-0.0125,0.2108,0.3144,0.4256,0.5725,0.6806,0.7551,0.7876,0.7844,0.0,0.0,0.0,0.0,0.0,0.0,0.0,0.0,0.0,0.0,0.0,0.0,0.0,0.0,0.0,0.0,0.0,0.0,0.0,0.0,0.0,0.0,0.0,0.0,0.0,0.0,0.0,0.0,0.0,0.0,0.0,0.0,0.0,0.0,0.0,0.0,0.0,0.0,0.0,0.0,0.0,0.0,0.0,0.0,0.0,0.0,0.0,0.0,0.0,0.0,0.0,0.0,0.0,0.0,0.0,0.0,0.0,0.0,0.0,0.0,0.0,0.0,0.0,0.0,0.0,0.0,0.0,0.0,0.0,0.0,0.0,0.0,0.0,0.0,0.0,0.0,0.0,0.0,0.0,0.0,0.0,0.0,0.0,0.0,0.0,0.0,0.0,0.0,0.0,0.0,0.0,0.0,0.0,0.0,0.0,0.0,0.0,0.0,0.0,0.0,0.0,0.0,-0.0271,0.1254,0.2877,0.361,0.4503,0.5795,0.6772,0.7319,0.7324,0.719,0.0,0.0,0.0,0.0,0.0,0.0,0.0,0.0,0.0,0.0,0.0,0.0,0.0,0.0,0.0,0.0,0.0,0.0,0.0,0.0,0.0,0.0,0.0,0.0,0.0,0.0,0.0,0.0,0.0,0.0,0.0,0.0,0.0,0.0,0.0,0.0,0.0,0.0,0.0,0.0,0.0,0.0,0.0,0.0,0.0,0.0,0.0,0.0,0.0,0.0,0.0,0.0,0.0,0.0,0.0,0.0,0.0,0.0,0.0,0.0,0.0,0.0,0.0,0.0,0.0,0.0,0.0,0.0,0.0,0.0,0.0,0.0,0.0,0.0,0.0,0.0,0.0,0.0,0.0,0.0,0.0,0.0,0.0,0.0,0.0,0.0,0.0,0.0,0.0,0.0,0.0,0.0,0.0,0.0,0.0,0.0,0.0,0.0,0.0,0.0,0.0,0.0,0.029,0.169,0.3628,0.4093,0.487,0.6312,0.6474,0.6673,0.709,0.6363,0.0,0.0,0.0,0.0,0.0,0.0,0.0,0.0,0.0,0.0,0.0,0.0,0.0,0.0,0.0,0.0,0.0,0.0,0.0,0.0,0.0,0.0,0.0,0.0,0.0,0.0,0.0,0.0,0.0,0.0,0.0,0.0,0.0,0.0,0.0,0.0,0.0,0.0,0.0,0.0,0.0,0.0,0.0,0.0,0.0,0.0,0.0,0.0,0.0,0.0,0.0,0.0,0.0,0.0,0.0,0.0,0.0,0.0,0.0,0.0,0.0,0.0,0.0,0.0,0.0,0.0,0.0,0.0,0.0,0.0,0.0,0.0,0.0,0.0,0.0,0.0,0.0,0.0,0.0,0.0,0.0,0.0,0.0,0.0,0.0,0.0,0.0,0.0,0.0,0.0,0.0,0.0,0.0,0.0,0.0,0.0,0.0,0.0,0.0,0.0,0.0,0.0,0.135,0.2827,0.4292,0.4662,0.5372,0.6759,0.6963,0.6919,0.6676,0.0,0.0,0.0,0.0,0.0,0.0,0.0,0.0,0.0,0.0,0.0,0.0,0.0,0.0,0.0,0.0,0.0,0.0,0.0,0.0,0.0,0.0,0.0,0.0,0.0,0.0,0.0,0.0,0.0,0.0,0.0,0.0,0.0,0.0,0.0,0.0,0.0,0.0,0.0,0.0,0.0,0.0,0.0,0.0,0.0,0.0,0.0,0.0,0.0,0.0,0.0,0.0,0.0,0.0,0.0,0.0,0.0,0.0,0.0,0.0,0.0,0.0,0.0,0.0,0.0,0.0,0.0,0.0,0.0,0.0,0.0,0.0,0.0,0.0,0.0,0.0,0.0,0.0,0.0,0.0,0.0,0.0,0.0,0.0,0.0,0.0,0.0,0.0,0.0,0.0,0.0,0.0,0.0,0.0,0.0,0.0,0.0,0.0,0.0,0.0,0.0,0.0,0.0837,0.2239,0.3675,0.4969,0.5293,0.5913,0.7131,0.7332,0.7146,0.6584,0.0,0.0,0.0,0.0,0.0,0.0,0.0,0.0,0.0,0.0,0.0,0.0,0.0,0.0,0.0,0.0,0.0,0.0,0.0,0.0,0.0,0.0,0.0,0.0,0.0,0.0,0.0,0.0,0.0,0.0,0.0,0.0,0.0,0.0,0.0,0.0,0.0,0.0,0.0,0.0,0.0,0.0,0.0,0.0,0.0,0.0,0.0,0.0,0.0,0.0,0.0,0.0,0.0,0.0,0.0,0.0,0.0,0.0,0.0,0.0,0.0,0.0,0.0,0.0,0.0,0.0,0.0,0.0,0.0,0.0,0.0,0.0,0.0,0.0,0.0,0.0,0.0,0.0,0.0,0.0,0.0,0.0,0.0,0.0,0.0,0.0,0.0,0.0,0.0,0.0,0.0,0.0,0.0,0.0,0.0,0.0,0.0,0.0,0.0,0.0,0.0,0.0,0.1733,0.2874,0.4166,0.5636,0.5992,0.6484,0.7415,0.7435,0.7272,0.0,0.0,0.0,0.0,0.0,0.0,0.0,0.0,0.0,0.0,0.0,0.0,0.0,0.0,0.0,0.0,0.0,0.0,0.0,0.0,0.0,0.0,0.0,0.0,0.0,0.0,0.0,0.0,0.0,0.0,0.0,0.0,0.0,0.0,0.0,0.0,0.0,0.0,0.0,0.0,0.0,0.0,0.0,0.0,0.0,0.0,0.0,0.0,0.0,0.0,0.0,0.0,0.0,0.0,0.0,0.0,0.0,0.0,0.0,0.0,0.0,0.0,0.0,0.0,0.0,0.0,0.0,0.0,0.0,0.0,0.0,0.0,0.0,0.0,0.0,0.0,0.0,0.0,0.0,0.0,0.0,0.0,0.0,0.0,0.0,0.0,0.0,0.0,0.0,0.0,0.0,0.0,0.0,0.0,0.0,0.0,0.0,0.0,0.0,0.0,0.0,0.0,0.0,0.2389,0.3653,0.4902,0.6089,0.6369,0.6809,0.7707,0.7729,0.7754,0.7944,0.0,0.0,0.0,0.0,0.0,0.0,0.0,0.0,0.0,0.0,0.0,0.0,0.0,0.0,0.0,0.0,0.0,0.0,0.0,0.0,0.0,0.0,0.0,0.0,0.0,0.0,0.0,0.0,0.0,0.0,0.0,0.0,0.0,0.0,0.0,0.0,0.0,0.0,0.0,0.0,0.0,0.0,0.0,0.0,0.0,0.0,0.0,0.0,0.0,0.0,0.0,0.0,0.0,0.0,0.0,0.0,0.0,0.0,0.0,0.0,0.0,0.0,0.0,0.0,0.0,0.0,0.0,0.0,0.0,0.0,0.0,0.0,0.0,0.0,0.0,0.0,0.0,0.0,0.0,0.0,0.0,0.0,0.0,0.0,0.0,0.0,0.0,0.0,0.0,0.0,0.0,0.0,0.0,0.0,0.0,0.0,0.0,0.0,0.0,0.0,0.0,0.0,0.283,0.4187,0.5495,0.6555,0.6919,0.7352,0.8045,0.8263,0.8351,0.8349,0.0,0.0,0.0,0.0,0.0,0.0,0.0,0.0,0.0,0.0,0.0,0.0,0.0,0.0,0.0,0.0,0.0,0.0,0.0,0.0,0.0,0.0,0.0,0.0,0.0,0.0,0.0,0.0,0.0,0.0,0.0,0.0,0.0,0.0,0.0,0.0,0.0,0.0,0.0,0.0,0.0,0.0,0.0,0.0,0.0,0.0,0.0,0.0,0.0,0.0,0.0,0.0,0.0,0.0,0.0,0.0,0.0,0.0,0.0,0.0,0.0,0.0,0.0,0.0,0.0,0.0,0.0,0.0,0.0,0.0,0.0,0.0,0.0,0.0,0.0,0.0,0.0,0.0,0.0,0.0,0.0,0.0,0.0,0.0,0.0,0.0,0.0,0.0,0.0,0.0,0.0,0.0,0.0,0.0,0.0,0.0,0.0,0.0,0.0,0.0,0.0,0.0,0.3122,0.4595,0.5992,0.6982,0.752,0.7934,0.8323,0.8823,0.8914,0.8439,0.0,0.0,0.0,0.0,0.0,0.0,0.0,0.0,0.0,0.0,0.0,0.0,0.0,0.0,0.0,0.0,0.0,0.0,0.0,0.0,0.0,0.0,0.0,0.0,0.0,0.0,0.0,0.0,0.0,0.0,0.0,0.0,0.0,0.0,0.0,0.0,0.0,0.0,0.0,0.0,0.0,0.0,0.0,0.0,0.0,0.0,0.0,0.0,0.0,0.0,0.0,0.0,0.0,0.0,0.0,0.0,0.0,0.0,0.0,0.0,0.3946,0.4072,0.0,0.0,0.0,0.0,0.0,0.0,0.0,0.0,0.0,0.0,0.0,0.0,0.0,0.0,0.0,0.0,0.0,0.0,0.0,0.0,0.0,0.0,0.0,0.0,0.0,0.0,0.0,0.0,0.0,0.0,0.0,0.0,0.0,0.0,0.0,0.0,0.0,0.0,0.0,0.0,0.3585,0.5183,0.6507,0.7035,0.748,0.7797,0.8002,0.8268,0.8655,0.9215,0.9448,0.0,0.0,0.0,0.0,0.0,0.0,0.0,0.0,0.0,0.0,0.0,0.0,0.0,0.0,0.0,0.0,0.0,0.0,0.0,0.0,0.0,0.0,0.0,0.0,0.0,0.0,0.0,0.0,0.0,0.0,0.0,0.0,0.0,0.0,0.0,0.0,0.0,0.0,0.0,0.0,0.0,0.0,0.0,0.0,0.0,0.0,0.0,0.0,0.0,0.0,0.0,0.0,0.0,0.0,0.0,0.0,0.0,0.0,0.0,0.3683,0.3643,0.0,0.0,0.0,0.0,0.0,0.0,0.0,0.0,0.0,0.0,0.0,0.0,0.0,0.0,0.0,0.0,0.0,0.0,0.0,0.0,0.0,0.0,0.0,0.0,0.0,0.0,0.0,0.0,0.0,0.0,0.0,0.0,0.0,0.0,0.0,0.0,0.0,0.0,0.0,0.0,0.3985,0.5553,0.683,0.7333,0.7726,0.8029,0.8209,0.8573,0.8959,0.9374,0.9807,0.0,0.0,0.0,0.0,0.0,0.0,0.0,0.0,0.0,0.0,0.0,0.0,0.0,0.0,0.0,0.0,0.0,0.0,0.0,0.0,0.0,0.0,0.0,0.0,0.0,0.0,0.0,0.0,0.0,0.0,0.0,0.0,0.0,0.0,0.0,0.0,0.0,0.0,0.0,0.0,0.0,0.0,0.0,0.0,0.0,0.0,0.0,0.0,0.0,0.0,0.0,0.0,0.0,0.343,0.3756,0.4334,0.4199,0.4127,0.4111,0.3821,0.3696,0.3676,0.3537,0.0,0.0,0.0,0.0,0.0,0.0,0.0,0.0,0.0,0.0,0.0,0.0,0.0,0.0,0.0,0.0,0.0,0.0,0.0,0.0,0.0,0.0,0.5212,0.5177,0.5571,0.5708,0.4774,0.0,0.0,0.0,0.0,0.0,0.0,0.0,0.0,0.0,0.0,0.0,0.447,0.59,0.7136,0.7685,0.8051,0.8348,0.8573,0.9003,0.9273,0.9322,0.9894,1.0173,0.0,0.0,0.0,0.0,0.0,0.0,0.0,0.0,0.0,0.0,0.0,0.0,0.0,0.0,0.0,0.0,0.0,0.0,0.0,0.0,0.0,0.0,0.0,0.0,0.0,0.0,0.0,0.0,0.0,0.0,0.0,0.0,0.2556,0.2335,0.0,0.0,0.0,0.0,0.0,0.0,0.0,0.0,0.0,0.0,0.0,0.0,0.0,0.2174,0.2699,0.2994,0.3479,0.4152,0.4047,0.4162,0.4472,0.4335,0.4274,0.4272,0.4101,0.0,0.4024,0.3886,0.0,0.0,0.0,0.0,0.0,0.0,0.0,0.0,0.0,0.0,0.0,0.0,0.0,0.0,0.0,0.0,0.0,0.0,0.0,0.0,0.0,0.0,0.5319,0.5413,0.5642,0.5775,0.5627,0.5515,0.5468,0.5546,0.5405,0.5072,0.0,0.0,0.0,0.0,0.0,0.0,0.5209,0.6464,0.748,0.793,0.8202,0.8448,0.8573,0.8615,0.8868,0.9439,0.9286,0.9702,1.0794,1.0879,0.0,0.0,0.0,0.0,0.0,0.0,0.0,0.0,0.0,0.0,0.0,0.0,0.0,0.0,0.0,0.0,0.0,0.0,0.0,0.0,0.0,0.0,0.0,0.0,0.0,0.0,0.0,0.0,0.0,0.2822,0.2769,0.2899,0.3272,0.3488,0.0,0.0,0.0,0.0,0.0,0.0,0.0,0.0,0.0,0.2322,0.2651,0.301,0.338,0.3512,0.3807,0.4309,0.4317,0.443,0.4608,0.4472,0.4369,0.4302,0.4318,0.4318,0.4322,0.4268,0.4285,0.4348,0.0,0.0,0.0,0.0,0.4456,0.5011,0.4882,0.5249,0.5726,0.5523,0.0,0.0,0.0,0.0,0.0,0.0,0.0,0.4827,0.5079,0.5472,0.5828,0.5878,0.6013,0.6147,0.6147,0.606,0.6005,0.5993,0.5947,0.5742,0.5213,0.5094,0.0,0.0,0.0,0.5445,0.5716,0.6717,0.754,0.7898,0.8281,0.8606,0.8817,0.9003,0.9224,0.9486,0.9581,0.9827,1.0306,1.0673,1.1151,0.0,0.0,0.0,0.0,0.0,0.0,0.0,0.0,0.0,0.0,0.0,0.0,0.0,0.0,0.0,0.0,0.0,0.0,0.0,0.0,0.0,0.0,0.0,0.0,0.0,0.0,0.0,0.0,0.2813,0.3016,0.3418,0.3659,0.3816,0.0,0.0,0.0,0.0,0.0,0.0,0.2595,0.2841,0.3067,0.3246,0.3536,0.3774,0.3998,0.4066,0.4287,0.4629,0.4658,0.4775,0.4931,0.4655,0.4494,0.4461,0.4507,0.4521,0.4536,0.4584,0.4574,0.4528,0.4496,0.4548,0.4591,0.4359,0.4737,0.539,0.5349,0.5775,0.6304,0.6111,0.6058,0.5996,0.5621,0.0,0.0,0.0,0.0,0.5274,0.5348,0.5786,0.6206,0.6206,0.6297,0.6416,0.6432,0.6453,0.6447,0.6313,0.6383,0.6343,0.5967,0.5872,0.0,0.5432,0.5817,0.6249,0.6546,0.7236,0.7843,0.8202,0.8579,0.889,0.9133,0.9445,0.9604,0.9561,0.9826,0.9982,0.993,1.0467,1.0996,1.1508,0.0,0.0,0.0,0.0,0.0,0.0,0.0,0.0,0.0,0.0,0.0,0.0,0.0,0.0,0.0,0.0,0.0,0.0,0.0,0.0,0.0,0.0,0.0,0.0,0.0,0.0,0.0,0.0,0.0,0.3632,0.3862,0.0,0.0,0.0,0.0,0.3654,0.3419,0.3449,0.3873,0.3808,0.3904,0.4221,0.4362,0.4562,0.4829,0.5098,0.5318,0.5542,0.5283,0.5311,0.5532,0.4888,0.4687,0.4871,0.4665,0.4587,0.46,0.4806,0.4871,0.4868,0.4936,0.4966,0.5,0.5168,0.554,0.5959,0.5959,0.627,0.6645,0.6513,0.6266,0.6074,0.6487,0.5853,0.0,0.0,0.5665,0.551,0.6012,0.6173,0.6206,0.6206,0.6297,0.641,0.6483,0.6605,0.6641,0.652,0.6596,0.6638,0.6486,0.0,0.6584,0.6691,0.6888,0.7321,0.8085,0.8398,0.8703,0.9077,0.9276,0.9413,0.9562,0.9645,0.9699,0.9683,0.9702,0.9897,1.0264,1.037,1.0933,1.2049,1.2431,0.0,0.0,0.0,0.0,0.0,0.0,0.0,0.0,0.0,0.0,0.0,0.0,0.0,0.0,0.0,0.0,0.0,0.0,0.0,0.0,0.0,0.0,0.0,0.0,0.0,0.0,0.0,0.0,0.3951,0.4094,0.0,0.4573,0.4331,0.4166,0.4207,0.4252,0.4293,0.4377,0.4538,0.4719,0.4948,0.5079,0.5202,0.5345,0.557,0.5741,0.5853,0.5851,0.5856,0.5848,0.5647,0.5552,0.5534,0.533,0.5246,0.5246,0.5218,0.512,0.4977,0.5096,0.5309,0.5596,0.5748,0.6111,0.6522,0.6518,0.6659,0.6827,0.6781,0.6611,0.6485,0.6658,0.6362,0.6008,0.6192,0.6196,0.6208,0.6608,0.6748,0.6836,0.7038,0.7128,0.718,0.7197,0.7243,0.7305,0.7436,0.7157,0.703,0.7456,0.7487,0.7578,0.8026,0.8044,0.8146,0.8502,0.8728,0.8948,0.9181,0.9478,0.9732,0.9958,1.014,1.0099,0.9837,1.03,1.0596,1.0571,1.1092,1.1613,1.2141,1.2585,1.2797,0.0,0.0,0.0,0.0,0.0,0.0,0.0,0.0,0.0,0.0,0.0,0.0,0.0,0.0,0.0,0.0,0.0,0.0,0.0,0.0,0.0,0.0,0.0,0.0,0.0,0.3325,0.3701,0.4278,0.4307,0.4486,0.4949,0.4773,0.4656,0.4701,0.4857,0.4968,0.4965,0.5183,0.5409,0.5675,0.5695,0.5816,0.6031,0.6117,0.6267,0.6435,0.6461,0.6466,0.6429,0.6297,0.6227,0.6181,0.5917,0.5834,0.5897,0.5805,0.571,0.558,0.5318,0.5375,0.5641,0.5726,0.5957,0.6284,0.6676,0.6935,0.7112,0.7213,0.7035,0.6806,0.689,0.6744,0.6587,0.6628,0.6668,0.6774,0.7117,0.7324,0.7537,0.7751,0.7892,0.7994,0.7923,0.794,0.8034,0.8193,0.7748,0.7536,0.8199,0.8235,0.8389,0.9047,0.895,0.8915,0.9195,0.9306,0.9389,0.9557,0.9888,1.018,1.0411,1.0486,1.036,1.0043,1.0715,1.0906,1.0488,1.1313,1.182,1.1854,1.2701,1.2962,1.2596,0.0,0.0,0.0,0.0,0.0,0.0,0.0,0.0,0.0,0.0,0.0,0.0,0.0,0.0,0.0,0.0,0.0,0.0,0.0,0.0,0.0,0.0,0.0,0.3458,0.362,0.3927,0.4531,0.4543,0.4644,0.4972,0.5075,0.5125,0.512,0.525,0.544,0.5707,0.5716,0.5939,0.6394,0.623,0.6383,0.6891,0.678,0.6942,0.7311,0.7108,0.7119,0.73,0.6756,0.6619,0.6791,0.6399,0.6342,0.653,0.6525,0.664,0.671,0.5667,0.5234,0.5174,0.5196,0.5196,0.5357,0.6462,0.7157,0.7574,0.7836,0.7528,0.7086,0.729,0.7056,0.6774,0.7045,0.7099,0.7179,0.7519,0.7916,0.8217,0.823,0.8551,0.8762,0.8575,0.8638,0.8732,0.8755,0.8386,0.8214,0.867,0.874,0.8977,0.9712,0.9594,0.0,1.0251,1.0162,1.0102,1.0316,1.0573,1.0769,1.0896,1.0705,1.0479,1.0362,1.0862,1.0846,1.0134,1.1115,1.1555,1.1292,1.2822,1.3353,1.2836,0.0,0.0,0.0,0.0,0.0,0.0,0.0,0.0,0.0,0.0,0.0,0.0,0.0,0.0,0.0,0.0,0.0,0.0,0.0,0.0,0.0,0.3852,0.3646,0.365,0.385,0.4136,0.4548,0.4794,0.5002,0.5207,0.5377,0.5471,0.5461,0.5733,0.5982,0.619,0.6252,0.6328,0.6457,0.669,0.6844,0.6904,0.7349,0.762,0.7744,0.7445,0.7405,0.7584,0.7189,0.7107,0.7301,0.7033,0.7021,0.7155,0.7036,0.7146,0.7337,0.6907,0.6801,0.6946,0.7121,0.7315,0.7552,0.7968,0.8167,0.8238,0.8306,0.8222,0.8095,0.8156,0.7816,0.7419,0.7404,0.719,0.7106,0.7736,0.8051,0.8345,0.8941,0.9224,0.9401,0.9426,0.9469,0.9552,0.9761,0.9693,0.9617,0.9642,0.9547,0.9744,1.049,1.0378,1.0359,1.0812,1.0667,1.0641,1.0998,1.1099,1.12,1.1326,1.1531,1.1568,1.1329,1.2142,1.2536,1.2324,1.307,1.3477,1.344,1.3698,1.374,0.0,0.0,0.0,0.0,0.0,0.0,0.0,0.0,0.0,0.0,0.0,0.0,0.0,0.0,0.0,0.0,0.0,0.0,0.0,0.0,0.0,0.0,0.4177,0.4074,0.4341,0.4341,0.4459,0.4844,0.5057,0.5278,0.5481,0.5633,0.5782,0.5897,0.6179,0.6439,0.6671,0.6786,0.6868,0.6928,0.7112,0.7246,0.731,0.7741,0.8032,0.819,0.8047,0.8059,0.815,0.789,0.785,0.7957,0.7786,0.7771,0.7908,0.7873,0.7997,0.8126,0.0,0.0,0.0,0.0,0.7896,0.8282,0.8439,0.8564,0.8669,0.8669,0.863,0.8576,0.8522,0.8284,0.8056,0.8106,0.7992,0.7994,0.8588,0.8967,0.9284,0.9746,1.001,1.0138,1.0164,1.0208,1.0318,1.0454,1.0531,0.0,1.0615,1.0483,1.0499,1.099,1.0972,1.1023,1.1318,1.1226,1.1226,1.1528,1.1544,1.1644,1.1902,1.1935,0.0,0.0,0.0,1.3324,1.3619,1.3795,0.0,0.0,0.0,1.4473,1.4199,1.4608,0.0,0.0,1.3647,1.3581,0.0,0.0,0.0,0.0,0.0,0.0,0.0,0.0,0.0,0.0,0.0,0.0,0.0,0.0,0.0,0.0,0.4345,0.4466,0.5195,0.499,0.4892,0.5287,0.5376,0.5524,0.5814,0.5948,0.6126,0.6359,0.6648,0.6896,0.7166,0.731,0.0,0.0,0.0,0.7652,0.7923,0.8062,0.8306,0.8679,0.8738,0.8771,0.8804,0.8626,0.8567,0.8626,0.8501,0.8553,0.8679,0.883,0.8968,0.9006,0.8075,0.7714,0.7719,0.7448,0.7758,0.8315,0.8429,0.0,0.0,0.904,0.8958,0.8866,0.8709,0.8649,0.8685,0.8967,0.9116,0.9284,0.9697,1.011,1.0466,1.0565,1.0769,1.0922,1.082,1.0871,1.0972,1.0998,1.1099,1.1276,1.1502,1.1326,1.1192,1.1326,1.1452,1.1578,1.1728,1.1719,1.1803,1.1952,1.1977,0.0,1.2505,1.2144,1.2056,1.2447,1.3068,1.3695,1.4299,1.3992,1.3947,1.4244,1.5237,1.5466,1.4861,1.5869,1.6022,1.5434,1.5034,1.4967,0.0,0.0,0.0,0.0,0.0,0.0,0.0,0.0,0.0,0.0,0.0,0.0,0.0,0.0,0.0,0.4563,0.4759,0.4993,0.5258,0.5541,0.5692,0.5554,0.5873,0.6086,0.6059,0.6439,0.6779,0.6935,0.7192,0.7467,0.7735,0.7724,0.7713,0.774,0.8043,0.8193,0.815,0.8693,0.8999,0.9073,0.8678,0.0,0.8949,0.8493,0.8442,0.8778,0.885,0.8949,0.9106,0.9354,0.9595,0.9751,0.9104,0.9062,0.9318,0.9048,0.9167,0.9463,0.9496,0.9728,1.0003,0.9849,0.9888,0.9969,0.9758,0.957,0.0,0.9345,0.9189,0.9156,0.9678,0.9936,1.0237,1.0847,1.1099,1.1251,1.1326,1.1377,1.1427,1.1528,1.1644,1.1753,1.1794,1.1603,1.1477,1.1603,1.1653,1.1753,1.2002,1.1927,1.2002,1.2357,1.2382,1.2455,1.2652,1.2918,1.3192,1.3486,1.4369,1.4948,1.5082,1.5475,1.5727,1.5853,1.6393,1.6603,1.6537,1.6948,1.7105,1.6933,1.5704,1.515,0.0,0.0,0.0,0.0,0.0,0.0,0.0,0.0,0.0,0.0,0.0,0.4966,0.4822,0.0,0.4692,0.5005,0.514,0.5301,0.5609,0.5963,0.6136,0.5974,0.6271,0.6525,0.6586,0.6833,0.7015,0.7049,0.7274,0.7515,0.775,0.7878,0.8049,0.8293,0.8617,0.8777,0.8692,0.9179,0.9446,0.9506,0.9237,0.9193,0.9401,0.9134,0.9045,0.9113,0.9323,0.9394,0.9439,0.981,1.0095,1.0308,0.9921,0.9766,0.9766,0.9569,0.9681,0.9895,0.9895,1.0136,1.0368,1.029,1.0316,1.0368,1.029,1.0191,1.015,1.0142,1.0164,1.0238,1.0557,1.0747,1.0945,1.13,1.1444,1.1528,1.1603,1.1644,1.1753,1.1877,1.2002,1.2126,1.2175,1.2166,1.2141,1.2101,1.224,1.2397,1.2505,1.2431,1.252,1.2827,1.2793,1.29,1.3224,1.3716,1.4163,1.4535,1.5108,1.558,1.5891,1.6262,1.6522,1.6659,1.6905,1.7031,1.6997,1.7365,1.7543,1.7529,1.6851,1.6455,0.0,0.0,0.0,0.0,0.0,0.0,0.0,0.6424,0.6127,0.6027,0.5699,0.5381,0.5229,0.4998,0.4965,0.5422,0.5453,0.5545,0.5976,0.6274,0.6447,0.6407,0.6637,0.6878,0.7144,0.7219,0.7243,0.7229,0.7443,0.7674,0.7827,0.8177,0.8531,0.8897,0.9188,0.9324,0.9316,0.9566,0.9732,0.9851,0.9851,0.9851,0.9851,0.9825,0.9688,0.9524,0.9818,0.9914,0.9932,1.0308,1.0598,1.0794,1.0522,1.0265,1.0025,0.9803,0.9932,1.0205,1.018,1.0385,1.0667,1.0667,1.0667,1.0667,1.0667,1.0752,1.0871,1.0998,1.1192,1.1418,1.1569,1.1703,1.1794,1.1852,1.1852,1.1852,1.1852,1.1952,1.2076,1.22,1.2348,1.2471,1.2618,1.2803,1.2876,1.2603,1.2837,1.3031,1.2992,1.2992,1.3079,1.329,1.3218,1.3362,1.3858,1.4361,1.4846,1.53,1.558,1.5966,1.6522,1.668,1.6884,1.7094,1.7199,1.722,1.7191,1.7557,1.776,1.776,1.7909,1.7808,0.6813,0.6629,0.6253,0.6246,0.6233,0.6253,0.0,0.6179,0.5942,0.5704,0.5556,0.5423,0.524,0.5223,0.5298,0.5469,0.5642,0.5836,0.6142,0.6452,0.6714,0.6829,0.6975,0.7169,0.7439,0.7681,0.7889,0.8045,0.8409,0.8652,0.8679,0.9025,0.9278,0.9337,0.9588,0.9725,0.974,0.988,0.9973,0.9973,0.9973,0.9973,0.9973,0.9844,0.9844,0.9947,1.029,1.0616,1.0947,1.0998,1.1099,1.12,1.0947,1.0871,1.0896,1.0411,1.0539,1.0964,1.0845,1.0972,1.1217,1.1217,1.1217,1.1217,1.1217,1.1301,1.1418,1.1427,1.1553,1.1694,1.1977,1.2051,1.2126,1.2348,1.2397,1.2397,1.2397,1.2529,1.2603,1.2627,1.2798,1.2949,1.3098,1.3348,1.3334,1.2837,1.3011,1.3218,1.3324,1.3348,1.3443,1.3716,1.3716,1.3881,1.4314,1.4663,1.5028,1.5446,1.5903,1.6297,1.6659,1.6863,1.7115,1.7434,1.7455,1.757,1.7801,1.7902,1.7968,1.7968,1.8181,1.8141,0.625,0.6166,0.593,0.5543,0.5678,0.5859,0.5653,0.5728,0.5796,0.5691,0.5663,0.5642,0.5523,0.5453,0.5521,0.5857,0.598,0.6113,0.6347,0.6687,0.698,0.7109,0.7536,0.779,0.7741,0.8148,0.8364,0.8216,0.8493,0.8672,0.8684,0.8989,0.9355,0.9725,0.987,0.9999,1.0213,1.0187,1.0205,1.0283,1.0205,1.0213,1.0283,1.0231,1.0308,1.0539,1.059,1.0896,1.1318,1.1318,1.1418,1.1519,1.1326,1.1318,1.1368,1.0769,1.0871,1.1326,1.1276,1.1427,1.1653,1.1653,1.1653,1.1653,1.1653,1.1803,1.1977,1.1977,1.2051,1.22,1.2298,1.2397,1.248,1.2578,1.2676,1.2725,1.2725,1.2798,1.2886,1.2973,1.3108,1.3286,1.342,1.3729,1.3871,1.3658,1.3718,1.3776,1.3739,1.3905,1.4082,1.4305,1.4524,1.4766,1.5017,1.5412,1.578,1.6054,1.6522,1.6926,1.7276,1.7447,1.7611,1.7787,1.7787,1.7835,1.7902,1.8082,1.8167,1.8187,1.8461,1.8553,0.5953,0.593,0.5851,0.5204,0.5376,0.5637,0.5361,0.5518,0.5717,0.5701,0.5739,0.5777,0.5788,0.5744,0.5864,0.6322,0.6447,0.6556,0.6753,0.7099,0.7413,0.7618,0.8231,0.8577,0.838,0.8727,0.8841,0.849,0.868,0.8832,0.8861,0.912,0.9521,1.0076,1.0076,1.0213,1.0445,1.0342,1.0368,1.0496,1.0368,1.0393,1.0573,1.059,1.0744,1.0972,1.0972,1.1251,1.1728,1.1678,1.1753,1.1852,1.1678,1.1694,1.1753,1.1226,1.1301,1.1678,1.1678,1.1852,1.2076,1.2076,1.2076,1.2076,1.2101,1.2249,1.2431,1.2455,1.2505,1.2578,1.2627,1.2715,1.2813,1.2886,1.2992,1.3089,1.3138,1.3186,1.3262,1.3433,1.3552,1.3671,1.3858,1.4213,1.4491,1.4396,1.4541,1.4562,1.4278,1.4512,1.4754,1.4903,1.5221,1.5503,1.5681,1.6022,1.6349,1.6659,1.7052,1.7413,1.7767,1.7875,1.7975,1.8068,1.8068,1.8075,1.8063,1.8293,1.8397,1.8417,1.8745,1.8879,0.6413,0.6282,0.6142,0.5542,0.5538,0.5717,0.5771,0.5787,0.5771,0.5723,0.5701,0.5766,0.5954,0.6146,0.6418,0.6809,0.7035,0.7236,0.7451,0.7754,0.8085,0.8414,0.9109,0.9571,0.9555,0.9438,0.9335,0.9171,0.9295,0.9425,0.9573,0.9821,1.0069,1.029,1.029,1.029,1.0324,1.029,1.0368,1.0496,1.0368,1.0445,1.0693,1.082,1.0972,1.1124,1.1502,1.1902,1.2283,1.215,1.215,1.2249,1.2002,1.1977,1.2076,1.1927,1.1952,1.2076,1.2076,1.2249,1.248,1.248,1.248,1.2505,1.2627,1.2676,1.27,1.2856,1.2774,1.2749,1.2934,1.2987,1.3064,1.3324,1.3491,1.3621,1.3739,1.3773,1.3858,1.4106,1.4176,1.4246,1.4523,1.4957,1.5185,1.4914,1.5416,1.5612,1.4948,1.521,1.5468,1.5468,1.5647,1.5881,1.6156,1.625,1.6561,1.7136,1.731,1.7578,1.7968,1.7988,1.8088,1.8285,1.8285,1.8338,1.8478,1.8615,1.8692,1.8692,1.8965,1.9082,0.6636,0.6054,0.5525,0.5381,0.5224,0.5133,0.5241,0.5193,0.5188,0.5345,0.5393,0.5507,0.5766,0.6135,0.6585,0.7036,0.7382,0.7678,0.7876,0.8154,0.8397,0.8614,0.9293,0.9702,0.9611,0.9671,0.965,0.9407,0.9432,0.9457,0.9407,0.9614,0.9836,1.0076,1.011,1.0162,1.029,1.0393,1.047,1.0496,1.0718,1.082,1.0845,1.0972,1.1242,1.1619,1.1678,1.1977,1.2431,1.2382,1.2348,1.2298,1.22,1.2258,1.2357,1.22,1.2357,1.2603,1.2431,1.248,1.2652,1.2735,1.2798,1.2837,1.2886,1.2958,1.3035,1.3094,1.306,1.306,1.3228,1.3324,1.3443,1.3621,1.4065,1.4456,1.4516,1.4947,1.5386,1.557,1.5657,1.5702,1.5611,1.5798,1.5893,1.5662,1.5632,1.5588,1.5514,1.577,1.6013,1.6088,1.6402,1.6625,1.671,1.7047,1.7318,1.7516,1.7774,1.8016,1.8187,1.8372,1.8509,1.863,1.8586,1.862,1.8702,1.8846,1.8922,1.8984,1.9191,1.9358,0.6833,0.6152,0.5479,0.5337,0.5133,0.4997,0.5046,0.5002,0.4997,0.5171,0.5431,0.5712,0.6029,0.6522,0.7044,0.7484,0.7758,0.8024,0.8299,0.865,0.9016,0.9296,0.9839,1.0178,1.0129,1.0181,1.0059,0.9797,0.9872,0.9897,0.9797,0.9972,1.0113,1.0257,1.0308,1.0334,1.0368,1.0496,1.0598,1.065,1.0998,1.1074,1.0896,1.115,1.1502,1.1977,1.1927,1.2224,1.271,1.2603,1.2529,1.2431,1.2397,1.2431,1.2505,1.2471,1.2642,1.2847,1.27,1.274,1.2886,1.2983,1.3045,1.3094,1.319,1.3276,1.3362,1.3467,1.3443,1.3467,1.3624,1.3868,1.41,1.4291,1.4874,1.5419,1.5433,1.5703,1.6027,1.6225,1.6211,1.6148,1.6079,1.6192,1.6315,1.6371,1.6122,1.5957,1.6013,1.6244,1.6439,1.6543,1.6829,1.7047,1.7173,1.7523,1.7787,1.7908,1.8208,1.8425,1.8548,1.8731,1.8865,1.8988,1.8946,1.8946,1.8988,1.9078,1.9168,1.9195,1.9398,1.956,0.7,0.66,0.5957,0.5439,0.5306,0.5306,0.5258,0.5258,0.528,0.5296,0.5836,0.6407,0.679,0.7298,0.7781,0.814,0.8185,0.831,0.8737,0.9247,0.9806,1.0411,1.0718,1.0922,1.1074,1.0861,1.063,1.037,1.0549,1.0694,1.0694,1.0812,1.0845,1.0718,1.0845,1.0794,1.0547,1.0675,1.0794,1.0947,1.12,1.1192,1.0972,1.1352,1.1753,1.215,1.2249,1.2603,1.3075,1.2832,1.271,1.2686,1.2578,1.2529,1.2554,1.2764,1.2837,1.2876,1.292,1.3069,1.3218,1.3242,1.3242,1.329,1.3539,1.3634,1.3692,1.3939,1.3939,1.3892,1.4185,1.4579,1.4963,1.5266,1.5829,1.6327,1.6391,1.6075,1.5888,1.622,1.5971,1.5782,1.6037,1.6219,1.6476,1.7012,1.6873,1.6633,1.6436,1.6599,1.6782,1.6897,1.7002,1.7199,1.7516,1.774,1.8002,1.8361,1.8623,1.8879,1.9113,1.9132,1.9198,1.9346,1.9346,1.9332,1.9321,1.9376,1.9413,1.9446,1.9617,1.9726,0.695,0.6464,0.5816,0.5518,0.5523,0.5674,0.5959,0.6097,0.6283,0.6679,0.7106,0.7432,0.7528,0.8158,0.8549,0.8319,0.8678,0.8976,0.889,0.9163,0.9617,1.0259,1.0496,1.0693,1.0922,1.1065,1.1073,1.0913,1.0681,1.0596,1.0694,1.0722,1.0871,1.115,1.1074,1.1074,1.1099,1.1124,1.1251,1.1502,1.1578,1.1678,1.1794,1.1694,1.1993,1.2618,1.2397,1.2578,1.3017,1.2905,1.2774,1.271,1.2774,1.2886,1.3025,1.3074,1.3348,1.3702,1.3713,1.3631,1.3515,1.361,1.3716,1.3844,1.3988,1.4059,1.4082,1.4257,1.4267,1.439,1.5001,1.4971,1.4929,1.5714,1.6065,1.6277,1.6515,1.6896,1.7243,1.7423,1.7228,1.7038,1.7105,1.6832,1.6649,1.6779,1.6828,1.6791,1.6654,1.6897,1.7128,1.7246,1.7659,1.7935,1.8068,1.8333,1.8739,1.9384,1.9518,1.9892,2.0549,2.0719,2.0578,2.0131,2.0116,1.9956,1.9599,1.9617,1.969,1.9863,1.9902,1.994,0.6872,0.6407,0.582,0.5556,0.5518,0.5561,0.5739,0.6142,0.6525,0.6653,0.7521,0.8218,0.8166,0.8553,0.8829,0.8715,0.8714,0.882,0.9084,0.9383,0.9843,1.055,1.0718,1.0871,1.115,1.1301,1.1377,1.1352,1.1095,1.0967,1.104,1.1106,1.1226,1.1377,1.1427,1.1452,1.1477,1.1519,1.1678,1.1877,1.1952,1.2051,1.2175,1.1977,1.2215,1.2779,1.252,1.2691,1.3166,1.3069,1.2997,1.2949,1.3128,1.3286,1.3409,1.3624,1.3928,1.4174,1.4244,1.4197,1.4127,1.408,1.4104,1.4197,1.4326,1.4396,1.4443,1.4546,1.4639,1.481,1.5231,1.5541,1.582,1.6162,1.6669,1.705,1.6931,1.7363,1.7772,1.7795,1.751,1.7306,1.735,1.7115,1.6918,1.6918,1.7023,1.7211,1.7458,1.7411,1.7406,1.7597,1.7989,1.8274,1.8372,1.8697,1.9027,1.9419,1.9653,2.0123,2.0892,2.1035,2.1079,2.1014,2.0731,2.0389,2.0053,1.9842,1.9797,1.9902,1.997,2.0061,0.6706,0.6365,0.5927,0.5562,0.5411,0.5312,0.5243,0.6002,0.6611,0.628,0.7736,0.9005,0.8836,0.8885,0.9052,0.9334,0.8798,0.8631,0.9456,0.9815,1.0278,1.0998,1.1099,1.12,1.1469,1.1528,1.1578,1.1678,1.1603,1.1553,1.1578,1.1669,1.1678,1.1578,1.1852,1.1927,1.1778,1.1902,1.2051,1.2175,1.2274,1.2357,1.2372,1.2224,1.2397,1.2837,1.2652,1.2876,1.3372,1.3266,1.3242,1.329,1.3563,1.3681,1.38,1.4257,1.4443,1.4489,1.4616,1.4742,1.4799,1.4523,1.4443,1.4489,1.4627,1.4708,1.48,1.4868,1.5006,1.5165,1.5257,1.6115,1.6859,1.6538,1.7231,1.7835,1.7328,1.7482,1.7688,1.7629,1.7295,1.7065,1.7178,1.7199,1.7178,1.7199,1.7402,1.7779,1.842,1.8032,1.78,1.8174,1.843,1.8621,1.8669,1.9128,1.9352,1.9199,1.9704,2.0307,2.094,2.1055,2.1379,2.1963,2.1385,2.0982,2.0744,2.0249,2.0068,2.0177,2.0175,2.0332,0.6237,0.6163,0.5903,0.5509,0.548,0.5622,0.5876,0.691,0.784,0.7875,0.9207,1.026,0.9906,1.0118,1.0342,1.036,1.0293,1.0274,1.0383,1.0488,1.0685,1.1049,1.1099,1.12,1.1469,1.1603,1.1628,1.1553,1.1728,1.1877,1.2002,1.1902,1.1902,1.2002,1.2249,1.2323,1.22,1.2332,1.2455,1.2603,1.2505,1.2578,1.2783,1.2529,1.2652,1.3051,1.2881,1.2983,1.3242,1.3338,1.3491,1.3716,1.3868,1.4176,1.4502,1.4535,1.4674,1.4823,1.4971,1.5017,1.4994,1.4662,1.4674,1.4846,1.4971,1.5097,1.5222,1.5345,1.5401,1.554,1.6055,1.6111,1.6175,1.6753,1.679,1.6725,1.6804,1.6976,1.7175,1.7263,1.7222,1.7178,1.7199,1.7115,1.7086,1.7178,1.7824,1.8382,1.8561,1.8571,1.8876,1.971,1.9978,1.9997,1.9692,2.0478,2.0764,2.0196,2.1421,2.2244,2.2435,2.2977,2.3094,2.2808,2.2672,2.2398,2.1988,2.1351,2.1411,2.2102,2.1456,2.1523,0.6915,0.6506,0.5991,0.5679,0.5605,0.572,0.6149,0.7017,0.7813,0.804,0.9391,1.0435,1.0064,1.0273,1.057,1.0825,1.0622,1.0553,1.0865,1.0974,1.1169,1.1575,1.1628,1.1703,1.1902,1.1977,1.1902,1.1628,1.1852,1.2002,1.2002,1.2076,1.215,1.22,1.2406,1.248,1.2406,1.2603,1.2735,1.2808,1.2808,1.2881,1.2978,1.2735,1.2783,1.3109,1.3079,1.319,1.342,1.3539,1.381,1.4127,1.4174,1.4419,1.4709,1.4743,1.4823,1.4915,1.4937,1.5006,1.5062,1.4914,1.5017,1.521,1.521,1.53,1.539,1.539,1.5668,1.6053,1.6441,1.6905,1.73,1.7487,1.753,1.7712,1.829,1.8022,1.7804,1.8222,1.7787,1.7352,1.7352,1.7357,1.7525,1.7971,1.8533,1.9195,2.0016,2.025,2.0253,1.9922,2.0163,2.0272,2.0074,2.0666,2.1035,2.1069,2.1879,2.2536,2.3031,2.331,2.3554,2.3825,2.3466,2.3148,2.291,2.2285,2.2167,2.2546,2.2191,2.228,0.7581,0.6847,0.6087,0.5809,0.5673,0.5755,0.6257,0.6974,0.7592,0.7896,0.9318,1.0392,1.007,1.0285,1.0726,1.1344,1.1015,1.0866,1.14,1.1595,1.1739,1.199,1.2126,1.22,1.22,1.2298,1.22,1.1852,1.2076,1.215,1.2002,1.22,1.2348,1.2348,1.2505,1.2578,1.2578,1.2847,1.2968,1.2929,1.3061,1.3085,1.3061,1.2808,1.2856,1.3099,1.3156,1.3338,1.361,1.381,1.4116,1.4466,1.4454,1.4593,1.4823,1.488,1.4892,1.4903,1.4993,1.5153,1.5315,1.5464,1.5486,1.5447,1.5485,1.5495,1.5492,1.5519,1.595,1.6443,1.6664,1.7592,1.8425,1.8219,1.8378,1.8846,1.9653,1.9116,1.8605,1.9026,1.8363,1.7683,1.7563,1.7752,1.8064,1.8604,1.919,1.9999,2.1218,2.1686,2.1469,2.0349,2.0602,2.0812,2.07,2.1129,2.1503,2.1733,2.2212,2.2744,2.3286,2.3365,2.3768,2.4574,2.4035,2.3756,2.3819,2.3192,2.2961,2.3111,2.2979,2.3091,0.738,0.676,0.6162,0.565,0.5609,0.5807,0.6214,0.7111,0.7916,0.8125,0.9605,1.0747,1.0418,1.0823,1.1497,1.2404,1.2351,1.2228,1.2372,1.2657,1.2565,1.1819,1.2175,1.2323,1.1977,1.2283,1.2431,1.2249,1.2505,1.2529,1.2274,1.2406,1.248,1.248,1.2735,1.2856,1.2856,1.306,1.3142,1.3085,1.3085,1.3036,1.2905,1.2783,1.2856,1.3099,1.3156,1.3338,1.3634,1.4012,1.4373,1.4685,1.4604,1.4857,1.5222,1.4914,1.4846,1.4994,1.5578,1.5809,1.5937,1.6605,1.6126,1.5416,1.594,1.5822,1.5608,1.6148,1.6361,1.6467,1.6722,1.7417,1.8158,1.8624,1.8657,1.8706,1.9186,1.9188,1.8985,1.8568,1.8489,1.8332,1.778,1.8136,1.8479,1.8359,1.9521,2.0535,2.0992,2.1745,2.2237,2.2239,2.2699,2.2817,2.2331,2.3152,2.3167,2.1957,2.3279,2.3851,2.3317,2.3983,2.4441,2.4609,2.4527,2.4617,2.4871,2.4141,2.4217,2.5029,2.4296,2.4363,0.8395,0.7344,0.6187,0.6215,0.6222,0.6464,0.7306,0.7708,0.8112,0.8836,0.9886,1.0619,1.0427,1.0961,1.1499,1.1767,1.1809,1.1825,1.1892,1.2401,1.2615,1.2234,1.2614,1.2754,1.2298,1.248,1.2554,1.2421,1.2603,1.2652,1.2554,1.2603,1.2627,1.2627,1.2881,1.3027,1.3027,1.3214,1.33,1.3272,1.319,1.3142,1.306,1.2895,1.2881,1.3002,1.331,1.3491,1.3644,1.4116,1.4535,1.48,1.4708,1.4869,1.5165,1.4937,1.5072,1.5357,1.5325,1.5625,1.602,1.6068,1.5786,1.5529,1.6045,1.6173,1.6204,1.65,1.6834,1.7243,1.7835,1.8597,1.932,1.9773,1.9906,2.0002,2.034,2.0157,1.9883,1.9795,1.9466,1.9206,1.9215,1.919,1.9356,1.979,2.0567,2.1325,2.1937,2.279,2.3342,2.3399,2.3131,2.2894,2.2817,2.3244,2.3509,2.3472,2.4066,2.4338,2.4215,2.4505,2.4806,2.5088,2.5045,2.5123,2.5352,2.5064,2.5064,2.5375,2.5236,2.5308,0.9441,0.8373,0.723,0.7469,0.7425,0.7591,0.8582,0.8502,0.8493,0.9421,1.0034,1.0375,1.0371,1.1007,1.1464,1.1281,1.1468,1.1655,1.1694,1.2228,1.2624,1.2709,1.3013,1.3074,1.273,1.2774,1.2749,1.2652,1.2905,1.3023,1.292,1.3013,1.2998,1.2837,1.3065,1.321,1.3234,1.3382,1.3467,1.3467,1.3362,1.3338,1.3372,1.3152,1.3113,1.3234,1.3573,1.3729,1.3823,1.4303,1.4662,1.4857,1.4777,1.4869,1.504,1.4926,1.5164,1.5483,1.5291,1.5626,1.6103,1.5974,1.5973,1.6043,1.6209,1.6302,1.6404,1.6856,1.7506,1.8264,1.9021,1.9687,2.0246,2.0611,2.0761,2.0909,2.1155,2.0944,2.0701,2.0684,2.0311,1.999,2.0034,2.0154,2.0388,2.0767,2.1434,2.2099,2.271,2.3364,2.3853,2.4073,2.3572,2.3284,2.3376,2.3569,2.3926,2.4549,2.4625,2.4746,2.4886,2.4942,2.5084,2.5397,2.5355,2.5429,2.5637,2.5637,2.5602,2.5586,2.5826,2.5901,1.0241,0.9891,0.963,0.9501,0.9266,0.9229,0.9849,0.9473,0.916,0.9777,1.0005,1.0134,1.0288,1.1014,1.1555,1.1424,1.1836,1.2181,1.2197,1.2427,1.2748,1.3158,1.3194,1.3194,1.3184,1.306,1.3007,1.2983,1.3541,1.374,1.3416,1.3715,1.3671,1.3204,1.3338,1.3467,1.3586,1.3597,1.3597,1.3597,1.3597,1.3668,1.3773,1.3515,1.3621,1.3997,1.3988,1.4071,1.4222,1.4627,1.4811,1.4811,1.4811,1.4846,1.4903,1.4903,1.4983,1.5188,1.5788,1.6091,1.6291,1.6819,1.7057,1.7073,1.6551,1.6075,1.5975,1.7242,1.8374,1.9342,2.0016,2.0347,2.0562,2.0838,2.0901,2.0962,2.1169,2.1302,2.1257,2.0789,2.0804,2.0629,1.9839,2.086,2.1524,2.0814,2.1884,2.2843,2.298,2.3132,2.3493,2.422,2.44,2.4441,2.4302,2.4605,2.4802,2.4802,2.497,2.5091,2.5107,2.522,2.5317,2.5397,2.5397,2.5511,2.5701,2.5701,2.5793,2.5992,2.5992,2.61,1.0327,0.9581,0.8813,0.9082,0.906,0.9104,0.9672,0.9695,0.9675,0.9919,1.0223,1.0424,1.0391,1.1081,1.1635,1.1538,1.2055,1.2427,1.2293,1.2876,1.3273,1.3022,1.2942,1.2949,1.2983,1.2968,1.3111,1.3586,1.3786,1.3988,1.42,1.4185,1.3864,1.3228,1.342,1.3563,1.3597,1.3692,1.3739,1.3739,1.3823,1.3847,1.3797,1.3954,1.4001,1.4012,1.4303,1.4373,1.4373,1.472,1.4926,1.5006,1.5108,1.5429,1.5812,1.5439,1.5777,1.6336,1.5834,1.5962,1.6326,1.6206,1.6261,1.6457,1.6822,1.7099,1.7476,1.8554,1.9343,1.9952,2.0295,2.0461,2.0537,2.0725,2.0825,2.0962,2.1169,2.1155,2.1248,2.1652,2.175,2.1809,2.1888,2.2104,2.2232,2.2078,2.2642,2.3117,2.3202,2.3838,2.4371,2.4609,2.4806,2.4871,2.4786,2.491,2.5048,2.5201,2.5359,2.5454,2.5454,2.5621,2.5733,2.5809,2.5901,2.601,2.6101,2.6101,2.6207,2.6416,2.6364,2.6417,1.0939,1.0437,0.9925,1.0231,1.0136,1.0054,1.0405,1.034,1.016,1.0034,1.0278,1.0421,1.0124,1.0829,1.1444,1.1377,1.1884,1.2399,1.2696,1.3075,1.3291,1.319,1.3351,1.3453,1.3367,1.3286,1.3524,1.4205,1.4246,1.4419,1.4799,1.4718,1.437,1.3772,1.3751,1.3716,1.3692,1.3763,1.3892,1.4069,1.4082,1.4176,1.4373,1.4467,1.4589,1.4742,1.5046,1.5205,0.0,1.56,1.5752,1.5799,1.594,1.6232,1.6562,1.6267,1.6551,1.6988,1.6479,1.6537,1.6823,1.6695,1.6755,1.708,1.7928,1.8393,1.8748,1.9381,1.9995,2.0486,2.0625,2.0625,2.0612,2.0687,2.0861,2.1035,2.1169,2.1253,2.1506,2.2194,2.231,2.2432,2.2819,2.3016,2.3103,2.3046,2.3472,2.3802,2.3787,2.442,2.4902,2.4906,2.5088,2.5224,2.5262,2.5282,2.5336,2.547,2.5621,2.5717,2.5754,2.5881,2.599,2.61,2.6206,2.6312,2.6417,2.6486,2.6572,2.664,2.6674,2.6725,0.0,1.2085,1.2361,1.2444,1.2073,1.1712,1.1773,1.1259,0.0,1.0212,1.0304,1.032,0.982,1.0522,1.1192,1.1224,1.1652,1.237,1.3423,1.3163,1.3053,1.3624,1.4266,1.4508,1.4202,1.4,1.416,1.4835,1.4881,1.4976,1.5227,1.5227,1.5047,1.4701,1.4278,1.3997,1.3868,1.3868,1.4093,1.4524,1.4362,1.4639,1.5336,1.5131,1.5383,1.5983,1.6079,1.6358,1.6736,1.6959,1.6984,1.6933,1.7068,1.7153,1.7201,1.7216,1.7265,1.7314,1.7545,1.7642,1.7677,1.7953,1.8262,1.8682,1.9543,1.9712,1.9653,1.9836,2.039,2.0926,2.0926,2.0825,2.0724,2.0724,2.0997,2.1229,2.1253,2.1568,2.1983,2.2443,2.2581,2.2672,2.2938,2.361,2.401,2.3713,2.4319,2.4746,2.463,2.4866,2.5064,2.5127,2.5368,2.5592,2.5782,2.5691,2.5635,2.5635,2.5824,2.5954,2.6045,2.6028,2.6118,2.6313,2.633,2.6434,2.6623,2.6826,2.6842,2.6742,2.6908,2.6975,1.2297,0.0,1.1765,1.1991,1.1823,1.1655,0.0,1.1516,1.1254,1.1298,1.1229,1.1327,1.1842,1.2033,1.2386,1.3303,1.3742,1.3994,1.4169,1.4214,1.4316,1.4583,1.4903,1.5048,1.4879,1.4774,1.4982,1.5587,1.5542,1.5552,1.5741,1.5495,1.5135,1.4708,1.4588,1.45,1.4418,1.4418,1.4535,1.4812,1.4971,1.5292,1.5776,1.6068,1.6433,1.6795,1.6456,1.6598,1.6984,1.662,1.6727,1.7131,1.7156,1.7553,1.8065,1.7642,1.7824,1.8227,1.7981,1.7905,1.7977,1.8344,1.899,1.9675,1.989,1.9869,1.9876,2.0554,2.0841,2.0985,2.0985,2.1021,2.1082,2.1082,2.1229,2.1447,2.1746,2.1973,2.2278,2.2859,2.3246,2.3565,2.3712,2.4106,2.4374,2.4301,2.4576,2.4831,2.4906,2.5236,2.5483,2.5486,2.6162,2.664,2.6697,2.6153,2.5897,2.6041,2.6152,2.6259,2.638,2.6434,2.6486,2.6537,2.6674,2.6809,2.6909,2.6942,2.6958,2.6942,2.6975,2.7024,1.2626,1.2318,1.2138,1.213,1.1997,1.1896,1.2012,1.1675,1.1427,1.1654,1.1737,1.1877,1.2258,1.2601,1.305,1.379,1.4125,1.4341,1.4474,1.4652,1.4835,1.4983,1.5239,1.5463,1.5675,1.5549,1.5732,1.6443,1.6331,1.6251,1.6342,1.5968,1.5632,1.5311,1.5024,1.4766,1.45,1.4731,1.5062,1.5533,1.5626,1.5986,1.6597,1.6788,1.7098,1.7499,1.7123,1.7338,1.7943,1.7469,1.7602,1.8108,1.8108,1.8403,1.8827,1.8545,1.8695,1.9031,1.8809,1.8907,1.9164,1.9503,2.0037,2.0566,2.0615,2.0577,2.0606,2.1062,2.1229,2.1253,2.1204,2.1229,2.1302,2.1302,2.1496,2.1722,2.1949,2.2263,2.2663,2.3135,2.3588,2.4009,2.4385,2.4605,2.4762,2.4846,2.5005,2.5088,2.5123,2.5741,2.6165,2.6238,2.7082,2.7679,2.7758,2.7412,2.7048,2.6717,2.6442,2.6365,2.6537,2.6554,2.6623,2.6742,2.6859,2.6958,2.6991,2.6991,2.6991,2.6991,2.7055,2.7103,1.2969,1.3,1.2999,1.2526,1.238,1.2367,1.2413,0.0,0.0,0.0,0.0,1.2427,1.2481,1.3,1.3582,1.4049,1.4184,1.4399,1.4806,1.4966,1.5096,1.521,1.5531,1.5922,1.6405,1.6345,1.6557,1.7235,1.7081,1.6888,1.6834,1.6457,1.6162,1.5892,1.5441,1.5017,1.4628,1.5074,1.5672,1.6373,1.6327,1.674,1.7556,1.7422,1.7659,1.8175,1.7871,1.8235,1.9016,1.86,1.8748,1.9223,1.9223,1.9302,1.942,1.9447,1.9539,1.9668,1.9734,2.0093,2.0573,2.0809,2.1044,2.1253,2.1399,2.1423,2.1423,2.1471,2.1544,2.1616,2.1496,2.1496,2.152,2.1496,2.1769,2.2091,2.2123,2.2572,2.3076,2.3428,2.3824,2.4297,2.4886,2.5005,2.5116,2.5403,2.5516,2.5587,2.5657,2.6445,2.7035,2.7167,2.7998,2.8636,2.8827,2.8846,2.854,2.7775,2.7063,2.6719,2.6809,2.6639,2.6674,2.6942,2.6991,2.7024,2.7024,2.7024,2.7024,2.704,2.7135,2.7197,1.3365,1.386,1.3895,1.276,1.2771,1.3051,1.3061,1.2846,0.0,0.0,0.0,0.0,1.4889,1.449,1.4525,1.6213,1.6082,1.5856,1.6083,1.5864,1.5714,1.5834,1.6338,1.6706,1.6738,1.7157,1.7532,1.7788,1.7654,1.725,1.652,1.6519,1.6198,1.5429,1.5583,1.5659,1.5592,1.5984,1.6383,1.6734,1.7051,1.7568,1.8237,1.8098,1.8399,1.8998,1.8492,1.8613,1.9133,1.8741,1.889,1.9368,1.9368,1.9447,1.9591,1.9708,1.9811,1.999,2.0321,2.0723,2.1106,2.1277,2.135,2.1399,2.1544,2.1568,2.1592,2.1712,2.1746,2.1746,2.1722,2.1926,2.2067,2.1926,2.2137,2.2417,2.2686,2.3068,2.345,2.3915,2.4266,2.4609,2.4946,2.5064,2.5318,2.6027,2.6258,2.6562,2.7256,2.7622,2.7866,2.8003,2.8745,2.9291,2.9465,2.9507,2.959,2.9675,2.8876,2.8224,2.7793,2.7165,2.6909,2.707,2.7086,2.7086,2.7086,2.7086,2.7119,2.7166,2.7117,2.7246,1.3353,1.368,1.381,1.3148,1.3313,1.3558,1.3276,1.2941,1.2968,0.0,0.0,0.0,1.5336,1.5273,1.5353,1.6197,1.6088,1.5891,1.5913,1.5758,1.5799,1.6266,1.6634,1.7028,1.7522,1.7861,1.8139,1.8263,1.829,1.7876,1.6869,1.6971,1.6646,1.5806,1.5925,1.6257,1.6774,1.71,1.7252,1.7229,1.7788,1.8323,1.8833,1.8833,1.9031,1.9303,1.8893,1.8993,1.9371,1.8995,1.9132,1.9617,1.9539,1.9617,1.9849,2.0131,2.0258,2.0372,2.0698,2.0934,2.1106,2.1253,2.1399,2.152,2.1592,2.1712,2.1841,2.1996,2.202,2.1996,2.1926,2.2114,2.2301,2.2231,2.2408,2.2721,2.3038,2.3392,2.3724,2.412,2.4467,2.4806,2.5103,2.5182,2.5522,2.6428,2.6675,2.7046,2.7822,2.8411,2.8801,2.8893,2.9699,3.0252,3.0336,3.0435,3.0232,2.955,2.9162,2.8861,2.8593,2.7913,2.7605,2.7754,2.7325,2.7117,2.7149,2.7117,2.7166,2.7308,2.7308,2.7386,1.3361,1.3537,1.3765,1.3659,1.3808,1.3938,1.3826,1.3432,1.3405,1.4593,1.4663,1.4732,1.5481,1.598,1.6229,1.6056,1.6029,1.5984,1.5938,1.5718,1.5849,1.6604,1.6811,1.7208,1.8018,1.8345,1.8556,1.8732,1.8851,1.845,1.7398,1.7472,1.7143,1.6268,1.6253,1.6688,1.7587,1.7879,1.7992,1.7922,1.8498,1.8976,1.9302,1.9368,1.942,1.9462,1.9283,1.9396,1.9657,1.9409,1.9523,1.9888,1.9785,1.9901,2.0182,2.0498,2.0635,2.0723,2.1008,2.1106,2.118,2.1326,2.152,2.1664,2.1688,2.1841,2.2044,2.2161,2.2254,2.2278,2.2184,2.2315,2.25,2.244,2.2652,2.2925,2.3297,2.361,2.3967,2.4343,2.4625,2.4902,2.5201,2.5422,2.5876,2.6844,2.7258,2.7748,2.8546,2.923,2.9682,2.9772,3.0456,3.0972,3.1035,3.1171,3.0758,2.9641,2.9423,2.9357,2.9412,2.8732,2.8357,2.832,2.7735,2.7339,2.7197,2.7149,2.723,2.7419,2.7465,2.7542,1.3679,1.4132,1.4331,1.4329,1.4126,1.4208,1.5356,1.52,1.5117,1.6142,1.605,1.5875,1.6186,1.6858,1.7247,1.6799,1.6834,1.696,1.7152,1.6361,1.6086,1.6869,1.7087,1.7331,1.7788,1.8398,1.8878,1.9143,1.917,1.8761,1.7823,1.787,1.748,1.6408,1.6457,1.6829,1.7587,1.7879,1.8298,1.8896,1.9216,1.9423,1.9565,1.9447,1.9539,1.9773,1.9761,1.9837,1.999,2.0067,2.0144,2.0182,2.0156,2.0321,2.056,2.0585,2.0747,2.1008,2.1277,2.1447,2.1616,2.1864,2.1864,2.1793,2.1926,2.1996,2.2044,2.2161,2.237,2.2555,2.2555,2.2652,2.2749,2.2615,2.2746,2.3016,2.3486,2.3797,2.4151,2.4661,2.4782,2.4882,2.5088,2.5731,2.6543,2.749,2.8326,2.9193,3.0128,3.0327,3.0464,3.0605,3.0841,3.1052,3.1171,3.1235,3.1317,3.1325,3.0527,3.0099,3.0302,2.9535,2.8887,2.8403,2.8334,2.7938,2.7197,2.7197,2.7308,2.7496,2.7434,2.7589,1.365,1.4338,1.4935,1.4608,1.5019,1.5543,1.5604,1.5457,1.5538,1.634,1.6525,1.6662,1.7135,1.6938,1.6794,1.7132,1.6739,1.6694,1.7602,1.7046,1.6909,1.7872,1.8044,1.8273,1.8742,1.901,1.9223,1.9328,1.901,1.8522,1.7847,1.7941,1.7688,1.7042,1.7456,1.8058,1.884,1.8786,1.9068,1.975,1.9594,1.9539,1.9617,1.972,1.9823,1.9926,2.0131,2.0271,2.0309,2.0385,2.041,2.0447,2.0447,2.056,2.0734,2.0921,2.1142,2.1399,2.1592,2.1688,2.1722,2.1841,2.1902,2.1949,2.2091,2.2254,2.2394,2.2537,2.2675,2.2752,2.2638,2.2712,2.2795,2.2783,2.3001,2.3341,2.3809,2.4114,2.4421,2.4826,2.5333,2.5572,2.5281,2.6262,2.7296,2.785,2.8584,2.9407,3.0344,3.0568,3.0651,3.0692,3.0955,3.119,3.1366,3.1404,3.1443,3.1498,3.1166,3.1052,3.1258,3.0448,2.9952,2.9834,2.8852,2.8215,2.8019,2.747,2.7308,2.7496,2.7511,2.76,1.3735,1.4406,1.5105,1.5106,0.0,1.6514,1.64,1.6127,1.6072,1.6731,1.6919,1.7145,1.7881,1.7318,1.7014,1.7823,1.7322,1.7204,1.8304,1.7801,1.766,1.861,1.8647,1.8805,1.9345,1.9394,1.942,1.9473,1.9128,1.8635,1.7967,1.8199,1.8092,1.7491,1.8111,1.8823,1.9592,1.9363,1.9608,2.0296,1.9991,1.9811,1.972,1.9913,2.0067,2.0169,2.0423,2.0587,2.0625,2.0637,2.0686,2.0723,2.0711,2.0822,2.1006,2.1204,2.1423,2.1688,2.1817,2.1902,2.1926,2.1996,2.2091,2.2208,2.2301,2.2477,2.2675,2.2772,2.2872,2.2955,2.2873,2.291,2.297,2.3046,2.3334,2.3717,2.412,2.44,2.4708,2.5326,2.5895,2.6214,2.6058,2.7147,2.8123,2.8343,2.903,2.9741,3.0402,3.0651,3.0814,3.0935,3.1114,3.131,3.1519,3.15,3.1517,3.1519,3.1557,3.1632,3.1727,3.1191,3.0849,3.0732,2.9454,2.8709,2.858,2.7752,2.7417,2.7554,2.76,2.7689,1.4073,1.4357,1.4803,1.5898,1.6401,1.6923,1.803,1.7455,1.6902,1.7572,1.7337,1.7321,1.8339,1.8183,1.8206,1.9075,1.8878,1.8793,1.9347,1.8602,1.8248,1.8945,1.8772,1.8805,1.9345,1.9394,1.9473,1.9591,1.9604,1.9195,1.8267,1.884,1.8734,1.7638,1.8285,1.8954,1.9605,1.9473,1.9793,2.0486,2.0435,2.0258,1.999,1.999,2.0195,2.0511,2.0573,2.0724,2.0926,2.0972,2.0997,2.0997,2.0924,2.1122,2.1399,2.1399,2.1568,2.1817,2.1973,2.2091,2.2231,2.237,2.25,2.2615,2.2615,2.2712,2.2824,2.2824,2.2968,2.3186,2.337,2.3385,2.3341,2.3399,2.3717,2.4088,2.4436,2.4564,2.4954,2.6182,2.6407,2.6671,2.7465,2.8382,2.9,2.9,2.9793,3.0438,3.0506,3.0733,3.1052,3.146,3.1387,3.1372,3.1579,3.1538,3.1519,3.1598,3.1727,3.1727,3.1598,3.1727,3.1492,3.0838,3.0143,2.9476,2.8819,2.8019,2.7647,2.7701,2.7701,2.7821,1.386,1.5102,1.6405,1.5841,1.7014,1.819,1.7888,1.7592,1.7666,1.852,1.8379,1.8387,1.9251,1.9018,1.8898,1.9645,1.936,1.9367,2.039,1.9709,1.93,1.98,1.9598,1.9533,1.9785,1.9746,1.9734,1.9888,1.9522,1.9207,1.8916,1.9189,1.9233,1.9018,1.9463,1.9971,2.0512,2.0239,2.0254,2.0573,2.0447,2.0296,2.0156,2.0346,2.0472,2.0573,2.0737,2.0861,2.0985,2.1082,2.1082,2.1021,2.1193,2.1315,2.1423,2.1722,2.1864,2.1996,2.2301,2.2394,2.237,2.2486,2.2855,2.325,2.3344,2.3722,2.4168,2.4369,2.4552,2.4756,2.4902,2.5213,2.5224,2.4143,2.4135,2.438,2.4544,2.4771,2.5235,2.6206,2.6893,2.7421,2.7753,2.8851,2.9592,2.9272,2.9897,3.0522,3.0814,3.0995,3.121,3.1479,3.1502,3.1579,3.1727,3.1726,3.1727,3.182,3.1857,3.1857,3.1803,3.1947,3.1915,3.1724,3.0925,3.0438,3.0295,2.9463,2.8868,2.8467,2.8513,2.8352,1.4355,1.5627,1.6877,1.6503,1.7777,1.902,1.8574,1.8248,1.8256,1.9052,1.9038,1.9136,1.9967,1.9843,1.9844,2.0468,2.0335,2.0372,2.0988,2.058,2.0293,2.0421,2.0308,2.0207,2.0233,2.0118,2.0042,2.0093,1.9825,1.9556,1.9291,1.9715,1.9874,1.9701,2.0273,2.0699,2.0901,2.0724,2.0841,2.124,2.1215,2.1165,2.1051,2.0739,2.0673,2.0772,2.0923,2.1095,2.1242,2.1572,2.1518,2.1367,2.2002,2.2142,2.2072,2.2564,2.264,2.2578,2.3108,2.2974,2.2669,2.3225,2.3554,2.3707,2.4038,2.4472,2.4912,2.5149,2.5381,2.5625,2.5948,2.6325,2.6277,2.497,2.4849,2.4973,2.4833,2.5191,2.5827,2.6804,2.7656,2.8347,2.8825,2.9615,3.0089,2.9828,3.0245,3.0729,3.1052,3.1151,3.1269,3.1479,3.1559,3.1635,3.1709,3.1781,3.1837,3.1857,3.193,3.1984,3.1984,3.209,3.2144,3.2144,3.1394,3.1009,3.1076,3.029,2.9744,2.9398,2.9081,2.8941,1.5209,1.5944,1.6624,1.7506,1.8547,1.9445,1.9851,1.9312,1.8898,1.9373,1.9489,1.9734,2.0526,2.07,2.0879,2.1352,2.1568,2.1568,2.1302,2.1253,2.1142,2.0883,2.082,2.0771,2.0635,2.0485,2.0372,2.0258,2.0346,2.0177,1.9563,2.036,2.0558,1.9972,2.0764,2.1144,2.0987,2.1113,2.1529,2.2255,2.246,2.2538,2.251,2.1327,2.0901,2.1126,2.1236,2.1483,2.1797,2.2297,2.23,2.2083,2.314,2.3282,2.2996,2.3632,2.3625,2.333,2.3936,2.3622,2.3069,2.4269,2.4385,2.419,2.4747,2.5112,2.5364,2.5545,2.582,2.6168,2.6741,2.6998,2.6885,2.5987,2.5806,2.5742,2.529,2.5735,2.6583,2.7778,2.8543,2.9312,3.0243,3.0443,3.0506,3.0526,3.0749,3.0972,3.1171,3.121,3.1288,3.1479,3.1559,3.1598,3.1635,3.1746,3.1818,3.1837,3.2018,3.2126,3.2126,3.2179,3.2214,3.2214,3.1667,3.1413,3.1413,3.0804,3.0464,3.0391,2.9622,2.9667,1.4766,1.5883,1.7239,1.725,1.847,1.9935,2.0857,2.0827,2.0514,2.0186,2.0553,2.1015,2.1199,2.1506,2.1702,2.1708,2.1926,2.202,2.1841,2.1664,2.1434,2.1288,2.108,2.0957,2.0909,2.0698,2.0535,2.051,2.0535,2.0533,2.0501,2.0904,2.1088,2.1051,2.1259,2.1447,2.1592,2.2103,2.2465,2.2754,2.33,2.3638,2.3685,2.2652,2.2054,2.1864,2.2015,2.2437,2.3093,2.3216,2.3279,2.3335,2.3803,2.3599,2.3112,2.3568,2.3321,2.2783,2.3089,2.3337,2.3591,2.4069,2.4834,2.5564,2.5696,2.6366,2.7066,2.7116,2.7519,2.8007,2.8334,2.8602,2.8624,2.7985,2.6993,2.6154,2.6006,2.6206,2.6905,2.8449,2.8927,2.9379,3.0311,3.0443,3.048,3.063,3.081,3.0972,3.1171,3.1252,3.1349,3.1479,3.1559,3.1673,3.1821,3.1875,3.1948,3.209,3.2249,3.2371,3.2404,3.2388,3.2371,3.2422,3.2264,3.2227,3.2307,3.2116,3.1777,3.1318,3.1127,3.0836,1.4806,1.5845,1.7233,1.8305,1.9347,2.0317,2.1278,2.1528,2.1462,2.1245,2.1373,2.152,2.1592,2.1864,2.2091,2.2091,2.2208,2.2254,2.2114,2.1996,2.1864,2.1793,2.166,2.1541,2.1496,2.1569,2.1462,2.1106,2.1421,2.1498,2.1288,2.1803,2.2114,2.2114,2.2308,2.2568,2.2909,2.3031,2.3449,2.418,2.4557,2.479,2.4876,2.3494,2.2493,2.1799,2.2283,2.2734,2.3167,2.3915,2.4114,2.4072,2.4843,2.4765,2.4223,2.4437,2.431,2.4047,2.4158,2.4255,2.449,2.5253,2.5766,2.6193,2.6638,2.7205,2.775,2.8042,2.8391,2.8787,2.9175,2.9396,2.9333,2.8693,2.7934,2.7267,2.6931,2.7246,2.7899,2.8857,2.9365,2.981,3.0398,3.0568,3.0671,3.0773,3.0952,3.1112,3.1308,3.1368,3.1426,3.1557,3.1634,3.171,3.1765,3.184,3.193,3.2055,3.2197,3.2336,3.2457,3.2457,3.2473,3.2557,3.2574,3.2642,3.269,3.269,3.2526,3.2197,3.1775,3.1627,1.5074,1.5961,1.7187,1.9418,2.0172,2.0586,2.1463,2.183,2.2031,2.2211,2.1973,2.1769,2.1864,2.2091,2.2278,2.2417,2.2417,2.2394,2.2278,2.2278,2.2278,2.2278,2.2278,2.2208,2.2067,2.237,2.2321,2.1667,2.219,2.2356,2.1892,2.2566,2.2929,2.2881,2.3193,2.3569,2.3911,2.3703,2.4211,2.535,2.5658,2.581,2.5831,2.4392,2.3101,2.206,2.2727,2.3103,2.3358,2.4635,2.4944,2.477,2.5899,2.5981,2.5437,2.5489,2.552,2.551,2.5535,2.5421,2.5468,2.6553,2.6663,2.6549,2.7395,2.7775,2.8048,2.8606,2.8904,2.9152,2.9637,2.9748,2.9603,2.9017,2.8818,2.8576,2.7916,2.8306,2.8885,2.9209,2.98,3.0316,3.0506,3.0733,3.0892,3.0892,3.1052,3.121,3.1402,3.1404,3.1462,3.1578,3.1671,3.1727,3.1691,3.1839,3.1966,3.1984,3.2161,3.2301,3.2405,3.2507,3.2574,3.2639,3.2706,3.2773,3.2805,3.287,3.29,3.2898,3.2177,3.2259,1.5342,1.6514,1.7852,1.8832,1.9646,2.0529,2.1686,2.2167,2.234,2.2379,2.2324,2.2301,2.2324,2.2347,2.2417,2.2555,2.2555,2.2555,2.2555,2.2555,2.2555,2.2555,2.2555,2.244,2.2208,2.2113,2.2009,2.1783,2.1876,2.1985,2.2137,2.2386,2.2577,2.2709,2.2907,2.3064,2.3219,2.38,2.4191,2.4405,2.5803,2.6352,2.6125,2.5913,2.5347,2.4497,2.4397,2.4784,2.5474,2.5697,2.5887,2.6071,2.6347,2.6098,2.5592,2.5832,2.5593,2.5175,2.5311,2.5668,2.6105,2.6392,2.6827,2.7318,2.7725,2.8125,2.8503,2.8935,2.9312,2.9637,2.9902,2.9951,2.9979,2.9989,2.9892,2.9545,2.8667,2.8645,2.901,2.9734,3.0192,3.0506,3.0651,3.081,3.0892,3.0892,3.0932,3.0972,3.1055,3.1055,3.1173,3.1481,3.1536,3.167,3.2001,3.2055,3.2161,3.2319,3.2405,3.2473,3.249,3.2658,3.2756,3.2773,3.269,3.2705,3.2884,3.2838,3.287,3.2979,3.2874,3.2903,1.5586,1.6635,1.7682,1.8884,1.9416,1.9976,2.1256,2.1528,2.1676,2.2275,2.2278,2.2208,2.2278,2.2417,2.2532,2.2592,2.2615,2.2615,2.2615,2.2532,2.2509,2.2592,2.2615,2.2592,2.2537,2.272,2.2706,2.2381,2.2743,2.3092,2.3372,2.3751,2.4034,2.4197,2.4282,2.4328,2.4397,2.4786,2.5399,2.6225,2.6994,2.7329,2.719,2.6916,2.6025,2.4742,2.4956,2.5214,2.5549,2.6035,2.6312,2.6418,2.6592,2.6538,2.6355,2.609,2.6128,2.6217,2.5914,2.6273,2.688,2.7041,2.741,2.7915,2.8238,2.8583,2.8912,2.9312,2.9582,2.9798,2.9924,3.0033,3.0103,3.0081,3.0103,3.0,2.9588,2.948,2.9599,3.0032,3.038,3.0609,3.0589,3.0794,3.0972,3.0972,3.1032,3.1075,3.1157,3.1176,3.1274,3.1521,3.1559,3.1671,3.1966,3.2055,3.2144,3.2284,3.2388,3.2456,3.2507,3.2623,3.2706,3.2807,3.2771,3.2802,3.29,3.2918,3.295,3.2995,3.3042,3.3135,1.5595,1.6552,1.7499,1.8506,1.9018,1.9514,2.0564,2.0934,2.1262,2.2121,2.2184,2.2137,2.2278,2.2463,2.2615,2.2652,2.2684,2.2669,2.2615,2.2509,2.2509,2.2669,2.2669,2.2729,2.2872,2.3161,2.3209,2.29,2.336,2.3768,2.4043,2.4672,2.4976,2.4921,2.5131,2.5229,2.5252,2.5525,2.6326,2.7633,2.7722,2.7838,2.798,2.7514,2.6535,2.5243,2.5503,2.5588,2.5576,2.6285,2.6578,2.6604,2.6817,2.6937,2.6945,2.6509,2.6743,2.7185,2.6722,2.6971,2.7514,2.77,2.7974,2.8332,2.8756,2.9044,2.9296,2.9732,2.9892,2.9979,3.0055,3.0146,3.0253,3.0146,3.0189,3.0231,3.021,3.0124,3.0081,3.021,3.0485,3.0671,3.0609,3.0855,3.1035,3.0975,3.1055,3.1154,3.1196,3.1198,3.1295,3.1559,3.1578,3.1654,3.1876,3.1984,3.209,3.2197,3.2284,3.2388,3.2507,3.2557,3.264,3.2807,3.2854,3.2884,3.29,3.2948,3.2979,3.3026,3.3104,3.3244,1.5165,1.6285,1.7577,1.7136,1.8218,1.9453,1.9712,2.0747,2.1726,2.1974,2.2208,2.2417,2.2555,2.2592,2.2638,2.2772,2.2843,2.2814,2.2623,2.2592,2.2669,2.2867,2.2889,2.2949,2.3061,2.2986,2.2978,2.3083,2.3,2.306,2.3341,2.4097,2.4253,2.3628,2.4335,2.4762,2.4837,2.5477,2.6273,2.7238,2.7105,2.7367,2.798,2.7715,2.7469,2.7221,2.6534,2.6322,2.6441,2.6698,2.6779,2.6806,2.7078,2.7119,2.7029,2.7244,2.7346,2.7386,2.7494,2.7645,2.7815,2.8088,2.8259,2.8517,2.9243,2.947,2.9605,3.0189,3.0375,3.038,3.0443,3.0485,3.0468,3.0485,3.0422,3.0338,3.0248,3.0189,3.0248,3.0359,3.0564,3.0733,3.0871,3.1052,3.1131,3.0932,3.0972,3.0975,3.0932,3.0992,3.1134,3.1479,3.1517,3.1596,3.1876,3.1894,3.2002,3.2179,3.2197,3.2284,3.249,3.2489,3.2608,3.2807,3.2789,3.2838,3.29,3.29,3.2979,3.3101,3.3229,3.3322,1.6086,1.6802,1.7689,1.8201,1.8811,1.9373,1.9788,2.0211,2.0768,2.1734,2.1829,2.1798,2.1941,2.2427,2.2791,2.2737,2.2646,2.2518,2.237,2.2347,2.244,2.2692,2.2746,2.3064,2.3811,2.3436,2.337,2.391,2.3651,2.394,2.4987,2.4897,2.4964,2.5213,2.5008,2.4918,2.4925,2.5576,2.632,2.7089,2.7379,2.7688,2.798,2.7615,2.7488,2.7499,2.7063,2.6907,2.6959,2.7026,2.7052,2.7052,2.7155,2.7207,2.7273,2.7463,2.759,2.768,2.779,2.8005,2.821,2.8446,2.8732,2.9052,2.9502,2.971,2.9864,3.0081,3.0295,3.0443,3.0338,3.0526,3.0749,3.0651,3.0609,3.0568,3.0526,3.0422,3.0375,3.0443,3.0589,3.0753,3.0935,3.1015,3.1092,3.1092,3.1154,3.1196,3.1157,3.1252,3.1423,3.167,3.1688,3.1764,3.2019,3.2037,3.2055,3.2126,3.2179,3.2232,3.2301,3.2455,3.2607,3.2673,3.2836,3.295,3.2963,3.2963,3.306,3.3229,3.3277,3.3364,1.6269,1.6932,1.7792,1.8122,1.8541,1.9045,1.959,1.9846,2.0274,2.1482,2.1779,2.1809,2.1867,2.2498,2.2876,2.2382,2.2389,2.2394,2.2231,2.2254,2.237,2.2669,2.2814,2.3236,2.4052,2.374,2.3695,2.4231,2.4139,2.452,2.5523,2.5637,2.5826,2.6191,2.5445,2.5179,2.5407,2.6032,2.6692,2.7424,2.7718,2.788,2.7855,2.7655,2.7539,2.7524,2.7335,2.7233,2.7207,2.7258,2.7258,2.7258,2.7335,2.7412,2.7554,2.7625,2.7765,2.788,2.7955,2.821,2.8534,2.8748,2.912,2.9515,2.9858,3.0033,3.0146,3.021,3.0401,3.0547,3.0464,3.0667,3.0892,3.079,3.077,3.082,3.107,3.0833,3.0584,3.0568,3.0875,3.1202,3.1321,3.1385,3.1466,3.1562,3.1424,3.1295,3.1295,3.1445,3.1595,3.1709,3.1764,3.1838,3.1983,3.2001,3.2019,3.2108,3.2108,3.2144,3.2267,3.2387,3.2489,3.2556,3.2753,3.29,3.2963,3.3011,3.3137,3.3322,3.3322,3.3437,0.0,0.0,0.0,1.6741,1.7401,1.8462,1.9046,1.9689,2.0393,2.1207,2.1982,2.2494,2.2361,2.2845,2.2871,2.1674,2.211,2.2509,2.2254,2.2324,2.2532,2.2867,2.315,2.3429,2.3805,2.3818,2.3861,2.4013,2.4386,2.4687,2.4829,2.6197,2.6709,2.6191,2.5518,2.5487,2.616,2.6685,2.7379,2.818,2.8039,2.7855,2.7625,2.774,2.7665,2.7427,2.7427,2.735,2.7233,2.7376,2.7427,2.7427,2.7549,2.7675,2.7815,2.7815,2.789,2.802,2.802,2.8326,2.8756,2.9028,2.9438,2.9875,3.0274,3.0396,3.0422,3.063,3.0692,3.0733,3.0871,3.0912,3.0892,3.0892,3.0929,3.113,3.1846,3.1482,3.0922,3.0766,3.1495,3.2122,3.2018,3.2184,3.2327,3.231,3.1746,3.1332,3.1315,3.1485,3.1617,3.1617,3.1727,3.1818,3.1818,3.1818,3.1893,3.209,3.1984,3.2055,3.2371,3.2267,3.2301,3.2507,3.2556,3.2705,3.2936,3.3042,3.3211,3.3393,3.3411,3.3506,1.7273,0.0,0.0,0.0,0.0,0.0,1.8686,1.8959,1.9452,2.0411,2.0673,2.0801,2.1111,2.1539,2.1733,2.1405,2.2054,2.2532,2.237,2.237,2.2563,2.2979,2.3194,2.3666,2.4585,2.4313,2.428,2.4687,2.4884,2.5181,2.5637,2.6046,2.5986,2.5339,2.4685,2.4698,2.5472,2.5994,2.6663,2.7491,2.7826,2.7955,2.7905,2.7815,2.779,2.7831,2.773,2.7715,2.7781,2.7715,2.7755,2.7831,2.788,2.7905,2.7955,2.8039,2.8113,2.8186,2.8414,2.8708,2.9059,2.9461,2.9766,2.9979,3.0189,3.0359,3.0464,3.0485,3.0692,3.0955,3.1092,3.1012,3.0912,3.0955,3.1379,3.1836,3.2158,3.254,3.2645,3.1866,3.2312,3.2728,3.2412,3.2722,3.2908,3.2576,3.2344,3.2098,3.1703,3.1747,3.1857,3.1965,3.2037,3.2073,3.2019,3.2055,3.209,3.209,3.2108,3.2161,3.2249,3.2301,3.2388,3.2507,3.2605,3.302,3.3776,3.3265,3.3168,3.3393,3.3549,3.3661,0.0,0.0,0.0,1.8062,0.0,0.0,1.8689,1.8713,1.8927,1.9688,1.984,1.9991,2.0487,2.0896,2.1257,2.152,2.2011,2.2432,2.25,2.2655,2.2904,2.3282,2.3436,2.3861,2.475,2.4459,2.4334,2.468,2.5126,2.5804,2.6775,2.6359,2.5917,2.5581,2.4958,2.4971,2.5691,2.6283,2.6886,2.7548,2.7847,2.7955,2.793,2.7905,2.793,2.7995,2.793,2.7955,2.8079,2.7989,2.8014,2.8079,2.8005,2.8054,2.8177,2.8186,2.8284,2.8438,2.8637,2.9179,2.9826,3.0084,3.0524,3.0936,3.0751,3.0825,3.0924,3.0667,3.0834,3.1112,3.1171,3.1112,3.1099,3.1463,3.1871,3.2381,3.313,3.3684,3.3684,3.2435,3.3094,3.3626,3.3005,3.3473,3.3892,3.3719,3.3142,3.2634,3.2412,3.2157,3.2037,3.209,3.2161,3.2179,3.2144,3.2144,3.2179,3.2214,3.2179,3.2161,3.2161,3.2249,3.2476,3.2792,3.3017,3.3609,3.4629,3.3647,3.3452,3.4,3.4534,3.4751,0.0,0.0,0.0,1.7691,1.7982,0.0,1.8853,1.88,1.8751,1.9045,1.9279,1.961,2.0136,2.0518,2.0932,2.1576,2.1751,2.1991,2.2505,2.2886,2.3191,2.3385,2.3567,2.3888,2.444,2.4328,2.428,2.4389,2.5371,2.6551,2.7919,2.6908,2.6336,2.6465,2.5905,2.5874,2.651,2.7088,2.7616,2.8054,2.8054,2.798,2.789,2.798,2.8029,2.8029,2.8029,2.8128,2.8259,2.8259,2.8259,2.8235,2.8103,2.8226,2.8436,2.8332,2.8508,2.8857,2.8904,2.9697,3.0712,3.0718,3.132,3.1958,3.1424,3.1374,3.1392,3.1015,3.1052,3.121,3.121,3.121,3.1416,3.2164,3.2401,3.288,3.441,3.4806,3.441,3.29,3.3945,3.4725,3.3752,3.4389,3.5094,3.5214,3.3975,3.3085,3.3204,3.2615,3.2179,3.2108,3.2179,3.2232,3.2214,3.2161,3.2232,3.2388,3.2319,3.2265,3.2283,3.2388,3.2755,3.3364,3.3776,3.4463,3.5409,3.423,3.4098,3.4965,3.5878,3.6237,1.8725,1.8539,1.8615,1.8537,1.9013,0.0,1.86,1.8814,1.9052,1.8641,1.8515,1.8619,1.9093,1.9122,1.9296,2.0,2.0109,2.0472,2.1584,2.1943,2.2129,2.2229,2.2641,2.3137,2.3744,2.4096,2.4512,2.505,2.6131,2.7139,2.7974,2.7278,2.6908,2.7041,2.6405,2.6427,2.7196,2.7334,2.7751,2.8477,2.8372,2.8372,2.8429,2.8235,2.8226,2.8339,2.8339,2.8396,2.8525,2.8636,2.8612,2.8525,2.8477,2.8589,2.8723,2.8748,2.9171,2.9776,3.0117,3.0416,3.0667,3.0927,3.0776,3.0451,3.0451,3.0573,3.075,3.0945,3.1134,3.1293,3.1293,3.1349,3.1628,3.238,3.2994,3.3734,3.4799,3.5488,3.5642,3.473,3.5299,3.5698,3.4901,3.5486,3.5866,3.5423,3.456,3.3786,3.3419,3.2668,3.2197,3.2179,3.2353,3.2422,3.2371,3.2405,3.2439,3.2473,3.295,3.3283,3.3389,3.3808,3.4193,3.4479,3.5349,3.5687,3.5475,3.5379,3.5493,3.5772,3.612,3.6285,2.0248,1.9967,1.9909,1.9967,1.9927,0.0,0.0,1.8836,1.8594,1.8231,1.7987,1.8016,1.8607,1.8591,1.8696,1.9253,1.9424,1.9624,1.9963,2.0898,2.1702,2.2114,2.2208,2.2676,2.3755,2.373,2.4059,2.5068,2.5741,2.6413,2.7123,2.6911,2.6803,2.6948,2.7001,2.7217,2.7558,2.7953,2.8311,2.8597,2.8541,2.8541,2.8612,2.8453,2.8468,2.8604,2.8604,2.8652,2.8684,2.8771,2.8779,2.8748,2.8692,2.8787,2.9006,2.9391,2.988,3.0433,3.0989,3.1493,3.187,3.2073,3.2166,3.2043,3.1511,3.1026,3.0753,3.1015,3.1196,3.1295,3.1295,3.1679,3.2232,3.2966,3.3738,3.4548,3.5462,3.5971,3.6151,3.5852,3.6181,3.6219,3.5311,3.5897,3.6405,3.6142,3.5101,3.427,3.4071,3.302,3.2319,3.2353,3.2439,3.2524,3.2592,3.2945,3.3174,3.3208,3.3812,3.4163,3.4199,3.4459,3.4864,3.5436,3.6452,3.6863,3.6712,3.6879,3.6837,3.6656,3.7153,3.7414,2.1427,2.134,2.145,2.1419,2.0894,2.0304,0.0,0.0,0.0,1.8027,1.7766,1.7768,1.8293,1.834,1.8341,1.8489,1.8819,1.8811,1.8107,1.9545,2.0907,2.159,2.1461,2.1872,2.3333,2.3301,2.3626,2.4783,2.5264,2.5736,2.631,2.6722,2.7012,2.7123,2.7738,2.802,2.7921,2.856,2.8795,2.8636,2.8636,2.8645,2.8668,2.8645,2.8684,2.8794,2.8842,2.8865,2.8865,2.8912,2.8975,2.9013,2.8897,2.9077,2.9458,2.9934,3.0581,3.1271,3.1747,3.2368,3.2942,3.303,3.3273,3.3401,3.2428,3.1582,3.1026,3.132,3.1511,3.1609,3.1745,3.2334,3.308,3.3816,3.4504,3.5235,3.6075,3.6335,3.6402,3.6523,3.6687,3.6519,3.5648,3.6186,3.6766,3.6809,3.5519,3.4597,3.4706,3.3389,3.2456,3.2506,3.2664,3.282,3.3004,3.3647,3.4056,3.4142,3.473,3.5064,3.5008,3.5132,3.5575,3.6342,3.7201,3.7721,3.7899,3.8053,3.7909,3.7515,3.8201,3.8559,2.1512,2.184,2.2381,2.2146,2.2146,2.1935,2.0903,0.0,1.9185,1.8353,0.0,1.7945,1.7969,0.0,0.0,1.6892,1.7359,1.7441,1.635,1.7457,1.8536,1.8982,1.9305,1.9972,2.1146,2.2812,2.3959,2.4343,2.5716,2.6516,2.6481,2.7805,2.8576,2.8661,2.8678,2.8693,2.8685,2.8787,2.8794,2.8771,2.8771,2.8826,2.8858,2.8787,2.8794,2.8818,2.899,2.9068,2.9075,2.9314,2.9428,2.9405,2.916,2.9617,3.0373,2.9977,3.1183,3.2939,3.2495,3.2318,3.2313,3.2452,3.1775,3.0905,3.0766,3.0927,3.1306,3.1989,3.2375,3.2779,3.3431,3.3771,3.4125,3.4866,3.5186,3.5544,3.6305,3.6582,3.6643,3.6664,3.6728,3.6733,3.656,3.6776,3.6928,3.6829,3.5634,3.4763,3.4798,3.3493,3.2573,3.2589,3.3226,3.3703,3.3769,3.4446,3.4889,3.4959,3.5687,3.6132,3.6114,3.6752,3.7142,3.725,3.7541,3.7757,3.7899,3.8089,3.8186,3.8194,3.8394,3.851,2.3922,2.4349,2.4698,2.3774,2.3182,2.2515,2.1216,1.9875,1.8818,1.8503,0.0,0.0,0.0,0.0,0.0,0.0,1.6931,1.6784,1.5742,1.603,1.6774,1.7993,1.8484,1.9059,1.989,2.1178,2.2157,2.26,2.3266,2.4235,2.5462,2.6504,2.7485,2.8399,2.8794,2.8975,2.8975,2.8975,2.8975,2.8975,2.8975,2.8998,2.9013,2.9068,2.9091,2.9091,2.9252,2.9628,3.0087,3.0329,3.0419,3.0435,3.053,3.0427,3.0289,3.0564,3.1362,3.2346,3.2551,3.2578,3.2504,3.2566,3.1973,3.1345,3.1909,3.1926,3.1962,3.291,3.3297,3.3505,3.3814,3.4306,3.4818,3.5128,3.5566,3.5901,3.5824,3.6273,3.6583,3.6207,3.6551,3.6908,3.6869,3.697,3.7068,3.7085,3.5858,3.4924,3.4924,3.3562,3.2782,3.331,3.3665,3.4072,3.4601,3.5385,3.5865,3.5953,3.6649,3.7004,3.6893,3.7325,3.7577,3.7577,3.7898,3.8054,3.8072,3.8191,3.8274,3.8307,3.8401,3.8462,2.6056,2.6499,2.6711,2.5158,2.4155,2.3194,2.1903,2.0336,1.9095,1.8931,1.8793,0.0,0.0,0.0,1.8064,1.7074,0.0,1.672,1.5387,1.5408,1.5993,1.7161,1.7887,1.8498,1.9028,1.9734,2.0442,2.1095,2.1414,2.2441,2.4449,2.557,2.6745,2.8063,2.8712,2.9052,2.9052,2.9052,2.9052,2.9052,2.9075,2.9121,2.9144,2.945,2.9614,2.9676,3.0044,3.0567,3.1179,3.1169,3.1199,3.1243,3.1285,3.0846,3.0276,3.0903,3.1632,3.2337,3.2545,3.2707,3.279,3.2569,3.2224,3.2018,3.2744,3.2647,3.2517,3.3526,3.4031,3.4301,3.4507,3.5056,3.5569,3.5569,3.6004,3.6267,3.5795,3.6226,3.6588,3.6092,3.6543,3.7027,3.7085,3.7089,3.7127,3.7222,3.6182,3.5368,3.5368,3.4162,3.3557,3.4194,3.4443,3.4833,3.5472,3.6221,3.6756,3.6897,3.7363,3.7594,3.7466,3.7667,3.7792,3.781,3.8121,3.829,3.8257,3.8305,3.8322,3.8322,3.8385,3.843,2.7103,2.7527,2.7799,2.5937,2.505,2.4373,2.3371,2.2032,2.0758,1.9845,1.9699,1.9489,1.8655,1.8435,0.0,0.0,0.0,0.0,0.0,1.5829,1.6501,1.6096,1.72,1.8151,1.8498,1.8832,1.9464,2.0449,2.1305,2.2418,2.3856,2.5909,2.7383,2.8063,2.8628,2.8904,2.8904,2.8904,2.8904,2.8904,2.9052,2.9167,2.9321,3.0044,3.0433,3.0613,3.1514,3.2008,3.2115,3.1605,3.1462,3.1504,3.0803,3.0584,3.0671,3.0725,3.2171,3.393,3.2597,3.2589,3.3059,3.2274,3.2064,3.213,3.2286,3.2448,3.2761,3.3567,3.4449,3.5318,3.6042,3.635,3.6468,3.6468,3.6585,3.6684,3.6667,3.6728,3.6791,3.6774,3.6873,3.7066,3.7259,3.7184,3.7108,3.7108,3.6607,3.6256,3.6256,3.558,3.5133,3.5151,3.5794,3.6257,3.6363,3.6986,3.745,3.765,3.7685,3.7757,3.7881,3.795,3.8018,3.8085,3.8239,3.8322,3.8382,3.8401,3.8399,3.8399,3.8399,3.843,2.8947,2.9406,2.9632,2.8012,2.7081,2.6244,2.4993,2.394,2.2853,2.154,2.2123,2.2129,1.9723,1.9744,0.0,0.0,0.0,0.0,0.0,1.5105,1.5141,1.4907,1.5986,1.6754,1.6779,1.7324,1.8177,1.934,1.975,2.0957,2.3247,2.4522,2.5882,2.7454,2.8196,2.8767,2.9175,2.9259,2.9298,2.9298,2.9844,3.013,3.0192,3.1051,3.1537,3.1686,3.2184,3.2488,3.2663,3.2672,3.2374,3.1926,3.184,3.1493,3.1032,3.0935,3.1463,3.2154,3.1715,3.21,3.2751,3.2337,3.2611,3.3205,3.3819,3.4072,3.4309,3.5191,3.5749,3.6112,3.6371,3.6523,3.6623,3.6623,3.6602,3.6464,3.6003,3.6382,3.6671,3.6225,3.6714,3.722,3.7278,3.7298,3.7318,3.7429,3.6808,3.6381,3.6381,3.5686,3.54,3.5935,3.6221,3.6595,3.7148,3.7434,3.7595,3.7631,3.7757,3.7846,3.7899,3.8088,3.8206,3.8221,3.8453,3.8499,3.8399,3.8446,3.8478,3.8478,3.8478,3.8478,3.0733,3.0924,3.0907,2.9126,2.8357,2.7637,2.6261,2.557,2.4872,2.3595,2.3949,2.3842,2.1741,2.1167,0.0,0.0,0.0,0.0,0.0,1.4718,1.4161,1.4054,1.5073,1.5827,1.5965,1.6386,1.7329,1.8961,1.9047,2.0156,2.2758,2.3713,2.5029,2.6829,2.787,2.8706,2.9373,2.9758,2.9948,2.9902,3.0653,3.0892,3.0683,3.1616,3.198,3.1906,3.244,3.2763,3.2927,3.2887,3.2601,3.2171,3.2063,3.1693,3.119,3.1134,3.1213,3.1383,3.1657,3.2332,3.3043,3.2903,3.3414,3.4123,3.4445,3.4744,3.5059,3.5415,3.5987,3.6523,3.6544,3.6664,3.6745,3.6745,3.6643,3.6464,3.602,3.6399,3.6669,3.6201,3.6714,3.7241,3.7297,3.7298,3.7354,3.7466,3.7112,3.6809,3.6756,3.6346,3.6256,3.6756,3.6827,3.7041,3.7595,3.7667,3.7685,3.7703,3.7846,3.7951,3.7968,3.8206,3.8354,3.837,3.858,3.8643,3.8515,3.8544,3.8575,3.8575,3.8575,3.8575]}]]